[[[{"header":{"parameterUnit":"kt","parameterCategory":2,"dx":1,"dy":1,"la1":29.285339999999998,"la2":30.599998999999997,"lo1":-89.70041500000002,"lo2":-87.6738589999976,"nx":112,"ny":82,"refTime":"2022-09-21T12:00:00:Z","depth":0,"parameterNumber":1,"parameterNumberName":"U-component_of_WINDS"},"data":[9.2907,9.4916,9.522,8.9466,8.9771,8.967,8.2912,8.099,8.0593,8.0593,7.9174,7.8746,8.1189,7.9603,7.8153,7.891,7.802,7.7167,0.0,7.7595,7.7891,7.7891,8.1221,8.4339,8.6467,9.1849,9.562,9.6443,9.8736,10.0517,10.1858,10.2848,10.4042,10.5509,10.7079,10.7898,10.7898,10.7898,10.7898,10.7898,10.7898,10.7898,10.7898,10.7898,10.7898,10.7898,10.7898,10.7898,10.7898,10.7898,10.7898,10.7898,10.7898,10.7898,10.7898,10.7898,10.7898,10.7898,10.7898,10.7898,10.7898,10.7898,10.7898,10.7898,10.7898,10.7898,10.8,10.8512,10.8273,10.8034,10.8512,10.8273,10.7898,10.7898,10.7898,10.7898,10.7898,10.7898,10.7898,10.7898,10.7898,10.7898,10.7898,10.7898,10.7898,10.7898,10.7898,10.7898,10.7898,10.7898,10.7898,10.7898,10.7898,10.7898,10.7898,10.7898,10.7898,10.7898,10.7898,10.7898,10.7898,10.6396,10.4861,10.3394,10.1892,10.0391,9.8923,9.9435,9.9708,9.9708,9.9708,9.9708,8.8191,8.9844,9.0146,8.4277,8.4612,8.4879,7.9174,7.7891,7.7891,7.7891,7.7891,7.7891,7.7891,7.7891,7.7595,7.6641,7.6872,7.7036,0.0,7.6872,7.7562,7.8516,8.3077,8.6908,8.9012,9.4084,9.6815,9.5906,9.8974,10.1095,10.1858,10.3291,10.4793,10.6294,10.7352,10.7898,10.7898,10.7898,10.7898,10.7898,10.7898,10.7898,10.7898,10.7898,10.7898,10.7898,10.7898,10.7898,10.7898,10.7898,10.7898,10.7898,10.7898,10.7898,10.7898,10.7898,10.7898,10.7898,10.7898,10.7898,10.7898,10.7898,10.7898,10.7898,10.7898,10.7898,10.7898,10.7898,10.7898,10.7898,10.7898,10.7898,10.7898,10.7898,10.7898,10.7898,10.7898,10.7898,10.7898,10.7898,10.7898,10.7898,10.7898,10.7898,10.7898,10.7898,10.7898,10.7898,10.7898,10.7898,10.7898,10.7898,10.7898,10.7898,10.7898,10.7898,10.7898,10.7898,10.7386,10.7113,10.7113,10.5134,10.3598,10.2609,10.1141,9.9913,9.8923,9.8923,9.8923,9.8923,9.8923,9.8923,8.4914,8.3114,8.2383,7.8811,7.8055,7.812,7.7924,7.7891,7.7891,7.7891,7.7891,7.7891,7.7891,7.7891,7.7003,7.4274,7.5063,0.0,0.0,7.5162,7.7297,8.0129,8.4663,8.9012,9.2493,9.4346,9.5505,9.594,9.8717,10.1276,10.3291,10.4758,10.6294,10.7864,10.7898,10.7898,10.7898,10.7898,10.7898,10.7898,10.7898,10.7898,10.7898,10.7898,10.7898,10.7898,10.7898,10.7898,10.7898,10.7898,10.7898,10.7898,10.7898,10.7898,10.7898,10.7898,10.7898,10.7898,10.7898,10.7898,10.7898,10.7898,10.7898,10.7898,10.7898,10.7898,10.7898,10.7898,10.7898,10.7898,10.7898,10.7898,10.7898,10.7898,10.7898,10.7898,10.7898,10.7898,10.7898,10.7898,10.7898,10.7898,10.7898,10.7898,10.7898,10.7898,10.7898,10.7898,10.7898,10.7898,10.7898,10.7898,10.7898,10.7898,10.7898,10.7864,10.783,10.783,10.6362,10.5475,10.5475,10.2677,10.1107,10.1107,9.9674,9.8923,9.8923,9.8923,9.8923,9.8923,9.8923,9.8923,8.0161,8.1255,8.2383,7.8811,7.9899,8.1123,7.8483,7.7891,7.7891,7.7891,7.7891,0.0,0.0,0.0,7.7661,7.6872,0.0,8.013,7.7199,8.1519,8.5649,8.7452,8.9796,9.2258,9.4708,9.8656,10.0306,9.8235,10.0857,10.284,10.3359,10.4758,10.6294,10.7864,10.7898,10.7898,10.7898,10.7898,10.7898,10.7898,10.7898,10.7898,10.7898,10.7898,10.7898,10.7898,10.7898,10.7898,10.7898,10.7898,10.7898,10.7898,10.7898,10.7898,10.7898,10.7898,10.7898,10.7898,10.7898,10.7898,10.7898,10.7898,10.7898,10.7898,10.7898,10.7898,10.7898,10.7898,10.7898,10.7898,10.7898,10.7898,10.7898,10.7898,10.7898,10.7898,10.7898,10.7898,10.7898,10.7898,10.7898,10.7898,10.7898,10.7898,10.7898,10.7898,10.7898,10.7898,10.7898,10.7898,10.7898,10.7898,10.7898,10.7898,10.7898,10.684,10.6192,10.6192,10.4793,10.3974,10.3974,10.2131,10.1107,10.1107,9.9674,9.8923,9.8923,9.8923,9.8923,9.8923,9.8923,9.8923,7.7908,7.8548,7.9799,7.8285,7.9471,8.0494,7.8384,7.7891,7.7891,7.7891,0.0,0.0,0.0,0.0,0.0,0.0,8.0461,8.2482,8.0428,8.5414,8.9911,9.1322,9.4265,9.6138,9.5872,9.8533,10.0108,9.9879,10.1232,10.273,10.4212,10.5714,10.6976,10.7898,10.7898,10.7898,10.7898,10.7898,10.7898,10.7898,10.7898,10.7898,10.7898,10.7898,10.7898,10.7898,10.7898,10.7898,10.7898,10.7898,10.7898,10.7898,10.7898,10.7898,10.7898,10.7898,10.7898,10.7898,10.7898,10.7898,10.7898,10.7898,10.7898,10.7898,10.7898,10.7898,10.7898,10.7898,10.7898,10.7898,10.7898,10.7898,10.7898,10.7898,10.7898,10.7898,10.7898,10.7898,10.7898,10.7898,10.7898,10.7898,10.7898,10.7898,10.7898,10.7898,10.7898,10.7898,10.7898,10.7898,10.7898,10.7898,10.7318,10.6942,10.6942,10.5509,10.4656,10.4656,10.3837,10.3086,10.2438,10.0971,10.0186,10.0186,9.9367,9.8923,9.8923,9.8923,9.8923,9.8923,9.8923,9.9099,7.7231,7.5725,7.6148,7.7562,7.7891,7.7989,7.8219,0.0,7.8384,7.8712,0.0,7.8778,7.891,0.0,0.0,7.733,8.1354,8.4479,8.4113,8.8464,9.2306,9.3513,9.8086,9.9767,9.6487,9.6215,9.7475,10.0795,10.0809,10.2023,10.5407,10.7045,10.7898,10.7898,10.7898,10.7898,10.7898,10.7898,10.7898,10.7898,10.7898,10.7898,10.7898,10.7898,10.7898,10.7898,10.7898,10.7898,10.7898,10.7898,10.7898,10.7898,10.7898,10.7898,10.7898,10.7898,10.7898,10.7898,10.7898,10.7898,10.7898,10.7898,10.7898,10.7898,10.7898,10.7898,10.7898,10.7898,10.7898,10.7898,10.7898,10.7898,10.7898,10.7898,10.7898,10.7898,10.7898,10.7898,10.7898,10.7898,10.7898,10.7898,10.7898,10.7898,10.7898,10.7898,10.7898,10.7898,10.7898,10.7761,10.7625,10.7625,10.6226,10.5304,10.5304,10.3974,10.3121,10.3121,10.2984,10.2267,10.0903,9.9606,9.8923,9.8923,9.8923,9.8923,9.8923,9.8923,9.9028,9.9099,9.9099,9.9409,7.6187,7.5792,7.6148,7.7562,7.7891,7.8317,0.0,0.0,0.0,8.3142,8.3629,8.3883,8.482,8.5352,8.5566,8.5268,8.9838,9.241,8.9539,9.4853,9.9116,9.9422,10.0454,10.0425,9.8545,9.8375,9.9091,10.0971,10.2124,10.359,10.5475,10.7045,10.7898,10.7898,10.7898,10.7898,10.7898,10.7898,10.7898,10.7898,10.7898,10.7898,10.7898,10.7898,10.7898,10.7898,10.7898,10.7898,10.7898,10.7898,10.7898,10.7898,10.7898,10.7898,10.7898,10.7898,10.7898,10.7898,10.7898,10.7898,10.7898,10.7898,10.7898,10.7898,10.7898,10.7898,10.7898,10.7898,10.7898,10.7898,10.7898,10.7898,10.7898,10.7898,10.7898,10.7898,10.7898,10.7898,10.7898,10.7898,10.7898,10.7898,10.7898,10.7898,10.7898,10.7898,10.7898,10.7898,10.7898,10.6806,10.6021,10.6021,10.469,10.3803,10.3803,10.2438,10.1551,10.1551,10.0425,9.964,9.9367,9.9094,9.8923,9.8923,9.8923,9.8923,9.8923,9.8923,9.9272,9.9746,9.9746,10.0108,7.4879,7.4717,7.5228,7.7365,7.7891,0.0,0.0,8.0421,8.1748,8.2597,8.4421,8.5765,8.5765,8.7349,8.8633,8.8633,9.2666,9.5838,9.5838,9.8844,10.1107,10.1107,10.0459,9.9708,9.8992,9.8923,9.9538,10.1005,10.3189,10.5134,10.6669,10.7488,10.7898,10.7898,10.7898,10.7898,10.7898,10.7898,10.7898,10.7898,10.7898,10.7898,10.7898,10.7898,10.7898,10.7898,10.7898,10.7898,10.7898,10.7898,10.7898,10.7898,10.7898,10.7898,10.7898,10.7898,10.7898,10.7898,10.7898,10.7898,10.7898,10.7898,10.7898,10.7898,10.7898,10.7898,10.7898,10.7898,10.7898,10.7898,10.7898,10.7898,10.7898,10.7898,10.7898,10.7898,10.7898,10.7898,10.7898,10.7898,10.7898,10.7898,10.7898,10.7898,10.7625,10.684,10.6738,10.6465,10.5714,10.4963,10.4485,10.4485,10.3121,10.2233,10.2233,10.0868,10.0015,10.0015,9.9333,9.8923,9.8923,9.8923,9.8923,9.8923,9.8923,9.8923,9.8923,9.9647,9.998,9.9876,10.0304,10.088,7.3605,7.358,7.4373,7.72,7.7891,0.0,7.8869,8.0963,8.2819,8.2938,8.5605,8.7898,8.7407,8.9366,9.1235,9.1611,9.4522,9.778,10.0659,10.0868,10.0698,10.0698,9.964,9.8923,9.8923,9.8923,9.9538,10.1005,10.3632,10.5953,10.7795,10.7898,10.7898,10.7898,10.7898,10.7898,10.7898,10.7898,10.7898,10.7898,10.7898,10.7898,10.7898,10.7898,10.7898,10.7898,10.7898,10.7898,10.7898,10.7898,10.7898,10.7898,10.7898,10.7898,10.7898,10.7898,10.7898,10.7898,10.7898,10.7898,10.7898,10.7898,10.7898,10.7898,10.7898,10.7898,10.7898,10.7898,10.7898,10.7898,10.7898,10.7898,10.7898,10.7898,10.7898,10.7898,10.7898,10.7898,10.7898,10.7898,10.7898,10.7898,10.7898,10.7659,10.7011,10.5748,10.5304,10.4724,10.353,10.3121,10.295,10.295,10.1585,10.0698,10.0698,9.9606,9.8923,9.8923,9.8923,9.8923,9.8923,9.8923,9.8923,9.8923,9.8923,9.8923,9.8923,10.0276,10.069,10.0367,10.0974,10.1747,7.2658,7.3688,7.4373,7.72,7.7891,0.0,8.2099,8.3707,8.5876,8.998,9.2018,9.3503,9.5666,9.5727,9.6095,9.7789,9.9007,10.008,10.0965,9.9981,9.9162,9.9162,9.9026,9.8923,9.8923,9.8923,9.9538,10.1005,10.2677,10.4861,10.7761,10.7898,10.7898,10.7898,10.7898,10.7898,10.7898,10.7898,10.7898,10.7898,10.7898,10.7898,10.7898,10.7898,10.7898,10.7898,10.7898,10.7898,10.7898,10.7898,10.7898,10.7898,10.7898,10.7898,10.7898,10.7898,10.7898,10.7898,10.7898,10.7898,10.7898,10.7898,10.7898,10.7898,10.7898,10.7898,10.7898,10.7898,10.7898,10.7898,10.7898,10.7898,10.7898,10.7898,10.7898,10.7898,10.7898,10.7898,10.7898,10.7898,10.7898,10.7898,10.7898,10.6738,10.5748,10.5577,10.4451,10.3564,10.3394,10.2199,10.1346,10.1346,10.0049,9.9162,9.9162,9.9026,9.8923,9.8923,9.8923,9.8923,9.8923,9.8923,9.8923,9.8923,9.8923,9.8923,9.8923,9.9679,10.069,10.1962,10.2051,10.2524,7.2458,7.3682,7.4373,7.72,0.0,0.0,8.1459,8.4806,8.8017,8.9376,9.2946,9.5724,9.5371,9.7171,9.8825,9.9176,9.9119,9.9165,9.9738,9.9299,9.8923,9.8923,9.8923,9.8923,9.8923,9.8923,9.9538,10.1005,10.254,10.4315,10.6431,10.742,10.7898,10.7898,10.7898,10.7898,10.7898,10.7898,10.7898,10.7898,10.7898,10.7898,10.7898,10.7898,10.7898,10.7898,10.7898,10.7898,10.7898,10.7898,10.7898,10.7898,10.7898,10.7898,10.7898,10.7898,10.7898,10.7898,10.7898,10.7898,10.7898,10.7898,10.7898,10.7898,10.7898,10.7898,10.7898,10.7898,10.7898,10.7898,10.7898,10.7898,10.7898,10.7898,10.7898,10.7898,10.7898,10.7898,10.7898,10.7898,10.7181,10.6533,10.6533,10.5304,10.3974,10.3086,10.2438,10.1756,10.0868,10.022,9.9845,9.9845,9.9265,9.8923,9.8923,9.8923,9.8923,9.8923,9.8923,9.8923,9.8923,9.8923,9.8923,9.8923,9.8923,9.9203,9.9477,10.0241,10.1382,10.2937,10.2937,10.3141,7.2458,0.0,0.0,0.0,0.0,0.0,8.2003,8.5794,8.8973,8.8995,9.2942,9.6043,9.5143,9.7369,9.9157,9.8707,9.8233,9.8216,9.8784,9.8923,9.8923,9.8923,9.8923,9.8923,9.8923,9.8923,9.9538,10.1005,10.2131,10.3394,10.4895,10.6431,10.7454,10.7898,10.7898,10.7898,10.7898,10.7898,10.7898,10.7898,10.7898,10.7898,10.7898,10.7898,10.7898,10.7898,10.7898,10.7898,10.7898,10.7898,10.7898,10.7898,10.7898,10.7898,10.7898,10.7898,10.7898,10.7898,10.7898,10.7898,10.7898,10.7898,10.7898,10.7898,10.7898,10.7898,10.7898,10.7898,10.7898,10.7898,10.7898,10.7898,10.7898,10.7898,10.7898,10.7898,10.7898,10.7557,10.7249,10.7249,10.6021,10.4963,10.4963,10.3735,10.237,10.1278,10.0766,10.0118,9.906,9.8923,9.8923,9.8923,9.8923,9.8923,9.8923,9.8923,9.8994,9.9169,9.9272,9.9375,9.9546,9.9546,9.9546,9.9546,9.9546,9.9915,10.056,10.1068,10.2051,10.3425,10.3425,10.3425,0.0,0.0,0.0,7.9406,8.0614,8.1684,8.5233,8.7126,8.8646,9.1478,9.3018,9.4635,9.7698,9.7226,9.6528,9.7033,9.7559,9.8216,9.8784,9.8923,9.8923,9.8923,9.8923,9.8923,9.8923,9.8923,9.9538,10.1005,10.1141,10.1858,10.3359,10.4827,10.6328,10.7864,10.7898,10.7898,10.7898,10.7898,10.7898,10.7898,10.7898,10.7898,10.7898,10.7898,10.7898,10.7898,10.7898,10.7898,10.7898,10.7898,10.7898,10.7898,10.7898,10.7898,10.7898,10.7898,10.7898,10.7898,10.7898,10.7898,10.7898,10.7898,10.7898,10.7898,10.7898,10.7898,10.7898,10.7898,10.7898,10.7898,10.7898,10.7898,10.7898,10.7898,10.7898,10.7898,10.7898,10.6703,10.5646,10.5646,10.4451,10.3428,10.3428,10.2199,10.1176,10.1107,9.9913,9.8958,9.8923,9.8923,9.8923,9.8923,9.8923,9.8923,9.8923,9.8923,9.9272,9.9811,9.9911,10.0207,10.1009,10.1009,10.1009,10.1009,10.1009,10.1382,10.2139,10.2227,10.2646,10.3425,10.3425,10.3425,7.3995,7.5366,7.6494,8.1245,8.3503,8.454,8.4854,8.7363,8.9835,9.0649,9.3146,9.5323,9.6161,9.5667,9.5779,9.7381,9.7856,9.8216,9.8784,9.8923,9.8923,9.8923,9.8923,9.8923,9.8923,9.8923,9.9128,9.9606,10.0561,10.1346,10.1858,10.3291,10.4349,10.4861,10.4895,10.5373,10.6328,10.6328,10.6874,10.7898,10.7898,10.7898,10.7898,10.7898,10.7898,10.7898,10.7898,10.7898,10.7898,10.7898,10.7898,10.7898,10.7898,10.7898,10.7898,10.7898,10.7898,10.7898,10.7898,10.7898,10.7898,10.7898,10.7898,10.7898,10.7898,10.7898,10.7898,10.7898,10.7898,10.7898,10.7898,10.7898,10.7898,10.7898,10.7898,10.7898,10.7898,10.5885,10.411,10.411,10.2916,10.1858,10.1858,10.063,9.964,9.964,9.923,9.8923,9.8923,9.9341,9.9578,9.9578,10.0079,10.0374,10.0374,10.0374,10.0471,10.069,10.069,10.082,10.1103,10.1103,10.1103,10.1103,10.1103,10.1691,10.3021,10.3021,10.3141,10.3425,10.3425,10.3425,7.4606,7.6322,7.7451,8.3058,8.4982,8.5504,8.5207,8.7256,8.9309,8.9592,9.186,9.4111,9.4898,9.5543,9.6328,9.7746,9.8216,9.8431,9.8923,9.8923,9.8923,9.8923,9.8923,9.8923,9.8923,9.8923,9.8923,9.8923,9.9811,10.0322,10.0322,10.1756,10.2575,10.2575,10.3086,10.3837,10.4758,10.4793,10.5304,10.6294,10.6294,10.6567,10.7079,10.7079,10.7386,10.783,10.6772,10.6294,10.6294,10.6294,10.6601,10.7079,10.7079,10.742,10.7898,10.7898,10.7898,10.7898,10.7898,10.7898,10.7898,10.7898,10.7898,10.7898,10.7898,10.7898,10.7898,10.7898,10.7898,10.7898,10.7898,10.7898,10.7898,10.7898,10.7898,10.7625,10.6533,10.4536,10.2973,10.2973,10.1916,10.1058,10.1058,10.0266,9.9748,9.9748,9.9748,9.9748,9.9748,10.0044,10.0269,10.0269,10.0785,10.1103,10.1103,10.1103,10.1197,10.1474,10.1474,10.1565,10.1872,10.1872,10.1872,10.1872,10.1872,10.235,10.3425,10.3425,10.3425,10.3425,10.2854,10.2569,7.4316,7.6454,7.8065,8.4758,8.5317,8.4746,8.6291,8.6769,8.7074,8.8226,8.9619,9.1331,9.3925,9.6295,9.7746,9.7856,9.8465,9.8923,9.8923,9.8923,9.8923,9.8923,9.8923,9.8923,9.8923,9.8923,9.8923,9.8923,9.8923,9.8923,9.8923,10.022,10.1005,10.1005,10.2404,10.3155,10.3155,10.3223,10.3291,10.3359,10.3359,10.411,10.5441,10.5441,10.626,10.7522,10.4622,10.3359,10.3359,10.3359,10.4178,10.5441,10.5441,10.6362,10.7659,10.7659,10.7659,10.7659,10.7659,10.7659,10.7659,10.7659,10.7659,10.7659,10.7659,10.7659,10.7659,10.7659,10.7659,10.7659,10.7659,10.7659,10.7659,10.7659,10.7659,10.6874,10.4008,10.288,10.2225,10.2156,10.1541,10.1103,10.1103,10.1103,10.1103,10.1103,10.1103,10.1103,10.1103,10.1103,10.1103,10.1103,10.1197,10.1197,10.1197,10.1197,10.1474,10.2227,10.2315,10.2646,10.3342,10.3425,10.3425,10.3425,10.3425,10.3425,10.3425,10.3353,10.3318,10.3282,10.1677,10.0963,7.4784,7.8693,8.1541,8.5719,8.6397,8.5811,8.4282,8.4773,8.5987,8.7725,8.9663,9.1,9.1349,9.2996,9.4934,9.6899,9.7746,9.8323,9.8889,9.8923,9.8923,9.8923,9.8923,9.8923,9.8923,9.8923,9.8923,9.8923,9.8923,9.8923,9.8923,9.9265,9.9469,9.9469,9.9845,10.0049,10.0049,10.1141,10.2267,10.3359,10.3359,10.3564,10.394,10.394,10.4144,10.4485,10.3701,10.3359,10.3359,10.3359,10.3598,10.394,10.394,10.4178,10.452,10.452,10.452,10.452,10.452,10.452,10.452,10.452,10.452,10.452,10.452,10.452,10.452,10.452,10.452,10.452,10.452,10.452,10.452,10.452,10.452,10.4315,10.353,10.3262,10.2807,10.1622,10.1194,10.1103,10.1103,10.1103,10.1103,10.1103,10.1103,10.1103,10.1103,10.1565,10.1962,10.1962,10.2473,10.2852,10.2852,10.2852,10.2937,10.3141,10.3141,10.3224,10.3425,10.3425,10.3425,10.3425,10.3425,10.3425,10.3425,10.2247,10.1677,10.1641,10.0071,9.9322,7.2061,7.7505,8.2743,8.611,8.6462,8.551,8.3452,8.3575,8.4464,8.5574,8.7219,8.9075,9.0886,9.2617,9.4534,9.7057,9.7999,9.8571,9.8923,9.8923,9.8923,9.8923,9.8923,9.8923,9.8923,9.8923,9.8923,9.8923,9.8923,9.8923,9.8923,9.8923,9.8923,9.8923,9.8923,9.8923,9.8923,9.9742,10.0561,10.1414,10.1414,10.1756,10.237,10.237,10.2029,10.1414,10.1414,10.1414,10.1414,10.1414,10.179,10.237,10.237,10.2779,10.3359,10.3359,10.3359,10.3359,10.3359,10.3359,10.3359,10.3359,10.3359,10.3359,10.3359,10.3359,10.3503,10.3795,10.3903,10.401,10.426,10.4331,10.4331,10.4331,10.4331,10.4125,10.3307,10.2981,10.264,10.2086,10.2015,10.2086,10.2086,10.2086,10.2086,10.2086,10.2086,10.2086,10.2086,10.2437,10.2731,10.2731,10.3141,10.3425,10.3425,10.3425,10.3425,10.3425,10.3425,10.3425,10.3425,10.3425,10.3425,10.3425,10.2747,10.2069,10.1356,10.0464,10.0036,10.0,9.843,9.7717,6.9224,7.5054,8.2043,8.5742,8.5768,8.4548,8.2991,8.2684,8.2746,8.3192,8.4449,8.6781,9.113,9.3313,9.5202,9.7349,9.8435,9.8923,9.8923,9.8923,9.8923,9.8923,9.8923,9.8923,9.8923,9.8923,9.8923,9.8923,9.8923,9.8923,9.8923,9.8923,9.8923,9.8923,9.8923,9.8923,9.8923,9.8923,9.8923,9.8923,9.8923,9.9572,10.08,10.08,10.0118,9.8923,9.8923,9.9028,9.9099,9.9099,9.9817,10.1086,10.098,10.18,10.3071,10.3037,10.3144,10.3251,10.3289,10.3289,10.3289,10.3289,10.3289,10.3289,10.3289,10.3289,10.3501,10.4124,10.4327,10.4494,10.5017,10.5176,10.5176,10.5176,10.5367,10.5027,10.3425,10.2761,10.2653,10.3195,10.3454,10.3633,10.3633,10.3552,10.3507,10.3425,10.3425,10.3425,10.3425,10.3425,10.3425,10.3425,10.3425,10.3425,10.3425,10.3425,10.3425,10.3425,10.3425,10.3425,10.3425,10.3425,10.3246,10.2818,10.1463,10.0107,9.8751,9.8537,9.843,9.8394,9.6789,9.6076,7.3746,7.602,7.7849,8.383,8.4913,8.3907,8.1775,8.121,8.1806,8.3848,8.5412,8.6888,8.87,9.1842,9.4545,9.5788,9.7721,9.8923,9.8923,9.8923,9.8923,9.8923,9.8923,9.8923,9.8923,9.8923,9.8923,9.8923,9.8923,9.8923,9.8923,9.8923,9.8923,9.8923,9.8923,9.8923,9.8923,9.8923,9.8923,9.8923,9.8923,9.906,9.9299,9.9299,9.9162,9.8923,9.8923,9.9272,9.9711,9.9711,10.0281,10.1012,10.0425,10.0662,10.1491,10.1352,10.1732,10.2289,10.2739,10.2965,10.2965,10.2965,10.2965,10.2965,10.2965,10.2965,10.2965,10.3051,10.3172,10.3136,10.3306,10.3306,10.3306,10.3306,10.4231,10.4964,10.4643,10.4534,10.4497,10.4642,10.4679,10.4715,10.4715,10.431,10.3922,10.3471,10.3425,10.3425,10.3425,10.3425,10.3425,10.3425,10.3425,10.3425,10.3425,10.3425,10.3425,10.3425,10.3425,10.3425,10.3425,10.3425,10.2212,9.9607,9.9286,9.9037,9.8751,9.7431,9.6789,9.6753,9.5112,9.4327,7.175,7.5128,7.8288,8.07,8.2477,8.334,8.1944,8.1634,8.2041,8.3227,8.4576,8.6037,8.7915,9.0254,9.2371,9.4202,9.6256,9.7695,9.7695,9.8412,9.8923,9.8923,9.8923,9.8923,9.8923,9.8923,9.8923,9.8923,9.8923,9.8923,9.8923,9.8923,9.8923,9.8923,9.8923,9.8923,9.8923,9.8923,9.8923,9.8923,9.8923,9.8923,9.8923,9.9748,10.0014,10.0014,10.0014,10.0276,10.0498,10.0498,10.0725,10.1103,10.0998,10.1277,10.1641,10.1822,10.2099,10.2511,10.2736,10.2783,10.2783,10.2783,10.2783,10.2783,10.2783,10.2783,10.29,10.3292,10.3407,10.3485,10.3871,10.3946,10.3946,10.3946,10.4923,10.5904,10.5904,10.5646,10.5447,10.5447,10.5207,10.4892,10.4643,10.4385,10.4,10.3507,10.3425,10.3425,10.3425,10.3425,10.3425,10.3425,10.3425,10.3425,10.3425,10.3425,10.3425,10.3425,10.3425,10.3068,10.2247,10.1427,9.9893,9.7574,9.7503,9.7074,9.6218,9.5469,9.5077,9.5077,9.4256,9.3899,7.0998,7.4866,7.8996,7.9435,8.0881,8.2243,8.2446,8.2751,8.3085,8.3415,8.4413,8.5848,8.8062,8.9331,9.0781,9.2857,9.483,9.6091,9.6091,9.7422,9.8412,9.8412,9.8719,9.8923,9.8923,9.8923,9.8923,9.8923,9.8923,9.8923,9.8923,9.8923,9.8923,9.8923,9.8923,9.8923,9.8923,9.8923,9.8923,9.8923,9.9099,9.9169,9.9169,10.0471,10.1103,10.1103,10.1255,10.1404,10.1731,10.1731,10.1821,10.1998,10.2312,10.2533,10.2701,10.3097,10.3378,10.3492,10.361,10.3687,10.3687,10.3687,10.3687,10.3687,10.3687,10.3687,10.3799,10.4389,10.4606,10.4678,10.5239,10.5306,10.5306,10.5306,10.6066,10.6719,10.6719,10.6386,10.614,10.614,10.5616,10.5069,10.4606,10.4385,10.4042,10.3597,10.3507,10.3425,10.3425,10.3425,10.3425,10.3425,10.3425,10.3425,10.3425,10.3425,10.3282,10.2961,10.2925,10.2212,10.0642,9.9072,9.7503,9.5897,9.5861,9.5184,9.3899,9.3899,9.3899,9.3899,9.3899,9.3899,7.781,7.7365,7.6462,8.2912,8.2163,8.0301,8.2009,8.3654,8.5282,8.6755,8.7078,8.7536,8.877,9.0219,9.1436,9.2106,9.3566,9.4521,9.4521,9.5818,9.6774,9.6774,9.8036,9.8923,9.8923,9.8923,9.8923,9.8923,9.8923,9.8923,9.8923,9.8923,9.8923,9.8923,9.8923,9.8923,9.8923,9.8923,9.8923,9.8923,9.9578,9.9811,9.9811,10.069,10.1103,10.1103,10.1731,10.2617,10.3749,10.3749,10.4054,10.457,10.4015,10.4166,10.4714,10.4569,10.5029,10.5747,10.619,10.6373,10.6373,10.6373,10.6373,10.6373,10.6373,10.6373,10.641,10.641,10.6469,10.6506,10.6565,10.6565,10.6565,10.6565,10.6661,10.6719,10.6719,10.6661,10.6661,10.6661,10.6202,10.5849,10.5784,10.4894,10.4159,10.4118,10.3758,10.3425,10.3425,10.3425,10.3425,10.3425,10.3425,10.3425,10.3425,10.3425,10.2818,10.1391,10.1284,10.0571,9.9037,9.7431,9.5826,9.4149,9.4113,9.4042,9.3899,9.3899,9.3899,9.3899,9.3899,9.3899,7.08,7.3465,7.5837,7.6055,7.8451,8.0757,8.0654,8.1633,8.3318,8.6002,8.5898,8.5661,8.6989,8.9031,9.0072,8.9155,9.1221,9.2986,9.2986,9.4317,9.5272,9.5204,9.575,9.6501,9.7422,9.7524,9.79,9.8855,9.8923,9.8923,9.8923,9.8923,9.8923,9.8923,9.8923,9.8923,9.8923,9.9341,9.9477,9.9511,10.0241,10.0594,10.069,10.1872,10.2473,10.2473,10.2781,10.32,10.3686,10.3686,10.3844,10.4078,10.4046,10.4274,10.457,10.5275,10.5646,10.6014,10.6543,10.6719,10.6719,10.6719,10.6719,10.6719,10.6719,10.6719,10.6719,10.6719,10.6719,10.6719,10.6719,10.6719,10.6719,10.6719,10.6719,10.6719,10.6719,10.6719,10.6719,10.6719,10.6506,10.6325,10.6014,10.5243,10.457,10.4234,10.3722,10.3425,10.3425,10.3425,10.3425,10.3425,10.3425,10.3032,10.2105,10.1998,10.132,9.9786,9.9679,9.8501,9.5933,9.5219,9.4577,9.3935,9.3899,9.3899,9.3899,9.3899,9.3899,9.3899,9.3899,9.3899,6.6976,7.0607,7.4181,7.277,7.5569,7.8821,7.9667,7.995,8.1219,8.5269,8.5007,8.4349,8.5816,8.7485,8.8345,8.7101,8.9456,9.145,9.145,9.2781,9.3737,9.3668,9.4078,9.476,9.5818,9.5886,9.6364,9.749,9.7593,9.7593,9.7558,9.7558,9.7558,9.7558,9.8002,9.8207,9.8207,9.9169,9.9679,9.9679,10.0629,10.0834,10.041,10.2049,10.2711,10.2747,10.3338,10.3597,10.3678,10.3801,10.388,10.3958,10.4459,10.4679,10.4823,10.5812,10.6202,10.6202,10.6565,10.6719,10.6719,10.6719,10.6719,10.6719,10.6719,10.6719,10.6719,10.6719,10.6719,10.6719,10.6719,10.6719,10.6719,10.6719,10.6719,10.6719,10.6719,10.6719,10.6719,10.6719,10.6602,10.6386,10.6014,10.5379,10.4822,10.4497,10.4118,10.388,10.388,10.388,10.3658,10.3069,10.2918,10.2274,10.0499,10.0357,9.9714,9.8145,9.8038,9.6789,9.4006,9.3899,9.3899,9.3899,9.3899,9.3899,9.3899,9.3899,9.3899,9.3899,9.3899,9.3899,7.0657,7.0525,7.0833,7.6448,7.475,7.3208,7.9419,7.9505,7.9774,8.5499,8.5453,8.4718,8.585,8.6084,8.6283,8.6835,8.8509,8.9881,8.9881,9.1177,9.2133,9.2133,9.3498,9.4453,9.4351,9.4317,9.4351,9.4351,9.4453,9.4453,9.4351,9.4351,9.4351,9.4351,9.5818,9.6603,9.6603,9.8139,9.8923,9.9028,10.0374,10.0253,9.8858,10.0392,10.107,10.1257,10.3282,10.4159,10.4234,10.475,10.4963,10.5032,10.5682,10.5913,10.5977,10.6543,10.6719,10.6719,10.6719,10.6719,10.6719,10.6719,10.6719,10.6719,10.6719,10.6719,10.6719,10.6719,10.6719,10.6719,10.6719,10.6719,10.6719,10.6719,10.6719,10.6719,10.6719,10.6719,10.6719,10.6719,10.6325,10.5913,10.595,10.5379,10.4963,10.4963,10.4963,10.4963,10.4963,10.4963,10.4171,10.2109,10.1854,10.1019,9.8972,9.8787,9.8109,9.6504,9.6397,9.5647,9.3971,9.3899,9.3899,9.3899,9.3899,9.3899,9.3899,9.3899,9.3899,9.3899,9.3899,9.3899,6.5265,6.7414,6.9835,7.1568,7.1799,7.3184,7.9014,8.063,8.0845,8.0776,8.2999,8.4973,8.4678,8.6482,8.7789,8.7005,8.8571,8.9751,8.9751,9.0256,9.0563,9.0563,9.1007,9.1723,9.2713,9.2815,9.3225,9.4248,9.4351,9.4351,9.4317,9.4317,9.4317,9.4317,9.4794,9.5033,9.5033,9.6078,9.6808,9.7321,9.8263,9.8469,9.8003,9.8977,9.95,9.95,10.02,10.0457,10.0534,10.099,10.1281,10.139,10.3002,10.371,10.3922,10.5574,10.6202,10.6264,10.6602,10.6719,10.6719,10.6719,10.6719,10.6719,10.6719,10.6719,10.6719,10.6719,10.6719,10.6719,10.6719,10.6719,10.6719,10.6719,10.6719,10.6719,10.6719,10.6719,10.6719,10.6719,10.6602,10.6446,10.6446,10.604,10.5215,10.4083,10.3606,10.2966,10.1772,10.1627,10.1377,10.0768,10.0452,9.9438,9.733,9.7146,9.6432,9.4791,9.4684,9.447,9.3935,9.3899,9.3899,9.3899,9.3899,9.3899,9.3899,9.3899,9.3899,9.3899,9.3899,9.3899,6.2139,6.5239,6.8465,6.8535,6.8522,7.0103,7.6219,7.7988,7.8103,7.8021,8.0346,8.2514,8.2548,8.4845,8.6383,8.508,8.7077,8.9008,8.9683,8.9751,8.9751,8.9751,8.9751,9.0222,9.1177,9.128,9.1655,9.2576,9.2611,9.2611,9.2611,9.2611,9.2709,9.3001,9.3549,9.3887,9.4237,9.5297,9.5572,9.5246,9.5668,9.5916,9.6195,9.7382,9.7859,9.7895,9.8501,9.8751,9.8751,9.9102,9.9217,9.9399,10.0668,10.1388,10.1981,10.3718,10.4368,10.4429,10.4762,10.4877,10.4877,10.4877,10.4877,10.5025,10.5651,10.5835,10.5946,10.6535,10.6719,10.6425,10.5209,10.4877,10.4877,10.4877,10.4877,10.4877,10.4877,10.4877,10.4877,10.4877,10.4877,10.4877,10.4877,10.4645,10.4002,10.2975,10.2584,10.193,10.0908,10.0762,10.0699,10.0506,9.9533,9.7966,9.5652,9.5433,9.5005,9.3971,9.4085,9.4085,9.3899,9.3899,9.3899,9.3899,9.3899,9.3899,9.3899,9.3899,9.3578,9.3043,9.3043,9.2686,6.0985,6.3798,6.67,6.7183,6.5565,6.5501,7.2108,7.2735,7.2962,7.6809,7.7759,7.8187,7.9403,8.142,8.2714,8.2268,8.4746,8.7401,8.928,8.9512,8.9478,8.958,8.958,8.9649,8.9751,8.9751,8.9751,8.9751,8.9847,8.9847,8.9847,8.9942,9.0319,9.1019,9.2367,9.3333,9.3974,9.5353,9.509,9.2981,9.2981,9.3331,9.3971,9.5505,9.6218,9.629,9.7788,9.8394,9.8394,9.8394,9.8472,9.8472,9.855,9.9262,10.0332,10.1442,10.1857,10.1857,10.1857,10.1857,10.1857,10.1857,10.1857,10.2151,10.3735,10.4214,10.4509,10.5946,10.6388,10.5688,10.2667,10.1857,10.1857,10.1857,10.1857,10.1857,10.1857,10.1857,10.1857,10.1857,10.1857,10.1857,10.1857,10.1857,10.182,10.1709,10.1709,10.1673,10.1525,10.1525,10.1321,10.0876,9.8995,9.6858,9.4301,9.4048,9.4048,9.4048,9.448,9.448,9.4048,9.3974,9.3974,9.3974,9.3899,9.3828,9.3721,9.3721,9.2936,9.1402,9.1402,9.0617,6.0681,6.1539,6.2857,6.5027,6.755,7.0319,7.3097,7.4283,7.4811,7.4673,7.5556,7.6082,7.5326,7.8608,8.268,8.662,8.5779,8.5301,8.7333,8.6299,8.5933,8.7401,8.7536,8.8204,8.9649,8.9751,8.9751,8.9751,9.0412,9.069,9.069,9.1163,9.1516,9.1724,9.2038,9.2299,9.2471,9.2821,9.3236,9.3638,9.3638,9.3714,9.3935,9.4292,9.447,9.4506,9.4863,9.5041,9.5041,9.5414,9.563,9.5665,9.6511,9.7756,9.9341,10.1153,10.1857,10.1857,10.1857,10.1857,10.1857,10.1857,10.1857,10.1967,10.2336,10.2446,10.252,10.2888,10.2999,10.2851,10.2078,10.1857,10.1857,10.1857,10.1857,10.1857,10.1857,10.1857,10.1857,10.1857,10.1857,10.1857,10.1857,10.1857,10.1452,10.0273,10.0089,9.961,9.8283,9.8136,9.8046,9.7992,9.7139,9.6383,9.5738,9.5322,9.506,9.506,9.5192,9.5192,9.5126,9.469,9.448,9.448,9.4085,9.3328,9.2115,9.2115,9.1331,8.9761,8.9761,8.9582,6.0022,6.1279,6.274,6.2903,6.5232,6.7698,6.8487,7.0263,7.1545,7.0789,7.1775,7.2959,7.3584,7.4647,7.7167,8.2144,8.3,8.3926,8.6531,8.6768,8.6463,8.6017,8.7327,8.8034,8.749,8.8871,8.9751,8.9751,9.0226,9.0412,9.0412,9.0747,9.1252,9.1947,9.1947,9.22,9.2857,9.2857,9.3175,9.3899,9.3899,9.3899,9.3899,9.3899,9.3899,9.3899,9.3899,9.3899,9.3899,9.4231,9.448,9.4723,9.5322,9.6371,9.7704,9.8852,9.9445,9.961,9.961,9.961,9.961,9.961,9.961,9.9794,10.0567,10.0788,10.0973,10.1673,10.0788,9.961,9.961,9.961,9.961,9.961,9.961,9.961,9.961,9.961,9.961,9.961,9.961,9.961,9.961,9.961,9.9315,9.8505,9.8357,9.8026,9.7105,9.6994,9.6904,9.6651,9.6391,9.6123,9.5885,9.5639,9.545,9.545,9.5701,9.554,9.5126,9.4373,9.3813,9.361,9.2581,9.1688,9.0864,9.0582,8.969,8.8155,8.8155,8.7763,5.9435,6.1701,6.3687,6.1254,6.155,6.2549,6.2701,6.464,6.6515,6.6942,6.806,6.9737,7.2499,7.1309,7.109,7.4578,7.8593,8.2486,8.5691,8.7734,8.7932,8.5374,8.7592,8.8333,8.5739,8.8061,8.9751,8.9751,9.0037,9.0131,9.0131,9.0378,9.0984,9.22,9.22,9.2777,9.3899,9.3899,9.3899,9.3899,9.3899,9.3899,9.3899,9.3899,9.3899,9.3899,9.3899,9.3899,9.3899,9.3974,9.4303,9.4654,9.4859,9.545,9.6182,9.6334,9.6596,9.6994,9.6994,9.6994,9.6994,9.6994,9.6994,9.7252,9.8726,9.9131,9.9425,10.0752,9.9131,9.6994,9.6994,9.6994,9.6994,9.6994,9.6994,9.6994,9.6994,9.6994,9.6994,9.6994,9.6994,9.6994,9.6994,9.6994,9.6994,9.6994,9.6994,9.6994,9.6994,9.6994,9.6851,9.6391,9.6334,9.616,9.5701,9.5701,9.5701,9.5701,9.6101,9.5836,9.4699,9.3817,9.2956,9.2189,9.0759,9.0003,8.975,8.9181,8.8187,8.6687,8.655,8.5836,6.0443,6.0848,6.1188,6.0761,6.0794,6.1254,6.2549,6.3062,6.4082,6.6547,6.7238,6.7896,6.9605,7.1594,7.278,7.2268,7.6154,8.0009,8.2284,8.3926,8.5267,8.6396,8.7,8.7768,8.8905,8.9478,8.9751,8.9751,9.0894,9.1603,9.1603,9.266,9.3408,9.3562,9.3597,9.3674,9.3899,9.3899,9.3899,9.3899,9.3899,9.3899,9.3899,9.3899,9.3899,9.3899,9.3899,9.3899,9.3899,9.4339,9.4584,9.4723,9.5639,9.6064,9.6276,9.6743,9.6904,9.6994,9.6994,9.6994,9.6994,9.6994,9.6994,9.7031,9.7289,9.7363,9.7399,9.7657,9.7363,9.6994,9.6994,9.6994,9.6994,9.6994,9.6994,9.6994,9.6994,9.6994,9.6994,9.6994,9.6994,9.6994,9.6994,9.6994,9.6994,9.6994,9.6994,9.6994,9.6994,9.6994,9.6957,9.6904,9.6851,9.6851,9.6797,9.6797,9.6797,9.6797,9.6851,9.6209,9.4741,9.4501,9.3531,9.1566,9.0863,8.9859,8.8518,8.8121,8.7109,8.5563,8.5109,8.4766,6.0629,6.0178,5.9675,5.9675,6.0211,6.0794,6.1451,6.2175,6.3207,6.4443,6.5956,6.7238,6.7928,6.9835,7.1052,7.0394,7.2812,7.5492,7.754,8.1612,8.4718,8.5679,8.7361,8.8068,8.715,8.8735,8.9942,9.0412,9.1019,9.1551,9.1947,9.2532,9.3017,9.3295,9.3408,9.3562,9.3899,9.3899,9.3899,9.3899,9.3899,9.3899,9.3899,9.3899,9.3899,9.3899,9.4158,9.4158,9.3974,9.4723,9.5126,9.5192,9.5945,9.6391,9.6651,9.6904,9.6994,9.6994,9.6994,9.6994,9.6994,9.6994,9.6994,9.6994,9.6994,9.6994,9.6994,9.6994,9.6994,9.6994,9.6994,9.6994,9.6994,9.6994,9.6994,9.6994,9.6994,9.6994,9.6994,9.6994,9.6994,9.6994,9.6994,9.6994,9.6994,9.6994,9.6994,9.6994,9.6994,9.6994,9.6994,9.6994,9.6994,9.6994,9.6994,9.6994,9.6626,9.5778,9.5705,9.4968,9.3347,9.3186,9.2325,9.0632,8.9422,8.8316,8.7442,8.6815,8.6152,8.5539,8.4847,8.4847,6.0759,0.0,6.1101,6.1052,6.1453,6.1803,0.0,6.1977,6.2339,6.2668,6.4509,6.6252,6.6942,6.7961,6.8849,6.9178,7.023,7.1758,7.4081,7.9035,8.2625,8.3427,8.6512,8.7619,8.4968,8.8012,9.0319,9.0963,9.1287,9.169,9.2116,9.2284,9.2579,9.3139,9.3139,9.3408,9.3899,9.3899,9.3899,9.3899,9.3899,9.3899,9.3899,9.3899,9.3899,9.3899,9.4303,9.4303,9.3974,9.4859,9.5286,9.5514,9.6005,9.6503,9.6994,9.6994,9.6994,9.6994,9.6994,9.6994,9.6994,9.6994,9.6994,9.6994,9.6994,9.6994,9.6994,9.6994,9.6994,9.6994,9.6994,9.6994,9.6994,9.6994,9.6994,9.6994,9.6994,9.6994,9.6994,9.6994,9.6994,9.6994,9.6994,9.6994,9.6994,9.6994,9.6994,9.6994,9.6994,9.6994,9.6994,9.6994,9.6994,9.6994,9.6994,9.6398,9.554,9.4322,9.4248,9.351,9.1812,9.1518,9.0841,8.9574,8.819,8.7345,8.6978,8.6291,8.5963,8.6072,8.5283,8.5283,0.0,6.4619,6.769,6.7308,6.6278,6.5203,6.4722,6.2635,0.0,6.2549,6.2898,6.3884,6.6547,6.7139,6.7633,6.9013,6.9342,7.0571,7.3949,7.4892,7.6339,7.9471,8.2929,8.5002,8.4764,8.8444,9.0963,9.0963,9.2081,9.2822,9.2822,9.3408,9.3749,9.3825,9.3825,9.3825,9.3899,9.3899,9.3899,9.3899,9.3899,9.3899,9.3899,9.3899,9.3899,9.3899,9.3899,9.3899,9.3899,9.448,9.4994,9.5514,9.6005,9.6503,9.6994,9.6994,9.6994,9.6994,9.6994,9.6994,9.6994,9.6994,9.6994,9.6994,9.6994,9.6994,9.6994,9.6994,9.6994,9.6994,9.6994,9.6994,9.6994,9.6994,9.6994,9.6994,9.6994,9.6994,9.6994,9.6994,9.6994,9.6994,9.6994,9.6994,9.6994,9.6994,9.6994,9.6994,9.6994,9.6994,9.6994,9.6994,9.6994,9.6994,9.6994,9.4674,9.3124,9.3013,9.3013,9.2277,9.0607,9.0453,8.979,8.8235,8.8046,8.7971,8.7971,8.7435,8.7179,8.7132,8.6381,8.6035,6.2972,6.464,6.6169,6.693,6.5134,6.3607,6.503,6.2397,5.9916,6.1242,6.2142,6.3062,6.418,6.5134,6.6219,6.7633,6.7863,6.8672,7.0857,7.4892,7.8048,7.9337,8.4527,8.7891,8.7891,8.9726,9.1108,9.1551,9.2415,9.3061,9.3485,9.3714,9.3899,9.3899,9.3899,9.3899,9.3899,9.3899,9.3899,9.3899,9.3899,9.3899,9.3899,9.3899,9.3899,9.3899,9.4231,9.4339,0.0,9.5322,9.5763,9.6005,9.6503,9.6851,9.6994,9.6994,9.6994,9.6994,9.6994,9.6994,9.6994,9.6994,9.6994,9.6994,9.6994,9.6994,9.6994,9.6994,9.6994,9.6994,9.6994,9.6994,9.6994,9.6994,9.6994,9.6994,9.6994,9.6994,9.6994,9.6994,9.6994,9.6994,9.6994,9.6994,9.7047,9.7201,9.7062,9.7113,9.745,9.7352,9.7302,9.7462,9.6536,9.5536,9.4536,9.3488,9.2469,9.1392,9.1355,9.0612,8.9015,8.8988,8.8769,8.8174,8.8363,8.8399,8.8399,8.7982,8.7697,8.7642,8.6793,8.6627,6.4772,6.6482,6.7721,6.8636,6.6715,6.5015,6.6145,6.3213,6.0353,6.0618,6.1418,6.2207,6.2668,6.3555,6.4706,6.6153,6.6383,6.7041,6.8981,7.3439,7.6843,7.7689,8.2558,8.6395,8.7722,9.0154,9.1776,9.22,9.2822,9.3408,9.3899,9.3899,9.3685,9.3186,9.315,9.34,9.3899,9.3899,9.3899,9.3899,9.3899,9.3899,9.3899,9.3899,9.3899,9.3899,9.4267,9.441,9.448,9.5192,9.5577,9.5763,9.616,9.6334,9.654,9.654,9.6596,9.676,9.676,9.6851,9.6994,9.6994,9.6994,9.6994,9.6994,9.6994,9.6994,9.6994,9.6994,9.6994,9.6994,9.6994,9.6994,9.6994,9.6994,9.6994,9.6994,9.6994,9.6994,9.6994,9.6994,9.6994,9.6994,9.7099,9.7165,9.7352,9.6822,9.6588,9.6917,9.6371,9.6074,9.6212,9.5217,9.3923,9.2488,9.1896,9.1077,8.9886,8.9849,8.9365,8.8286,8.8325,8.8361,8.8361,8.8543,8.8612,8.8612,8.8361,8.8175,8.8093,8.7531,8.7443,6.6448,7.0618,7.3889,7.3589,7.2357,7.0677,6.8383,6.5481,6.2815,6.0969,6.0629,6.1057,6.247,6.2812,6.3194,6.4673,6.4936,6.5956,6.8816,6.9742,7.1093,7.3982,7.6184,7.9068,8.3167,8.9234,9.2831,9.2831,9.3414,9.3864,9.3864,9.3864,9.315,9.1616,9.158,9.2294,9.3828,9.3864,9.3864,9.3864,9.3864,9.3899,9.3899,9.3899,9.3899,9.3899,9.3899,9.3899,9.3899,9.3899,9.4231,9.4654,9.4654,9.4994,9.545,9.545,9.5763,9.6218,9.6218,9.6596,9.6994,9.6994,9.6994,9.6994,9.6994,9.6994,9.6994,9.6994,9.6994,9.6994,9.6994,9.6957,9.6957,9.6957,9.6957,9.692,9.692,9.692,9.692,9.692,9.692,9.692,9.692,9.7178,9.7364,9.7364,9.6148,9.5209,9.5209,9.388,9.2914,9.2914,9.2914,9.2413,9.1268,8.9621,8.8612,8.8612,8.8612,8.8612,8.8612,8.8612,8.8612,8.8612,8.8612,8.8612,8.8612,8.8612,8.8612,8.8612,8.8612,8.8435,6.9922,7.1565,7.2785,7.3685,7.1137,6.825,6.7194,6.4444,6.1587,5.9774,6.0022,6.0761,6.1188,6.1254,6.1747,6.3161,6.5101,6.7074,6.8981,7.3539,7.701,7.7881,8.0961,8.3525,8.4647,8.6449,8.7992,8.8906,8.9957,9.0617,9.0617,9.0617,9.0403,8.9939,8.9904,9.0153,9.0617,9.0617,9.0617,9.0617,9.1723,9.2258,9.2294,9.34,9.3899,9.3899,9.3899,9.4085,9.441,9.441,9.4994,9.5763,9.5763,9.6101,9.6503,9.6503,9.6651,9.676,9.676,9.6851,9.6994,9.6994,9.6994,9.6994,9.6994,9.6994,9.6994,9.6994,9.6994,9.6994,9.6994,9.6147,9.5336,9.5336,9.4452,9.3619,9.3817,9.3866,9.3914,9.4055,9.4138,9.4138,9.4138,9.4184,9.4274,9.4375,9.3923,9.3706,9.3994,9.3429,9.313,9.3324,9.1272,8.9777,8.9434,8.8911,8.8612,8.8612,8.8612,8.8612,8.8612,8.8612,8.8612,8.8612,8.8612,8.8612,8.8612,8.8612,8.8612,8.8612,8.8612,8.8577,7.1131,7.1898,7.2102,7.299,7.1151,6.8392,6.5627,6.4213,6.243,5.8888,5.9443,6.0629,6.0629,6.0289,6.0832,6.353,6.5035,6.7153,7.0987,7.5303,7.8431,7.961,8.2541,8.4545,8.4865,8.5643,8.6555,8.7654,8.8684,8.8691,8.7406,8.7335,8.7656,8.8262,8.8298,8.8584,8.9226,8.9226,8.9226,8.9226,9.0189,9.0653,9.0688,9.1616,9.2044,9.2044,9.2044,9.2583,9.3406,9.3406,9.4182,9.5286,9.5286,9.5514,9.5763,9.5763,9.6005,9.6391,9.6391,9.6651,9.6994,9.6994,9.6994,9.6994,9.6994,9.6994,9.6994,9.6994,9.6994,9.6994,9.6994,9.6398,9.5614,9.5048,9.3607,9.2472,9.2611,9.2693,9.2738,9.2871,9.2914,9.2914,9.2914,9.2957,9.3009,9.3093,9.2569,9.2313,9.2539,9.1868,9.1384,9.1565,8.9808,8.8612,8.8612,8.8612,8.8612,8.8612,8.8612,8.8612,8.8612,8.8612,8.8312,8.7639,8.7602,8.7303,8.6705,8.6705,8.6705,8.6705,8.6705,8.6705,7.085,7.1898,7.1898,7.1898,7.1898,7.0255,6.3886,6.4253,6.4131,5.7761,5.8397,6.017,6.017,5.9692,6.063,6.4798,6.51,6.7232,7.3924,7.5535,7.7093,7.971,8.1748,8.3182,8.3881,8.5672,8.7154,8.7921,8.844,8.7479,8.4695,8.4552,8.5194,8.6657,8.6693,8.7371,8.8762,8.8798,8.8798,8.8798,8.894,8.9012,8.9012,8.9154,8.9226,8.9226,8.9226,9.0011,9.1366,9.1366,9.2187,9.3545,9.3545,9.3509,9.3619,9.3799,9.4506,9.5296,9.5504,9.6182,9.6994,9.6994,9.6826,9.6656,9.6656,9.6656,9.6656,9.6804,9.6877,9.6914,9.7062,9.7252,9.7054,9.5424,9.3731,9.2469,9.2469,9.2469,9.2469,9.2511,9.2511,9.2511,9.2511,9.264,9.2686,9.2686,9.1682,9.093,9.093,8.9584,8.8612,8.8612,8.8612,8.8612,8.8612,8.8612,8.8612,8.8612,8.8612,8.8537,8.8387,8.8387,8.7602,8.592,8.5882,8.5209,8.3788,8.3788,8.3788,8.3788,8.3788,8.3788,7.1693,7.1898,7.1898,7.1898,7.1898,7.0033,6.2825,6.2302,6.1322,5.4186,5.4632,5.6348,5.6348,5.9574,6.2548,6.3535,6.8192,7.2112,7.3728,7.6306,7.8433,7.9529,8.0352,8.1229,8.2244,8.2766,8.3421,8.4563,8.4709,8.4711,8.4552,8.4552,8.4695,8.5016,8.5052,8.5194,8.5515,8.5515,8.5515,8.5551,8.68,8.7406,8.7442,8.8655,8.9226,8.9226,8.9226,8.9404,8.9725,8.9725,9.015,9.0848,9.0848,9.1077,9.167,9.3311,9.4025,9.4441,9.61,9.676,9.6994,9.6994,9.5566,9.3776,9.3776,9.3776,9.4036,9.5259,9.5629,9.5926,9.726,9.7641,9.6945,9.4096,9.1206,8.913,8.9216,8.9218,8.9332,8.9517,8.9553,8.9553,8.9553,8.9589,8.9589,8.9589,8.9362,8.9172,8.9172,8.8873,8.8612,8.8612,8.8612,8.8612,8.8612,8.8612,8.8612,8.8612,8.8612,8.8013,8.6705,8.6667,8.5882,8.4312,8.4274,8.4125,8.3788,8.3788,8.3788,8.3788,8.3788,8.3788,7.1898,7.1898,7.1898,7.1898,7.1898,7.0348,6.4393,6.4448,6.3365,5.5389,5.6036,5.7284,5.4711,5.8051,6.1873,6.43,6.8796,7.313,7.6081,7.8014,7.9168,7.9446,8.0104,8.077,8.1362,8.2175,8.2949,8.3575,8.3861,8.4071,8.4071,8.4381,8.4552,8.4552,8.4552,8.4552,8.4552,8.4552,8.4552,8.4552,8.5373,8.5765,8.5801,8.6621,8.6978,8.6978,8.6978,8.7406,8.812,8.812,8.8721,8.964,8.964,8.9774,9.0176,9.1453,9.2087,9.2471,9.3935,9.4548,9.4789,9.4974,9.4064,9.2914,9.2914,9.2914,9.31,9.3873,9.4096,9.4363,9.5217,9.549,9.4901,9.2447,9.0707,8.9369,8.8621,8.8435,8.847,8.8612,8.8612,8.8612,8.8612,8.8612,8.8612,8.8612,8.8612,8.8612,8.8612,8.8612,8.8645,8.8707,8.8745,8.8739,8.8833,8.8833,8.8496,8.7671,8.7541,8.6797,8.5187,8.5017,8.4237,8.2592,8.2592,8.2181,8.1358,8.1358,8.1358,8.1358,8.1358,8.1358,7.1879,7.2016,7.205,7.194,7.1898,7.0816,6.6519,6.6976,6.6195,5.8261,5.8475,5.8707,5.4228,5.6663,6.0465,6.3901,6.7584,7.1705,7.679,7.7448,7.7707,7.855,7.938,7.9951,8.0204,8.1541,8.2544,8.2899,8.3258,8.3255,8.2835,8.3359,8.3665,8.3732,8.4017,8.4267,8.4552,8.4552,8.4552,8.4552,8.4552,8.4552,8.4552,8.4552,8.4552,8.4552,8.4552,8.5301,8.6479,8.6583,8.7333,8.8475,8.8545,8.8614,8.865,8.9343,8.9935,9.0464,9.1371,9.2008,9.2398,9.2246,9.2145,9.2145,9.2145,9.2145,9.2219,9.2516,9.2591,9.2665,9.2925,9.3128,9.2799,9.1233,9.1047,9.0705,8.8985,8.8612,8.8612,8.8612,8.8612,8.8612,8.8612,8.8612,8.8612,8.8612,8.8612,8.8612,8.8612,8.8612,8.8679,8.8833,8.8833,8.8773,8.8614,8.8549,8.7835,8.6154,8.5967,8.5166,8.3562,8.3403,8.2555,8.0835,8.0797,8.0124,7.8704,7.8704,7.8704,7.8704,7.8704,7.8704,7.178,7.2611,7.2464,7.205,7.1898,7.0816,6.6519,6.5751,6.4573,5.9548,5.6777,5.514,5.443,5.8146,6.0387,5.7649,6.335,6.847,6.9237,6.9426,7.0796,7.4546,7.5115,7.5578,7.6531,7.7181,7.8284,8.0253,7.9474,7.9203,7.9688,7.9792,8.0095,8.0521,8.1841,8.3161,8.4516,8.4552,8.4552,8.4552,8.4552,8.4552,8.4552,8.4552,8.4552,8.4552,8.4552,8.4659,8.4905,8.5241,8.5514,8.5694,8.5941,8.6029,8.6272,8.813,8.9008,8.9684,9.1566,9.2472,9.2431,8.9966,8.9215,8.9215,8.9215,8.9215,8.9514,9.1008,9.1419,9.1718,9.31,9.3437,9.3062,9.1492,9.1156,9.0705,8.8985,8.8612,8.8612,8.8612,8.8612,8.8612,8.8612,8.8612,8.8612,8.8612,8.8612,8.8612,8.8612,8.8612,8.8679,8.8833,8.8833,8.8293,8.6933,8.6737,8.5975,8.44,8.4176,8.3372,8.1688,8.1582,8.0797,7.9077,7.904,7.8965,7.8704,7.8704,7.8704,7.8704,7.8704,7.8704,6.9436,7.1232,7.2649,7.2356,7.2167,7.1446,6.9516,6.91,6.7914,6.353,6.0078,5.6931,5.3833,5.7115,5.9749,5.8285,6.4718,7.0215,7.1064,7.1161,7.1803,7.3761,7.4393,7.5113,7.5904,7.6677,7.7615,7.8834,7.7363,7.691,7.807,7.8429,7.8848,7.9491,8.013,8.0938,8.1948,8.1948,8.1948,8.1948,8.1948,8.1948,8.1948,8.1948,8.2412,8.3232,8.3232,8.3732,8.4619,8.4984,8.5148,8.5148,8.5453,8.5539,8.5671,8.6846,8.7329,8.7697,8.9196,8.9915,9.0032,8.8956,8.8612,8.8612,8.8612,8.8612,8.8799,8.9546,8.9733,8.9883,9.0593,9.078,9.0593,8.9883,8.9733,8.9546,8.8799,8.8612,8.8612,8.8612,8.8612,8.8612,8.8612,8.8612,8.8612,8.8612,8.8612,8.7976,8.6144,8.5979,8.6073,8.6212,8.6294,8.6097,8.5464,8.5366,8.4641,8.2984,8.2749,8.1946,8.023,8.0076,7.9721,7.9066,7.9066,7.9046,7.907,7.9056,7.8991,7.8958,7.8925,7.8888,6.7338,6.9543,7.1545,7.2624,7.2503,7.2091,7.2091,7.2016,7.0986,6.7769,6.4197,6.0342,5.6321,5.8077,5.9954,5.9362,6.4973,6.9865,7.1069,7.1233,7.1677,7.2705,7.3523,7.4221,7.4537,7.5422,7.6189,7.6524,7.5076,7.4749,7.6108,7.6632,7.7271,7.7921,7.8442,7.8852,7.9308,7.9736,7.9914,7.9914,7.9914,7.9914,7.9914,7.9914,8.0556,8.1756,8.1756,8.2463,8.3601,8.4017,8.4393,8.4753,8.508,8.5416,8.5778,8.614,8.6273,8.6493,8.7269,8.7642,8.7901,8.8362,8.847,8.8505,8.8612,8.8612,8.8612,8.8612,8.8612,8.8612,8.8612,8.8612,8.8612,8.8612,8.8612,8.8612,8.8612,8.8612,8.8612,8.8612,8.8612,8.8612,8.8612,8.8275,8.7864,8.7452,8.7378,8.6551,8.4151,8.3937,8.4044,8.4203,8.4302,8.4265,8.3916,8.3878,8.3141,8.1443,8.119,8.0581,7.9376,7.9211,7.9215,7.9303,7.929,7.9316,7.93,7.9328,7.9253,7.9169,7.9152,7.904,6.6434,6.8024,6.83,7.2419,7.3044,7.2649,7.2687,7.2282,7.183,7.1659,6.7814,6.4425,6.4099,6.3603,6.1958,5.8292,6.1157,6.4041,6.4565,6.465,6.6201,7.0182,7.0798,7.0798,7.0846,7.1352,7.1861,7.2179,7.2111,7.2304,7.2891,7.3428,7.3978,7.4675,7.6635,7.7667,7.7667,7.9165,7.9914,7.9914,7.9914,7.9914,7.9914,7.9914,8.004,8.0385,8.0385,8.0602,8.0931,8.1252,8.2325,8.3704,8.4107,8.5126,8.6475,8.6475,8.6706,8.7026,8.7113,8.7125,8.7269,8.7901,8.8099,8.8138,8.8505,8.8612,8.8612,8.8612,8.8612,8.8612,8.8612,8.8612,8.8612,8.8612,8.8612,8.8612,8.8612,8.8612,8.8612,8.8612,8.8612,8.8612,8.8612,8.7303,8.5733,8.4237,8.4013,8.4039,8.3975,8.4044,8.4203,8.4325,8.4349,8.3775,8.2274,8.2044,8.1265,7.9569,7.9347,7.9263,7.9294,7.9332,7.9324,7.929,7.931,7.931,7.9328,7.929,7.9324,7.9301,7.9301,7.9301,6.3918,6.6735,6.9052,7.3093,7.3393,7.2722,7.2687,7.2282,7.1898,7.1898,6.8318,6.5157,6.4803,6.3843,6.252,6.095,6.3919,6.653,6.6741,6.7148,6.7941,6.9543,6.9642,6.9898,7.0481,7.1241,7.1744,7.1864,7.1898,7.205,7.2167,7.2356,7.2722,7.3324,7.436,7.514,7.5531,7.6448,7.6917,7.6917,7.6917,7.6917,7.6917,7.6917,7.7514,7.8529,7.8529,7.9163,8.0216,8.0751,8.134,8.1904,8.2342,8.2916,8.3484,8.4595,8.5102,8.5125,8.4432,8.4207,8.4331,8.5047,8.6008,8.6829,8.697,8.7789,8.8612,8.8612,8.8612,8.8612,8.8612,8.8612,8.8612,8.8612,8.8612,8.8612,8.8612,8.8612,8.8612,8.8612,8.8612,8.8612,8.8612,8.8125,8.7191,8.5508,8.2648,8.0706,8.0805,8.0932,8.1064,8.1131,8.1194,8.1028,8.0462,8.0348,8.0065,7.9461,7.9459,7.9497,7.9555,7.9582,7.9609,7.9665,7.9673,7.9711,7.9817,7.9695,7.9648,7.955,7.9451,7.9401,6.0034,6.3663,6.7258,7.1048,7.2658,7.322,7.2974,7.2503,7.2167,7.2016,6.9394,6.7117,6.6728,6.5765,6.4965,6.4404,6.6731,6.8568,6.8592,6.9123,6.959,6.9846,6.9931,7.0183,7.076,7.1241,7.1555,7.1898,7.1898,7.1898,7.1898,7.2126,7.239,7.2687,7.3185,7.3767,7.4463,7.4778,7.5024,7.5241,7.5241,7.5241,7.5241,7.5241,7.5836,7.692,7.692,7.7612,7.8723,7.9184,7.9767,8.0384,8.0719,8.1201,8.177,8.2916,8.2989,8.2544,8.2334,8.2296,8.2385,8.3073,8.4005,8.497,8.5112,8.6002,8.7004,8.7004,8.7004,8.7004,8.7004,8.7004,8.7004,8.7004,8.7004,8.7004,8.7004,8.7004,8.7004,8.7004,8.7004,8.7004,8.7004,8.6518,8.577,8.4648,8.1322,7.9175,7.9867,7.9618,7.9384,7.9384,7.9443,7.9518,7.9518,7.9518,7.9518,7.9555,7.9669,7.9717,7.9761,7.975,7.9819,7.9956,7.9956,7.9953,8.0008,7.995,7.9863,7.9753,7.9687,7.9591,5.5579,5.9235,6.2857,6.641,7.0777,7.4028,7.3288,7.2764,7.2404,7.2173,7.1286,7.0563,7.0563,6.9813,6.898,6.8297,6.8714,6.9211,6.9339,6.9695,7.03,7.1149,7.1263,7.1263,7.1342,7.0841,7.0968,7.1898,7.1864,7.1898,7.1898,7.239,7.2684,7.2684,7.3185,7.3767,7.4463,7.4463,7.4716,7.5241,7.5241,7.5241,7.5241,7.5241,7.5383,7.56,7.5635,7.5898,7.6389,7.6389,7.7486,7.923,7.923,8.0179,8.1478,8.1478,8.0544,7.9449,8.0982,8.153,8.158,8.1983,8.2311,8.2613,8.3001,8.3439,8.3756,8.3788,8.3788,8.3788,8.3788,8.3788,8.3788,8.3751,8.3788,8.3788,8.3788,8.3788,8.3788,8.3788,8.3788,8.3788,8.3788,8.2442,8.1358,8.1358,7.9974,7.955,8.1358,8.0361,7.9518,7.9518,7.9518,7.9518,7.9518,7.9518,7.9555,7.9706,7.9687,7.9748,7.9879,7.988,7.9956,8.007,8.007,8.0012,7.9886,7.9886,7.9903,7.9913,7.9893,7.9912,6.5107,6.4643,6.3858,6.6915,6.8368,6.8957,6.8429,6.7987,6.8399,7.1088,7.1487,7.1014,7.0233,6.9438,6.8738,6.8297,6.8387,6.8445,6.8503,6.9036,6.9504,6.9761,6.9761,7.0183,7.1263,7.1229,7.1354,7.1898,7.1701,7.1623,7.1898,7.2016,7.2167,7.2167,7.2615,7.3324,7.4163,7.4547,7.5014,7.5521,7.5521,7.5405,7.5241,7.5241,7.53,7.5324,7.5521,7.5712,7.5879,7.6235,7.6694,7.7232,7.7503,7.788,7.8245,7.8245,7.7953,7.771,7.8312,7.8551,7.8606,7.8881,7.986,8.0943,8.106,8.2031,8.3112,8.3333,8.3331,8.3331,8.3331,8.3582,8.3719,8.3404,8.3544,8.3788,8.3788,8.3788,8.3788,8.3788,8.3788,8.3788,8.3788,8.3377,8.3078,8.3078,8.0809,7.9253,7.9859,7.9706,7.9518,7.9518,7.9518,7.9518,7.9518,7.9593,7.9669,7.9706,7.9789,7.9864,7.988,7.9994,8.0032,8.007,8.007,8.0068,8.0016,8.0016,8.0022,8.0027,7.9922,7.9912,6.2754,6.1935,6.1814,6.4558,6.5108,6.5758,6.8921,6.7799,6.7242,7.1413,7.1753,7.1128,7.0515,6.9642,6.8859,6.8297,6.8478,6.8625,6.8503,6.8892,6.9298,6.9728,6.9417,6.959,7.063,7.0827,7.0955,7.132,7.1388,7.1388,7.1701,7.2016,7.2207,7.2242,7.276,7.3426,7.4385,7.4698,7.5122,7.5768,7.5768,7.5656,7.5383,7.5383,7.5383,7.5441,7.5656,7.5879,7.5952,7.6287,7.6527,7.6663,7.6883,7.6979,7.6979,7.6979,7.6979,7.6979,7.7177,7.7239,7.7379,7.7554,7.8344,7.9241,7.9432,8.0138,8.0993,8.1247,8.135,8.135,8.135,8.1524,8.1588,8.1383,8.1487,8.1657,8.1657,8.1657,8.1657,8.1657,8.1657,8.1657,8.1657,8.1657,8.1688,8.175,8.0279,7.9257,7.9284,7.9423,7.9518,7.9518,7.9518,7.9518,7.9593,7.9582,7.9647,7.9769,7.9801,7.987,7.9956,8.0032,8.007,8.007,8.007,8.007,8.007,8.007,8.0098,8.0077,7.9945,7.9143,5.4471,5.5742,5.895,6.0583,6.1193,6.323,0.0,6.8369,6.6313,7.0749,7.0552,6.9658,7.0027,6.9264,6.85,6.8323,6.8836,6.9123,6.897,6.9091,6.9504,7.0399,6.9813,6.9504,7.0015,7.0015,7.015,7.0563,7.0955,7.1229,7.1342,7.2132,7.2687,7.2684,7.3185,7.3932,7.4857,7.4882,7.524,7.6006,7.606,7.5898,7.5656,7.5656,7.5656,7.5656,7.5898,7.6166,7.6389,7.644,7.6663,7.6979,7.6979,7.6979,7.6979,7.6979,7.6979,7.7027,7.7016,7.7177,7.7379,7.7372,7.7554,7.7836,7.817,7.8278,7.8313,7.8611,7.8673,7.8673,7.8673,7.8704,7.8704,7.8673,7.8704,7.8704,7.8704,7.8704,7.8704,7.8704,7.8704,7.8704,7.8704,7.8734,7.8793,7.8923,7.915,7.9284,7.9343,7.9423,7.9518,7.9518,7.9518,7.9555,7.9669,7.9597,7.9609,7.9839,7.9773,7.9849,8.0069,8.007,8.007,8.007,8.0032,8.0031,8.003,7.987,7.9788,7.9762,7.95,7.778,0.0,0.0,0.0,0.0,0.0,0.0,0.0,5.7275,5.747,6.0688,6.1148,6.1717,6.4383,6.4666,6.5444,6.85,6.9156,6.9331,6.9728,6.9417,6.9417,7.0015,6.9931,7.0015,7.0399,7.0183,7.015,7.0563,7.0349,7.0548,7.1342,7.194,7.2356,7.2649,7.3185,7.3932,7.4857,7.5027,7.5435,7.6006,7.6183,7.6183,7.5898,7.5898,7.5898,7.5952,7.6006,7.6166,7.644,7.6712,7.6931,7.6979,7.6979,7.6979,7.6979,7.6979,7.7084,7.7276,7.7074,7.7284,7.7639,7.7422,7.7554,7.7797,7.7836,7.7874,7.7949,7.8313,7.8382,7.8382,7.8382,7.8547,7.8673,7.8449,7.8579,7.8704,7.8704,7.8704,7.8704,7.8704,7.8704,7.8704,7.8704,7.8822,7.895,7.9196,7.9263,7.9364,7.9443,7.9461,7.9518,7.9518,7.9518,7.9518,7.9555,7.9606,7.969,7.9747,7.9809,7.9936,8.0069,8.007,8.0032,7.9918,7.9842,7.9756,7.9766,7.8386,7.7766,7.7876,7.6575,7.5616,0.0,0.0,0.0,0.0,0.0,0.0,0.0,0.0,0.0,0.0,0.0,5.9612,6.0769,0.0,6.4052,6.5975,6.7911,6.9331,6.959,6.9331,6.9417,6.9931,6.9761,6.9676,6.9898,6.9761,6.9676,6.9898,7.0266,7.0678,7.1149,7.2322,7.3079,7.3289,7.3967,7.461,7.5252,7.5392,7.5584,7.6006,7.6166,7.606,7.5788,7.5952,7.6006,7.6006,7.613,7.6374,7.6712,7.6883,7.6979,7.6979,7.6979,7.6979,7.6979,7.7131,7.7276,7.7372,7.7335,7.7636,7.8061,7.7871,7.7948,7.8061,7.8204,7.8133,7.8097,7.8449,7.8515,7.8482,7.8385,7.8416,7.8482,7.8385,7.8416,7.8547,7.8704,7.8704,7.8704,7.8704,7.8793,7.8822,7.8822,7.8961,7.9078,7.9263,7.9364,7.9423,7.9518,7.9518,7.8876,7.7272,7.7065,7.7065,7.7196,7.723,7.7978,7.9595,7.9771,7.9847,7.9886,7.9131,7.8676,7.8638,7.7687,7.717,7.7169,7.6268,7.5861,7.5952,7.4341,7.3122,0.0,0.0,0.0,0.0,0.0,0.0,0.0,0.0,0.0,0.0,0.0,0.0,0.0,0.0,0.0,6.3266,6.6496,6.9001,6.9298,6.8981,6.8989,6.933,6.9306,6.9244,6.9244,6.9244,6.9244,6.9384,7.0266,7.0921,7.1116,7.276,7.37,7.3767,7.468,7.5229,7.5428,7.5543,7.5712,7.5952,7.6006,0.0,7.5712,7.5952,7.6113,7.6113,7.6338,7.6663,7.6979,7.6979,7.6979,7.6979,7.6979,7.6979,7.6979,7.7186,7.7372,7.7465,7.7554,7.7948,7.8313,7.8243,7.8278,7.8419,7.8642,7.8547,0.0,7.8579,7.8574,7.8478,7.8278,7.8243,7.8243,7.8243,7.8278,7.8382,7.8611,7.8673,7.8704,7.8704,7.8822,7.8869,7.8934,7.9053,7.8948,7.8412,7.8989,7.9291,7.8593,7.9084,7.848,7.5857,7.5593,7.5631,7.5759,7.519,7.6192,7.9495,7.9104,7.8772,7.8762,7.7219,7.6386,7.6337,7.4864,7.4423,7.5056,7.4619,7.4434,7.4483,7.1219,6.9339,0.0,0.0,0.0,0.0,0.0,0.0,0.0,0.0,0.0,0.0,0.0,0.0,0.0,0.0,0.0,0.0,6.5902,6.827,6.9647,6.8382,6.7304,6.7388,6.8454,6.9244,6.9244,6.9244,6.9471,7.0033,7.02,7.0693,7.1744,7.2469,0.0,0.0,0.0,7.4734,7.4734,7.5311,7.5635,7.5656,7.5898,7.6006,7.5952,7.6235,7.6338,7.6389,7.6749,7.6931,7.6979,7.6979,7.6979,7.6979,7.6979,7.6979,7.6979,7.7027,7.7328,7.7639,7.7231,0.0,0.0,7.7949,7.8024,7.8419,7.8642,7.8547,7.8313,7.8385,7.8097,7.7837,7.7836,7.7836,7.7836,7.7836,7.8098,7.8313,7.8385,7.8547,7.8704,7.8704,7.8734,7.8793,7.8896,7.9126,7.8262,7.5275,7.7516,7.8404,7.5424,7.7631,7.9367,7.8989,7.8951,0.0,7.9117,7.6389,7.6117,7.9495,7.6971,7.5367,7.5364,7.379,7.2845,7.2716,7.2404,7.3628,7.6508,7.4906,7.4178,7.4084,6.5089,6.2521,0.0,0.0,0.0,0.0,0.0,0.0,0.0,0.0,0.0,0.0,0.0,0.0,0.0,0.0,0.0,0.0,6.2073,6.4312,6.5492,6.6371,6.6887,6.7054,6.7501,6.7744,6.7744,6.8479,6.9108,6.9349,7.0553,7.1487,7.1982,7.2939,7.3598,7.3732,7.4582,7.4989,7.4989,7.5229,7.5383,7.5383,7.5656,7.5768,7.5824,7.6183,7.6389,7.644,7.6798,7.6979,7.6979,7.6979,7.6979,7.6979,0.0,0.0,0.0,0.0,7.7465,7.7797,7.7911,7.8241,7.8547,7.8379,7.8445,7.8579,7.8673,7.8547,7.8385,7.8515,7.8169,7.7721,7.7721,7.7639,7.7512,7.7512,7.7673,7.7871,7.8243,7.8416,7.8547,7.8704,7.8793,0.0,7.8934,7.9002,7.8651,7.7412,7.8476,7.8914,7.7575,7.7838,7.7763,7.6763,7.5782,7.5629,7.6769,7.55,0.0,0.0,0.0,7.5762,7.4743,7.4043,0.0,0.0,0.0,6.8157,6.9427,6.6689,0.0,0.0,6.4264,6.2504,0.0,0.0,0.0,0.0,0.0,0.0,0.0,0.0,0.0,0.0,0.0,0.0,0.0,0.0,0.0,0.0,5.9015,6.113,6.0153,6.2772,6.4446,6.3509,6.5309,6.6241,6.5028,6.6896,6.8298,6.8449,6.9953,7.0972,7.1084,7.2069,7.2878,7.3335,7.4042,7.4657,7.5085,7.5145,7.53,7.5324,7.5521,7.5656,7.5712,7.6183,7.6389,7.644,7.6798,7.6979,7.6979,7.6979,7.6979,7.6979,7.7186,7.7131,7.6979,7.7186,7.7422,7.7719,7.8273,7.851,7.8611,7.8611,7.8611,7.8611,7.8704,7.8547,7.8385,7.8547,7.8204,7.7721,7.7721,7.7554,7.7372,7.7372,7.7422,7.7632,7.8061,7.8313,7.8482,7.8673,7.8822,7.8841,7.8841,7.8923,7.8727,7.7969,7.8719,7.9045,7.8235,7.7574,7.6706,7.548,7.3819,7.3367,7.4725,7.3925,7.4284,7.6515,7.5726,7.4798,7.3967,7.3552,7.2443,7.0598,6.6863,6.4932,0.0,0.0,0.0,0.0,0.0,0.0,0.0,0.0,0.0,0.0,0.0,0.0,0.0,0.0,0.0,0.0,0.0,0.0,0.0,0.0,0.0,0.0,0.0,0.0,5.4359,5.7328,5.8566,5.4568,6.1518,6.5061,6.0865,6.4229,6.6991,6.7639,6.7744,6.8059,6.8537,6.8933,6.986,7.1363,7.2042,7.3121,7.4672,7.4989,7.5383,7.56,7.5635,7.5768,7.6006,7.6287,7.6389,7.644,7.6798,7.6979,7.6979,7.6979,7.6979,7.6979,7.6979,7.6979,7.6979,7.6979,7.7177,7.7459,7.7679,7.8024,7.835,7.835,7.835,7.8382,7.8642,7.8547,7.835,7.835,7.8098,7.7721,7.7721,7.7554,7.7372,7.7372,7.7554,7.7758,7.7797,7.8273,7.8704,7.8704,7.8734,7.8734,7.8734,7.8923,7.8001,7.4747,7.7207,0.0,7.5028,7.6103,7.7139,7.7101,7.5573,7.4647,7.4798,7.1831,7.1347,7.4685,7.1819,7.0666,7.2155,7.0741,6.9089,6.7264,6.6826,6.6538,6.6428,0.0,0.0,0.0,0.0,0.0,0.0,0.0,0.0,0.0,0.0,0.0,0.0,0.0,0.0,0.0,0.0,0.0,0.0,0.0,0.0,0.0,0.0,0.0,0.0,5.6267,5.8421,5.5163,5.9022,6.0524,5.7102,6.0985,6.3808,6.4049,6.6984,6.8887,6.9079,6.9426,6.9926,7.042,7.0912,7.1394,7.1928,7.2215,7.2976,7.4092,7.4437,7.5153,7.6287,7.6613,7.6798,7.6798,7.6931,7.6979,7.6979,7.6979,7.6979,7.7027,7.7372,7.7284,7.7074,7.7664,7.7753,7.7676,7.8024,7.8311,7.8579,7.8579,7.8579,7.8611,7.8704,7.8547,7.8419,7.8771,7.8441,7.7834,7.7049,7.6581,7.6313,7.6244,7.6281,7.6687,7.7874,7.8313,7.8515,7.8673,7.6719,7.5095,7.5459,7.7417,7.7913,7.4695,7.7148,7.8969,7.7933,7.6442,7.5931,7.7063,7.4647,7.3465,7.4724,7.3721,7.3052,7.3153,7.2004,7.106,7.0456,6.9949,6.9295,6.862,6.7405,6.5119,6.1679,0.0,0.0,0.0,0.0,0.0,0.0,0.0,0.0,0.0,0.0,0.0,0.0,0.0,0.0,0.0,0.0,0.0,0.0,0.0,0.0,0.0,0.0,0.0,0.0,0.0,0.0,5.5322,5.7992,0.0,5.5343,5.8426,6.0682,6.0682,6.3213,6.5303,6.6497,6.6583,6.7351,6.9058,6.9472,7.0016,7.0698,7.0861,7.1578,7.2708,7.3069,7.3824,7.4867,7.5132,7.5544,7.6055,7.6055,7.6384,7.6906,7.5831,7.4944,7.4293,7.4768,7.4267,7.3564,7.5536,7.617,7.6281,7.7965,7.8726,7.8709,7.7275,7.5898,7.5031,7.6408,7.5771,7.4866,7.6631,7.6804,7.6644,7.725,7.716,7.6892,7.6818,7.6794,7.7092,7.8281,7.7545,7.6687,7.7042,7.56,7.4062,7.3178,7.5345,7.6511,7.4553,7.6169,7.7856,7.8555,7.6308,7.4836,7.5326,7.291,7.1771,7.2924,7.2968,7.2464,7.147,7.1286,7.0758,6.9625,6.9587,6.8955,6.7641,6.651,6.3741,0.0,0.0,0.0,0.0,0.0,0.0,0.0,0.0,0.0,0.0,0.0,0.0,0.0,0.0,0.0,0.0,0.0,0.0,0.0,0.0,0.0,0.0,0.0,0.0,0.0,0.0,0.0,5.4444,5.8123,0.0,0.0,0.0,0.0,5.7706,5.6921,5.7889,6.1149,6.0731,6.2534,6.7273,6.7657,6.8713,7.0717,7.0717,7.1066,7.1633,7.1633,7.1811,7.2114,7.2114,7.2917,7.434,7.434,7.5252,7.6504,7.3564,7.1194,6.9447,6.9609,6.8444,6.714,7.0863,7.2431,7.3154,7.7165,7.8689,7.8293,7.4563,7.0781,6.8371,7.1971,7.0488,0.0,0.0,7.3159,7.4086,7.7804,7.8623,7.8439,7.8552,7.8552,7.8589,7.8664,7.5938,7.36,7.3964,7.5042,7.486,7.1469,0.0,7.3659,7.3651,7.4098,7.5047,7.6706,7.5591,7.4005,7.2306,7.072,6.978,6.9803,6.9767,6.98,6.9792,6.9663,6.9587,6.9587,6.942,6.7769,6.4384,6.4064,0.0,0.0,0.0,0.0,0.0,0.0,0.0,0.0,0.0,0.0,0.0,0.0,0.0,0.0,0.0,0.0,0.0,0.0,0.0,0.0,0.0,0.0,0.0,0.0,0.0,0.0,5.3494,5.4716,5.3375,5.4585,5.4215,0.0,0.0,0.0,0.0,0.0,0.0,5.95,5.9372,6.0767,6.3958,6.4083,6.5251,6.7605,6.7833,6.8626,6.9999,7.0183,7.0938,7.2114,7.2114,7.2333,7.2698,7.2698,7.2953,7.3172,7.1084,6.999,6.9573,6.8251,6.7337,6.6841,6.8357,6.8734,6.8955,7.1971,7.3038,7.2953,7.1917,7.0131,6.8298,6.7829,0.0,0.0,0.0,0.0,7.0019,7.1304,7.1593,7.1911,7.3362,7.35,7.367,7.4997,7.443,7.3018,7.1031,6.8616,6.5917,6.281,6.5786,0.0,6.5372,7.0388,7.4161,7.335,7.4084,7.4005,7.2306,7.072,6.978,6.9803,6.979,6.98,6.9776,6.9663,6.9587,6.9587,6.7161,6.5342,6.4347,0.0,0.0,0.0,0.0,0.0,0.0,0.0,0.0,0.0,0.0,0.0,0.0,0.0,0.0,0.0,0.0,0.0,0.0,0.0,0.0,0.0,0.0,0.0,0.0,0.0,0.0,0.0,5.298,5.4796,5.4997,5.4296,5.3423,0.0,0.0,0.0,0.0,0.0,0.0,0.0,0.0,0.0,6.1917,6.2039,6.2768,6.4241,6.5337,6.6304,6.7285,6.8325,6.9213,6.9997,6.9997,7.0362,7.1092,7.1092,6.9807,6.7686,6.6817,6.5056,6.2971,0.0,0.0,0.0,0.0,6.3113,6.3333,6.652,6.7632,6.738,6.5642,0.0,0.0,0.0,0.0,0.0,0.0,0.0,6.6789,6.8599,7.0277,7.1764,7.2858,7.2916,7.3002,7.4081,7.0568,6.6751,6.5324,6.3836,6.1799,5.8623,6.1042,0.0,0.0,0.0,7.105,7.0919,7.3102,7.372,7.1362,7.038,6.9831,6.9777,6.9793,6.9776,6.9701,6.9625,6.8929,6.7425,6.5544,6.3101,0.0,0.0,0.0,0.0,0.0,0.0,0.0,0.0,0.0,0.0,0.0,0.0,0.0,0.0,0.0,0.0,0.0,0.0,0.0,0.0,0.0,0.0,0.0,0.0,0.0,0.0,0.0,0.0,0.0,5.6034,5.7055,0.0,0.0,0.0,0.0,0.0,0.0,0.0,0.0,0.0,0.0,0.0,0.0,0.0,6.0399,6.1152,6.298,6.3875,6.39,6.5886,6.6734,6.6519,6.6519,6.7473,6.9078,6.8421,0.0,6.2255,6.1753,0.0,0.0,0.0,0.0,0.0,0.0,0.0,0.0,0.0,0.0,0.0,0.0,0.0,0.0,0.0,0.0,0.0,0.0,0.0,0.0,0.0,0.0,7.2775,7.2532,7.2784,7.2992,7.2662,6.5401,5.8927,5.8844,5.9924,5.9741,0.0,0.0,0.0,0.0,0.0,0.0,6.8432,7.1949,7.3148,7.0116,6.9875,6.9887,6.9761,6.9767,6.9738,6.9587,6.9382,6.784,6.4676,6.4094,0.0,0.0,0.0,0.0,0.0,0.0,0.0,0.0,0.0,0.0,0.0,0.0,0.0,0.0,0.0,0.0,0.0,0.0,0.0,0.0,0.0,0.0,0.0,0.0,0.0,0.0,0.0,0.0,0.0,0.0,0.0,0.0,0.0,0.0,0.0,0.0,0.0,0.0,0.0,0.0,0.0,0.0,0.0,0.0,0.0,0.0,0.0,0.0,0.0,0.0,6.2074,6.2799,6.2749,6.2749,6.3748,6.5221,6.1136,6.0689,6.2482,5.7802,0.0,0.0,0.0,0.0,0.0,0.0,0.0,0.0,0.0,0.0,0.0,0.0,0.0,0.0,0.0,0.0,0.0,0.0,0.0,0.0,0.0,0.0,6.3115,6.1408,6.3432,6.5079,6.2523,0.0,0.0,0.0,0.0,0.0,0.0,0.0,0.0,0.0,0.0,0.0,6.3611,6.8885,7.1948,6.9981,6.9799,6.9777,6.9628,6.9735,6.9738,6.9587,6.8276,6.662,0.0,0.0,0.0,0.0,0.0,0.0,0.0,0.0,0.0,0.0,0.0,0.0,0.0,0.0,0.0,0.0,0.0,0.0,0.0,0.0,0.0,0.0,0.0,0.0,0.0,0.0,0.0,0.0,0.0,0.0,0.0,0.0,0.0,0.0,0.0,0.0,0.0,0.0,0.0,0.0,0.0,0.0,0.0,0.0,0.0,0.0,0.0,0.0,0.0,0.0,0.0,0.0,0.0,0.0,0.0,0.0,0.0,0.0,5.877,5.6343,0.0,0.0,0.0,0.0,0.0,0.0,0.0,0.0,0.0,0.0,0.0,0.0,0.0,0.0,0.0,0.0,0.0,0.0,0.0,0.0,0.0,0.0,0.0,0.0,0.0,0.0,0.0,0.0,0.0,0.0,0.0,0.0,0.0,0.0,0.0,0.0,0.0,0.0,0.0,0.0,6.2282,6.8123,7.1683,7.0064,6.9837,6.9757,6.97,6.9755,6.9345,6.8351,6.6696,0.0,0.0,0.0,0.0,0.0,0.0,0.0,0.0,0.0,0.0,0.0,0.0,0.0,0.0,0.0,0.0,0.0,0.0,0.0,0.0,0.0,0.0,0.0,0.0,0.0,0.0,0.0,0.0,0.0,0.0,0.0,0.0,0.0,0.0,0.0,0.0,0.0,0.0,0.0,0.0,0.0,0.0,0.0,0.0,0.0,0.0,0.0,0.0,0.0,0.0,0.0,0.0,0.0,0.0,0.0,0.0,0.0,0.0,0.0,5.6673,5.2752,0.0,0.0,0.0,0.0,0.0,0.0,0.0,0.0,0.0,0.0,0.0,0.0,0.0,0.0,0.0,0.0,0.0,0.0,0.0,0.0,0.0,0.0,0.0,0.0,0.0,0.0,0.0,0.0,0.0,0.0,0.0,0.0,0.0,0.0,0.0,0.0,0.0,0.0,0.0,0.0,6.1731,6.7638,7.1353,7.0061,6.9859,6.9767,6.9755,6.977,6.8989,6.7168,6.5095,0.0,0.0,0.0,0.0,0.0,0.0,0.0,0.0,0.0,0.0,0.0,0.0,0.0,0.0,0.0,0.0,0.0,0.0,0.0,0.0,0.0,0.0,0.0,0.0,0.0,0.0,0.0,0.0,0.0,0.0,0.0,0.0,0.0,0.0,0.0,0.0,0.0,0.0,0.0,0.0,0.0,0.0,0.0,0.0,0.0,0.0,0.0,0.0,0.0,0.0,0.0,0.0,0.0,0.0,0.0,0.0,0.0,0.0,0.0,0.0,0.0,0.0,0.0,0.0,0.0,0.0,0.0,0.0,0.0,0.0,0.0,0.0,0.0,0.0,0.0,0.0,0.0,0.0,0.0,0.0,0.0,0.0,0.0,0.0,0.0,0.0,0.0,0.0,0.0,0.0,0.0,0.0,0.0,0.0,0.0,0.0,0.0,0.0,0.0,0.0,0.0,6.025,6.6059,7.0085,6.9842,6.9775,6.9755,6.9622,6.9591,6.8875,6.7168,0.0,0.0,0.0,0.0,0.0,0.0,0.0,0.0,0.0,0.0,0.0,0.0,0.0,0.0,0.0,0.0,0.0,0.0,0.0,0.0,0.0,0.0,0.0,0.0,0.0,0.0,0.0,0.0,0.0,0.0,0.0,0.0,0.0,0.0,0.0,0.0,0.0,0.0,0.0,0.0,0.0,0.0,0.0,0.0,0.0,0.0,0.0,0.0,0.0,0.0,0.0,0.0,0.0,0.0,0.0,0.0,0.0,0.0,0.0,0.0,0.0,0.0,0.0,0.0,0.0,0.0,0.0,0.0,0.0,0.0,0.0,0.0,0.0,0.0,0.0,0.0,0.0,0.0,0.0,0.0,0.0,0.0,0.0,0.0,0.0,0.0,0.0,0.0,0.0,0.0,0.0,0.0,0.0,0.0,0.0,0.0,0.0,0.0,0.0,0.0,0.0,0.0,6.0022,6.5895,6.992,6.9811,6.9776,6.9724,6.9617,6.9596,6.8389,6.5608,0.0,0.0,0.0,0.0,0.0,0.0,0.0,0.0,0.0,0.0,0.0,0.0,0.0,0.0,0.0,0.0,0.0,0.0,0.0,0.0,0.0,0.0,0.0,0.0,0.0,0.0,0.0,0.0,0.0,0.0,0.0,0.0,0.0,0.0,0.0,0.0,0.0,0.0,0.0,0.0,0.0,0.0,0.0,0.0,0.0,0.0,0.0,0.0,0.0,0.0,0.0,0.0,0.0,0.0,0.0,0.0,0.0,0.0,0.0,0.0,0.0,0.0,0.0,0.0,0.0,0.0,0.0,0.0,0.0,0.0,0.0,0.0,0.0,0.0,0.0,0.0,0.0,0.0,0.0,0.0,0.0,0.0,0.0,0.0,0.0,0.0,0.0,0.0,0.0,0.0,0.0,0.0,0.0,0.0,0.0,0.0,0.0,0.0,0.0,0.0,0.0,0.0,6.0022,6.5877,6.9911,6.979,6.9791,6.9724,6.9603,6.9587,6.8087,6.4535,0.0,0.0,0.0,0.0,0.0,0.0,0.0,0.0,0.0,0.0,0.0,0.0,0.0,0.0,0.0,0.0,0.0,0.0,0.0,0.0,0.0,0.0,0.0,0.0,0.0,0.0,0.0,0.0,0.0,0.0,0.0,0.0,0.0,0.0,0.0,0.0,0.0,0.0,0.0,0.0,0.0,0.0,0.0,0.0,0.0,0.0,0.0,0.0,0.0,0.0,0.0,0.0,0.0,0.0,0.0,0.0,0.0,0.0,0.0,0.0,0.0,0.0,0.0,0.0,0.0,0.0,0.0,0.0,0.0,0.0,0.0,0.0,0.0,0.0,0.0,0.0,0.0,0.0,0.0,0.0,0.0,0.0,0.0,0.0,0.0,0.0,0.0,0.0,0.0,0.0,0.0,0.0,0.0,0.0,0.0,0.0,0.0,0.0,0.0,0.0,0.0,0.0,6.0022,6.587,6.9927,6.9814,6.9793,6.9738,6.9625,6.9587,6.8087,0.0,0.0,0.0,0.0,0.0,0.0,0.0,0.0,0.0,0.0,0.0,0.0,0.0,0.0,0.0,0.0,0.0,0.0,0.0,0.0,0.0,0.0,0.0,0.0,0.0,0.0,0.0,0.0,0.0,0.0,0.0,0.0,0.0,0.0,0.0,0.0,0.0,0.0,0.0,0.0,0.0,0.0,0.0,0.0,0.0,0.0,0.0,0.0,0.0,0.0,0.0,0.0,0.0,0.0,0.0,0.0,0.0,0.0,0.0,0.0,0.0,0.0,0.0,0.0,0.0,0.0,0.0,0.0,0.0,0.0,0.0,0.0,0.0,0.0,0.0,0.0,0.0,0.0,0.0,0.0,0.0,0.0,0.0,0.0,0.0,0.0,0.0,0.0,0.0,0.0,0.0,0.0,0.0,0.0,0.0,0.0,0.0,0.0,0.0,0.0,0.0,0.0,0.0,5.9908,6.4883,6.8636,6.9655,6.9793,6.9738,6.9625,6.9587,6.8087,6.4535,0.0,0.0,0.0,0.0,0.0,0.0,0.0,0.0,0.0,0.0,0.0,0.0,0.0,0.0,0.0,0.0,0.0,0.0,0.0,0.0,0.0,0.0,0.0,0.0,0.0,0.0,0.0,0.0,0.0,0.0,0.0,0.0,0.0,0.0,0.0,0.0,0.0,0.0,0.0,0.0,0.0,0.0,0.0,0.0,0.0,0.0,0.0,0.0,0.0,0.0,0.0,0.0,0.0,0.0,0.0,0.0,0.0,0.0,0.0,0.0,0.0,0.0,0.0,0.0,0.0,0.0,0.0,0.0,0.0,0.0,0.0,0.0,0.0,0.0,0.0,0.0,0.0,0.0,0.0,0.0,0.0,0.0,0.0,0.0,0.0,0.0,0.0,0.0,0.0,0.0,0.0,0.0,0.0,0.0,0.0,0.0,0.0,0.0,0.0,0.0,0.0,0.0,0.0,6.5278,6.8742,6.9697,6.9791,6.9738,6.9625,6.9587,6.8087,6.4535,0.0,0.0,0.0,0.0,0.0,0.0,0.0,0.0,0.0,0.0,0.0,0.0,0.0,0.0,0.0,0.0,0.0,0.0,0.0,0.0,0.0,0.0,0.0,0.0,0.0,0.0,0.0,0.0,0.0,0.0,0.0,0.0,0.0,0.0,0.0,0.0,0.0,0.0,0.0,0.0,0.0,0.0,0.0,0.0,0.0,0.0,0.0,0.0,0.0,0.0,0.0,0.0,0.0,0.0,0.0,0.0,0.0,0.0,0.0,0.0,0.0,0.0,0.0,0.0,0.0,0.0,0.0,0.0,0.0,0.0,0.0,0.0,0.0,0.0,0.0,0.0,0.0,0.0,0.0,0.0,0.0,0.0,0.0,0.0,0.0,0.0,0.0,0.0,0.0,0.0,0.0,0.0,0.0,0.0,0.0,0.0,0.0,0.0,0.0,0.0,0.0,0.0,0.0,6.6525,6.9643,6.9776,6.9776,6.9738,6.9625,6.9587,6.8087,6.4592,6.1394,0.0,0.0,0.0,0.0,0.0,0.0,0.0,0.0,0.0,0.0,0.0,0.0,0.0,0.0,0.0,0.0,0.0,0.0,0.0,0.0,0.0,0.0,0.0,0.0,0.0,0.0,0.0,0.0,0.0,0.0,0.0,0.0,0.0,0.0,0.0,0.0,0.0,0.0,0.0,0.0,0.0,0.0,0.0,0.0,0.0,0.0,0.0,0.0,0.0,0.0,0.0,0.0,0.0,0.0,0.0,0.0,0.0,0.0,0.0,0.0,0.0,0.0,0.0,0.0,0.0,0.0,0.0,0.0,0.0,0.0,0.0,0.0,0.0,0.0,0.0,0.0,0.0,0.0,0.0,0.0,0.0,0.0,0.0,0.0,0.0,0.0,0.0,0.0,0.0,0.0,0.0,0.0,0.0,0.0,0.0,0.0,0.0,0.0,0.0,0.0,0.0,0.0,6.438,6.6933,6.9508,6.9767,6.9738,6.9625,6.9587,6.8125,6.4705,6.2466,0.0,0.0,0.0,0.0,0.0,0.0,0.0,0.0,0.0,0.0,0.0,0.0,0.0,0.0,0.0,0.0,0.0,0.0,0.0,0.0,0.0,0.0,0.0,0.0,0.0,0.0,0.0,0.0,0.0,0.0,0.0,0.0,0.0,0.0,0.0,0.0,0.0,0.0,0.0,0.0,0.0,0.0,0.0,0.0,0.0,0.0,0.0,0.0,0.0,0.0,0.0,0.0,0.0,0.0,0.0,0.0,0.0,0.0,0.0,0.0,0.0,0.0,0.0,0.0,0.0,0.0,0.0,0.0,0.0,0.0,0.0,0.0,0.0,0.0,0.0,0.0,0.0,0.0,0.0,0.0,0.0,0.0,0.0,0.0,0.0,0.0,0.0,0.0,0.0,0.0,0.0,0.0,0.0,0.0,0.0,0.0,0.0,0.0,0.0,0.0,0.0,0.0,6.306,6.5997,6.948,6.989,6.9814,6.9701,6.9701,6.818,6.4648,6.3537,0.0,0.0,0.0,0.0,0.0,0.0,0.0,0.0,0.0,0.0,0.0,0.0,0.0,0.0,0.0,0.0,0.0,0.0,0.0,0.0,0.0,0.0,0.0,0.0,0.0,0.0,0.0,0.0,0.0,0.0,0.0,0.0,0.0,0.0,0.0,0.0,0.0,0.0,0.0,0.0,0.0,0.0,0.0,0.0,0.0,0.0,0.0,0.0,0.0,0.0,0.0,0.0,0.0,0.0,0.0,0.0,0.0,0.0,0.0,0.0,0.0,0.0,0.0,0.0,0.0,0.0,0.0,0.0,0.0,0.0,0.0,0.0,0.0,0.0,0.0,0.0,0.0,0.0,0.0,0.0,0.0,0.0,0.0,0.0,0.0,0.0,0.0,0.0,0.0,0.0,0.0,0.0,0.0,0.0,0.0,0.0,0.0,0.0,0.0,0.0,0.0,0.0,0.0,6.5758,6.8859,6.9656,6.9898,6.9785,6.9754,6.8217,6.4628,0.0,0.0,0.0,0.0,0.0,0.0,0.0,0.0,0.0,0.0,0.0,0.0,0.0,0.0,0.0,0.0,0.0,0.0,0.0,0.0,0.0,0.0,0.0,0.0,0.0,0.0,0.0,0.0,0.0,0.0,0.0,0.0,0.0,0.0,0.0,0.0,0.0,0.0,0.0,0.0,0.0,0.0,0.0,0.0,0.0,0.0,0.0,0.0,0.0,0.0,0.0,0.0,0.0,0.0,0.0,0.0,0.0,0.0,0.0,0.0,0.0,0.0,0.0,0.0,0.0,0.0,0.0,0.0,0.0,0.0,0.0,0.0,0.0,0.0,0.0,0.0,0.0,0.0,0.0,0.0,0.0,0.0,0.0,0.0,0.0,0.0,0.0,0.0,0.0,0.0,0.0,0.0,0.0,0.0,0.0,0.0,0.0,0.0,0.0,0.0,0.0,0.0,0.0,0.0,6.4914,6.5467,6.8116,6.9802,6.9802,6.9691,6.8196,6.4903,0.0,0.0,0.0,0.0,0.0,0.0,0.0,0.0,0.0,0.0,0.0,0.0,0.0,0.0]}],[{"header":{"parameterUnit":"kt","parameterCategory":2,"dx":1,"dy":1,"la1":29.285339999999998,"la2":30.599998999999997,"lo1":-89.70041500000002,"lo2":-87.6738589999976,"nx":112,"ny":82,"refTime":"2022-09-21T12:00:00:Z","depth":0,"parameterNumber":2,"parameterNumberName":"V-component_of_WINDS"},"data":[4.8622,4.8623,4.8779,4.782,4.7732,4.7679,4.6433,4.5822,4.5598,4.5598,4.5252,4.5007,4.5468,4.5267,4.4895,4.4872,4.4592,4.4553,0.0,4.4799,4.497,4.497,4.5953,4.6991,4.7929,4.8837,4.9247,4.914,4.9228,4.9569,4.9679,5.0162,5.0745,5.146,5.2226,5.2625,5.2625,5.2625,5.2625,5.2625,5.2625,5.2625,5.2625,5.2625,5.2625,5.2625,5.2625,5.2625,5.2625,5.2625,5.2625,5.2625,5.2625,5.2625,5.2625,5.2625,5.2625,5.2625,5.2625,5.2625,5.2625,5.2625,5.2625,5.2625,5.2625,5.2625,5.2675,5.2925,5.2808,5.2692,5.2925,5.2808,5.2625,5.2625,5.2625,5.2625,5.2625,5.2625,5.2625,5.2625,5.2625,5.2625,5.2625,5.2625,5.2625,5.2625,5.2625,5.2625,5.2625,5.2625,5.2625,5.2625,5.2625,5.2625,5.2625,5.2625,5.2625,5.2625,5.2625,5.2625,5.2625,5.1893,5.1144,5.0428,4.9696,4.8964,4.8248,4.8498,4.8631,4.8631,4.8631,4.8631,4.7387,4.7269,4.7428,4.6476,4.642,4.6326,4.5252,4.497,4.497,4.497,4.497,4.497,4.497,4.497,4.4799,4.4249,4.4382,4.4477,0.0,4.4382,4.478,4.5331,4.6525,4.768,4.8581,4.9238,4.933,4.8603,4.9347,4.9855,4.9679,5.0378,5.1111,5.1843,5.2359,5.2625,5.2625,5.2625,5.2625,5.2625,5.2625,5.2625,5.2625,5.2625,5.2625,5.2625,5.2625,5.2625,5.2625,5.2625,5.2625,5.2625,5.2625,5.2625,5.2625,5.2625,5.2625,5.2625,5.2625,5.2625,5.2625,5.2625,5.2625,5.2625,5.2625,5.2625,5.2625,5.2625,5.2625,5.2625,5.2625,5.2625,5.2625,5.2625,5.2625,5.2625,5.2625,5.2625,5.2625,5.2625,5.2625,5.2625,5.2625,5.2625,5.2625,5.2625,5.2625,5.2625,5.2625,5.2625,5.2625,5.2625,5.2625,5.2625,5.2625,5.2625,5.2625,5.2625,5.2376,5.2242,5.2242,5.1277,5.0528,5.0046,4.933,4.8731,4.8248,4.8248,4.8248,4.8248,4.8248,4.8248,4.6104,4.5834,4.5666,4.5044,4.4838,4.4876,4.4989,4.497,4.497,4.497,4.497,4.497,4.497,4.497,4.4458,4.2882,4.3338,0.0,0.0,4.3395,4.4403,4.6029,4.7656,4.8581,4.8921,4.9638,4.9717,4.862,5.0028,5.0771,5.0378,5.1094,5.1843,5.2609,5.2625,5.2625,5.2625,5.2625,5.2625,5.2625,5.2625,5.2625,5.2625,5.2625,5.2625,5.2625,5.2625,5.2625,5.2625,5.2625,5.2625,5.2625,5.2625,5.2625,5.2625,5.2625,5.2625,5.2625,5.2625,5.2625,5.2625,5.2625,5.2625,5.2625,5.2625,5.2625,5.2625,5.2625,5.2625,5.2625,5.2625,5.2625,5.2625,5.2625,5.2625,5.2625,5.2625,5.2625,5.2625,5.2625,5.2625,5.2625,5.2625,5.2625,5.2625,5.2625,5.2625,5.2625,5.2625,5.2625,5.2625,5.2625,5.2625,5.2625,5.2625,5.2609,5.2592,5.2592,5.1876,5.1444,5.1444,5.0079,4.9313,4.9313,4.8614,4.8248,4.8248,4.8248,4.8248,4.8248,4.8248,4.8248,4.6048,4.5505,4.5666,4.5044,4.5205,4.5431,4.5084,4.497,4.497,4.497,4.497,0.0,0.0,0.0,4.4837,4.4382,0.0,4.5105,4.4346,4.5187,4.6262,4.7236,4.8249,4.8796,4.8778,4.9727,4.9738,4.8444,4.9737,5.0437,5.0412,5.1094,5.1843,5.2609,5.2625,5.2625,5.2625,5.2625,5.2625,5.2625,5.2625,5.2625,5.2625,5.2625,5.2625,5.2625,5.2625,5.2625,5.2625,5.2625,5.2625,5.2625,5.2625,5.2625,5.2625,5.2625,5.2625,5.2625,5.2625,5.2625,5.2625,5.2625,5.2625,5.2625,5.2625,5.2625,5.2625,5.2625,5.2625,5.2625,5.2625,5.2625,5.2625,5.2625,5.2625,5.2625,5.2625,5.2625,5.2625,5.2625,5.2625,5.2625,5.2625,5.2625,5.2625,5.2625,5.2625,5.2625,5.2625,5.2625,5.2625,5.2625,5.2625,5.2625,5.2625,5.2109,5.1793,5.1793,5.1111,5.0711,5.0711,4.9813,4.9313,4.9313,4.8614,4.8248,4.8248,4.8248,4.8248,4.8248,4.8248,4.8248,4.6812,4.5578,4.4919,4.497,4.5191,4.531,4.5027,4.497,4.497,4.497,0.0,0.0,0.0,0.0,0.0,0.0,4.5291,4.5721,4.5273,4.6376,4.7305,4.8047,4.881,4.8985,4.8586,4.9127,4.9368,4.8714,4.9922,5.0661,5.0828,5.156,5.2176,5.2625,5.2625,5.2625,5.2625,5.2625,5.2625,5.2625,5.2625,5.2625,5.2625,5.2625,5.2625,5.2625,5.2625,5.2625,5.2625,5.2625,5.2625,5.2625,5.2625,5.2625,5.2625,5.2625,5.2625,5.2625,5.2625,5.2625,5.2625,5.2625,5.2625,5.2625,5.2625,5.2625,5.2625,5.2625,5.2625,5.2625,5.2625,5.2625,5.2625,5.2625,5.2625,5.2625,5.2625,5.2625,5.2625,5.2625,5.2625,5.2625,5.2625,5.2625,5.2625,5.2625,5.2625,5.2625,5.2625,5.2625,5.2625,5.2625,5.2342,5.2159,5.2159,5.146,5.1044,5.1044,5.0645,5.0279,4.9962,4.9247,4.8864,4.8864,4.8465,4.8248,4.8248,4.8248,4.8248,4.8248,4.8248,4.78,4.7559,4.5726,4.3964,4.478,4.497,4.5027,4.5388,0.0,4.5483,4.5674,0.0,4.5712,4.5559,0.0,0.0,4.4422,4.5328,4.6108,4.5907,4.7037,4.8051,4.8939,4.9171,4.92,4.8633,4.8497,4.8865,4.9433,5.0262,5.1145,5.141,5.2209,5.2625,5.2625,5.2625,5.2625,5.2625,5.2625,5.2625,5.2625,5.2625,5.2625,5.2625,5.2625,5.2625,5.2625,5.2625,5.2625,5.2625,5.2625,5.2625,5.2625,5.2625,5.2625,5.2625,5.2625,5.2625,5.2625,5.2625,5.2625,5.2625,5.2625,5.2625,5.2625,5.2625,5.2625,5.2625,5.2625,5.2625,5.2625,5.2625,5.2625,5.2625,5.2625,5.2625,5.2625,5.2625,5.2625,5.2625,5.2625,5.2625,5.2625,5.2625,5.2625,5.2625,5.2625,5.2625,5.2625,5.2625,5.2559,5.2492,5.2492,5.181,5.136,5.136,5.0711,5.0295,5.0295,5.0229,4.9879,4.9213,4.8581,4.8248,4.8248,4.8248,4.8248,4.8248,4.8248,4.8032,4.78,4.78,4.6884,4.5102,4.42,4.3964,4.478,4.497,4.5673,0.0,0.0,0.0,5.0701,5.0997,5.0651,4.9218,4.829,4.7675,4.7508,4.7768,4.785,4.7359,4.833,4.9148,4.9299,4.9266,4.898,4.833,4.8247,4.8598,4.9247,5.0085,5.0804,5.1444,5.2209,5.2625,5.2625,5.2625,5.2625,5.2625,5.2625,5.2625,5.2625,5.2625,5.2625,5.2625,5.2625,5.2625,5.2625,5.2625,5.2625,5.2625,5.2625,5.2625,5.2625,5.2625,5.2625,5.2625,5.2625,5.2625,5.2625,5.2625,5.2625,5.2625,5.2625,5.2625,5.2625,5.2625,5.2625,5.2625,5.2625,5.2625,5.2625,5.2625,5.2625,5.2625,5.2625,5.2625,5.2625,5.2625,5.2625,5.2625,5.2625,5.2625,5.2625,5.2625,5.2625,5.2625,5.2625,5.2625,5.2625,5.2625,5.2093,5.171,5.171,5.1061,5.0628,5.0628,4.9962,4.953,4.953,4.898,4.8598,4.8465,4.8331,4.8248,4.8248,4.8248,4.8248,4.8248,4.8248,4.735,4.5983,4.5983,4.5096,4.5438,4.4231,4.3433,4.4667,4.497,0.0,0.0,4.8083,4.9119,5.0864,5.1228,5.1278,5.1278,4.9924,4.8877,4.8877,4.8754,4.8569,4.8569,4.9013,4.9313,4.9313,4.8997,4.8631,4.8281,4.8248,4.8548,4.9263,5.0329,5.1277,5.2026,5.2426,5.2625,5.2625,5.2625,5.2625,5.2625,5.2625,5.2625,5.2625,5.2625,5.2625,5.2625,5.2625,5.2625,5.2625,5.2625,5.2625,5.2625,5.2625,5.2625,5.2625,5.2625,5.2625,5.2625,5.2625,5.2625,5.2625,5.2625,5.2625,5.2625,5.2625,5.2625,5.2625,5.2625,5.2625,5.2625,5.2625,5.2625,5.2625,5.2625,5.2625,5.2625,5.2625,5.2625,5.2625,5.2625,5.2625,5.2625,5.2625,5.2625,5.2625,5.2625,5.2625,5.2492,5.2109,5.2059,5.1926,5.156,5.1194,5.0961,5.0961,5.0295,4.9863,4.9863,4.9197,4.8781,4.8781,4.8448,4.8248,4.8248,4.8248,4.8248,4.8248,4.8248,4.8248,4.8248,4.6466,4.5563,4.5516,4.4658,4.3342,4.5771,4.443,4.2939,4.4572,4.497,0.0,4.6458,4.7691,4.9028,5.1324,5.1691,5.1776,5.304,5.1595,5.0054,5.0,4.9467,4.9018,4.9367,4.9197,4.9114,4.9114,4.8598,4.8248,4.8248,4.8248,4.8548,4.9263,5.0545,5.1677,5.2575,5.2625,5.2625,5.2625,5.2625,5.2625,5.2625,5.2625,5.2625,5.2625,5.2625,5.2625,5.2625,5.2625,5.2625,5.2625,5.2625,5.2625,5.2625,5.2625,5.2625,5.2625,5.2625,5.2625,5.2625,5.2625,5.2625,5.2625,5.2625,5.2625,5.2625,5.2625,5.2625,5.2625,5.2625,5.2625,5.2625,5.2625,5.2625,5.2625,5.2625,5.2625,5.2625,5.2625,5.2625,5.2625,5.2625,5.2625,5.2625,5.2625,5.2625,5.2625,5.2625,5.2509,5.2193,5.1577,5.136,5.1077,5.0495,5.0295,5.0212,5.0212,4.9546,4.9114,4.9114,4.8581,4.8248,4.8248,4.8248,4.8248,4.8248,4.8248,4.8248,4.8248,4.8248,4.8248,4.8248,4.4908,4.3781,4.4424,4.3121,4.1367,4.3013,4.2758,4.2939,4.4572,4.497,0.0,5.2303,5.2815,5.3142,5.7877,5.7499,5.646,5.5791,5.416,5.272,5.2544,5.154,5.0445,4.9517,4.8764,4.8365,4.8365,4.8298,4.8248,4.8248,4.8248,4.8548,4.9263,5.0079,5.1144,5.2559,5.2625,5.2625,5.2625,5.2625,5.2625,5.2625,5.2625,5.2625,5.2625,5.2625,5.2625,5.2625,5.2625,5.2625,5.2625,5.2625,5.2625,5.2625,5.2625,5.2625,5.2625,5.2625,5.2625,5.2625,5.2625,5.2625,5.2625,5.2625,5.2625,5.2625,5.2625,5.2625,5.2625,5.2625,5.2625,5.2625,5.2625,5.2625,5.2625,5.2625,5.2625,5.2625,5.2625,5.2625,5.2625,5.2625,5.2625,5.2625,5.2625,5.2625,5.2625,5.2625,5.2059,5.1577,5.1494,5.0944,5.0512,5.0428,4.9846,4.943,4.943,4.8797,4.8365,4.8365,4.8298,4.8248,4.8248,4.8248,4.8248,4.8248,4.8248,4.8248,4.8248,4.8248,4.8248,4.8248,4.6217,4.3781,4.0937,4.0714,3.9612,4.2681,4.254,4.2939,4.4572,0.0,0.0,5.1397,5.2993,5.4732,5.7764,5.7517,5.6667,5.674,5.5538,5.4217,5.3011,5.1324,4.9983,4.8915,4.8431,4.8248,4.8248,4.8248,4.8248,4.8248,4.8248,4.8548,4.9263,5.0012,5.0878,5.191,5.2392,5.2625,5.2625,5.2625,5.2625,5.2625,5.2625,5.2625,5.2625,5.2625,5.2625,5.2625,5.2625,5.2625,5.2625,5.2625,5.2625,5.2625,5.2625,5.2625,5.2625,5.2625,5.2625,5.2625,5.2625,5.2625,5.2625,5.2625,5.2625,5.2625,5.2625,5.2625,5.2625,5.2625,5.2625,5.2625,5.2625,5.2625,5.2625,5.2625,5.2625,5.2625,5.2625,5.2625,5.2625,5.2625,5.2625,5.2625,5.2625,5.2276,5.196,5.196,5.136,5.0711,5.0279,4.9962,4.963,4.9197,4.8881,4.8698,4.8698,4.8415,4.8248,4.8248,4.8248,4.8248,4.8248,4.8248,4.8248,4.8248,4.8248,4.8248,4.8248,4.8248,4.7583,4.6651,4.4893,4.2253,3.8743,3.8743,3.8306,4.2681,0.0,0.0,0.0,0.0,0.0,5.2242,5.4132,5.6138,5.7794,5.7234,5.6574,5.6604,5.5651,5.44,5.276,5.1137,4.9505,4.8447,4.8248,4.8248,4.8248,4.8248,4.8248,4.8248,4.8248,4.8548,4.9263,4.9813,5.0428,5.1161,5.191,5.2409,5.2625,5.2625,5.2625,5.2625,5.2625,5.2625,5.2625,5.2625,5.2625,5.2625,5.2625,5.2625,5.2625,5.2625,5.2625,5.2625,5.2625,5.2625,5.2625,5.2625,5.2625,5.2625,5.2625,5.2625,5.2625,5.2625,5.2625,5.2625,5.2625,5.2625,5.2625,5.2625,5.2625,5.2625,5.2625,5.2625,5.2625,5.2625,5.2625,5.2625,5.2625,5.2625,5.2625,5.2625,5.2459,5.2309,5.2309,5.171,5.1194,5.1194,5.0595,4.9929,4.9397,4.9147,4.8831,4.8315,4.8248,4.8248,4.8248,4.8248,4.8248,4.8248,4.8248,4.8016,4.7567,4.735,4.7134,4.6684,4.6684,4.6684,4.6684,4.6684,4.5797,4.3986,4.2901,4.0714,3.7644,3.7644,3.7644,0.0,0.0,0.0,4.866,4.9885,5.1539,5.8033,5.8215,5.7843,5.9407,5.8407,5.6862,5.4994,5.3893,5.2957,5.1865,5.0786,4.9505,4.8447,4.8248,4.8248,4.8248,4.8248,4.8248,4.8248,4.8248,4.8548,4.9263,4.933,4.9679,5.0412,5.1127,5.186,5.2609,5.2625,5.2625,5.2625,5.2625,5.2625,5.2625,5.2625,5.2625,5.2625,5.2625,5.2625,5.2625,5.2625,5.2625,5.2625,5.2625,5.2625,5.2625,5.2625,5.2625,5.2625,5.2625,5.2625,5.2625,5.2625,5.2625,5.2625,5.2625,5.2625,5.2625,5.2625,5.2625,5.2625,5.2625,5.2625,5.2625,5.2625,5.2625,5.2625,5.2625,5.2625,5.2625,5.2625,5.2043,5.1527,5.1527,5.0944,5.0445,5.0445,4.9846,4.9347,4.9313,4.8731,4.8265,4.8248,4.8248,4.8248,4.8248,4.8248,4.8248,4.8248,4.8248,4.735,4.575,4.5532,4.4877,4.3136,4.3136,4.3136,4.3136,4.3136,4.2253,4.0491,4.0268,3.9402,3.7644,3.7644,3.7644,4.579,4.7323,4.9439,5.2509,5.4747,5.6755,5.8319,5.9763,6.031,5.915,5.8487,5.7559,5.5239,5.4955,5.3914,5.0964,5.0129,4.9505,4.8447,4.8248,4.8248,4.8248,4.8248,4.8248,4.8248,4.8248,4.8348,4.8581,4.9047,4.943,4.9679,5.0378,5.0894,5.1144,5.1161,5.1394,5.186,5.186,5.2126,5.2625,5.2625,5.2625,5.2625,5.2625,5.2625,5.2625,5.2625,5.2625,5.2625,5.2625,5.2625,5.2625,5.2625,5.2625,5.2625,5.2625,5.2625,5.2625,5.2625,5.2625,5.2625,5.2625,5.2625,5.2625,5.2625,5.2625,5.2625,5.2625,5.2625,5.2625,5.2625,5.2625,5.2625,5.2625,5.2625,5.2625,5.2625,5.1643,5.0778,5.0778,5.0195,4.9679,4.9679,4.908,4.8598,4.8598,4.8398,4.8248,4.8248,4.7117,4.6434,4.6434,4.5345,4.4689,4.4689,4.4689,4.447,4.3781,4.3781,4.3577,4.2916,4.2916,4.2916,4.2916,4.2916,4.1603,3.8518,3.8518,3.8306,3.7644,3.7644,3.7644,4.7529,4.9564,5.2734,5.576,5.7862,5.9316,5.994,6.1382,6.1956,5.9581,5.9655,5.9093,5.5899,5.4331,5.2847,5.0343,4.9505,4.9076,4.8248,4.8248,4.8248,4.8248,4.8248,4.8248,4.8248,4.8248,4.8248,4.8248,4.8681,4.8931,4.8931,4.963,5.0029,5.0029,5.0279,5.0645,5.1094,5.1111,5.136,5.1843,5.1843,5.1976,5.2226,5.2226,5.2376,5.2592,5.2076,5.1843,5.1843,5.1843,5.1993,5.2226,5.2226,5.2392,5.2625,5.2625,5.2625,5.2625,5.2625,5.2625,5.2625,5.2625,5.2625,5.2625,5.2625,5.2625,5.2625,5.2625,5.2625,5.2625,5.2625,5.2625,5.2625,5.2625,5.2625,5.2492,5.196,5.0422,4.9116,4.9116,4.8067,4.7124,4.7124,4.6755,4.6249,4.6249,4.6249,4.6249,4.6249,4.5329,4.4643,4.4643,4.3562,4.2916,4.2916,4.2916,4.2695,4.2032,4.2032,4.181,4.1159,4.1159,4.1159,4.1159,4.1159,4.0059,3.7644,3.7644,3.7644,3.7644,3.7436,3.7332,4.8261,5.0126,5.3652,5.8525,5.9186,5.934,6.2407,6.3042,6.2685,6.092,6.1306,6.0737,5.6715,5.2829,5.0343,5.0129,4.9093,4.8248,4.8248,4.8248,4.8248,4.8248,4.8248,4.8248,4.8248,4.8248,4.8248,4.8248,4.8248,4.8248,4.8248,4.8881,4.9263,4.9263,4.9946,5.0312,5.0312,5.0345,5.0378,5.0412,5.0412,5.0778,5.1427,5.1427,5.1826,5.2442,5.1028,5.0412,5.0412,5.0412,5.0811,5.1427,5.1427,5.1876,5.2509,5.2509,5.2509,5.2509,5.2509,5.2509,5.2509,5.2509,5.2509,5.2509,5.2509,5.2509,5.2509,5.2509,5.2509,5.2509,5.2509,5.2509,5.2509,5.2509,5.2509,5.2126,5.0728,4.8247,4.6587,4.6555,4.4679,4.2916,4.2916,4.2916,4.2916,4.2916,4.2916,4.2916,4.2916,4.2916,4.2916,4.2916,4.2695,4.2695,4.2695,4.2695,4.2032,4.0268,4.0045,3.9402,3.7869,3.7644,3.7644,3.7644,3.7644,3.7644,3.7644,3.7618,3.7605,3.7592,3.7007,3.6748,5.2122,5.6131,5.9515,6.1709,6.2197,6.1775,6.1234,6.1591,6.1334,5.8616,5.795,5.7974,5.7637,5.671,5.5087,5.1794,5.0343,4.929,4.8232,4.8248,4.8248,4.8248,4.8248,4.8248,4.8248,4.8248,4.8248,4.8248,4.8248,4.8248,4.8248,4.8415,4.8514,4.8514,4.8698,4.8797,4.8797,4.933,4.9879,5.0412,5.0412,5.0512,5.0695,5.0695,5.0795,5.0961,5.0578,5.0412,5.0412,5.0412,5.0528,5.0695,5.0695,5.0811,5.0978,5.0978,5.0978,5.0978,5.0978,5.0978,5.0978,5.0978,5.0978,5.0978,5.0978,5.0978,5.0978,5.0978,5.0978,5.0978,5.0978,5.0978,5.0978,5.0978,5.0978,5.0878,5.0495,4.7332,4.4435,4.3923,4.3476,4.2916,4.2916,4.2916,4.2916,4.2916,4.2916,4.2916,4.2916,4.181,4.0937,4.0937,3.985,3.8967,3.8967,3.8967,3.8743,3.8306,3.8306,3.8081,3.7644,3.7644,3.7644,3.7644,3.7644,3.7644,3.7644,3.7215,3.7007,3.6994,3.6423,3.615,5.3566,5.814,6.1787,6.285,6.2819,6.2127,6.0632,6.0721,6.0526,5.8813,5.7456,5.6474,5.6517,5.565,5.4031,5.1335,4.9933,4.8878,4.8248,4.8248,4.8248,4.8248,4.8248,4.8248,4.8248,4.8248,4.8248,4.8248,4.8248,4.8248,4.8248,4.8248,4.8248,4.8248,4.8248,4.8248,4.8248,4.8648,4.9047,4.9463,4.9463,4.963,4.9929,4.9929,4.9763,4.9463,4.9463,4.9463,4.9463,4.9463,4.9646,4.9929,4.9929,5.0129,5.0412,5.0412,5.0412,5.0412,5.0412,5.0412,5.0412,5.0412,5.0412,5.0412,5.0412,5.0412,5.0203,4.9508,4.9281,4.9055,4.8341,4.8097,4.8097,4.8097,4.8097,4.7453,4.5188,4.3448,4.1991,4.0728,4.07,4.0728,4.0728,4.0728,4.0728,4.0728,4.0728,4.0728,4.0728,3.9836,3.9178,3.9178,3.8306,3.7644,3.7644,3.7644,3.7644,3.7644,3.7644,3.7644,3.7644,3.7644,3.7644,3.7644,3.7397,3.715,3.689,3.6566,3.641,3.6397,3.5826,3.5566,5.3599,5.7851,6.1264,6.2582,6.2029,6.0866,6.0297,6.0074,6.0118,5.989,5.7769,5.5552,5.4216,5.2258,5.062,4.987,4.881,4.8248,4.8248,4.8248,4.8248,4.8248,4.8248,4.8248,4.8248,4.8248,4.8248,4.8248,4.8248,4.8248,4.8248,4.8248,4.8248,4.8248,4.8248,4.8248,4.8248,4.8248,4.8248,4.8248,4.8248,4.8564,4.9164,4.9164,4.8831,4.8248,4.8248,4.8032,4.78,4.78,4.8146,4.8486,4.8707,4.9103,4.9439,4.9422,4.9197,4.8972,4.8714,4.8714,4.8714,4.8714,4.8714,4.8714,4.8714,4.8714,4.8263,4.6904,4.645,4.5979,4.4577,4.4104,4.4104,4.4104,4.3645,4.2167,3.7644,3.791,3.8636,3.7051,3.6889,3.6953,3.6953,3.7179,3.7418,3.7644,3.7644,3.7644,3.7644,3.7644,3.7644,3.7644,3.7644,3.7644,3.7644,3.7644,3.7644,3.7644,3.7644,3.7644,3.7644,3.7644,3.7579,3.7423,3.6929,3.6436,3.5943,3.5865,3.5826,3.5813,3.5228,3.4969,5.358,5.6767,5.9197,6.1467,6.0289,5.8752,5.8869,5.9003,5.8892,5.8439,5.6266,5.4031,5.2509,5.1698,5.0801,4.9334,4.8456,4.8248,4.8248,4.8248,4.8248,4.8248,4.8248,4.8248,4.8248,4.8248,4.8248,4.8248,4.8248,4.8248,4.8248,4.8248,4.8248,4.8248,4.8248,4.8248,4.8248,4.8248,4.8248,4.8248,4.8248,4.8315,4.8431,4.8431,4.8365,4.8248,4.8248,4.735,4.5967,4.5967,4.5173,4.4183,4.5502,4.5345,4.4129,4.4069,4.3183,4.1847,4.0211,3.9524,3.9524,3.9524,3.9524,3.9524,3.9524,3.9524,3.9524,3.93,3.9088,3.9075,3.8624,3.8624,3.8624,3.8624,3.6399,3.4105,3.3245,3.321,3.345,3.2994,3.3005,3.3016,3.3016,3.4396,3.5783,3.7405,3.7644,3.7644,3.7644,3.7644,3.7644,3.7644,3.7644,3.7644,3.7644,3.7644,3.7644,3.7644,3.7644,3.7644,3.7644,3.7644,3.7202,3.6254,3.6137,3.6046,3.5943,3.5462,3.5228,3.5215,3.4618,3.4332,5.1415,5.4584,5.7403,5.9443,5.9648,5.8899,5.7913,5.7693,5.7446,5.7201,5.5187,5.3241,5.2045,5.0804,4.9633,4.8517,4.7992,4.7649,4.7649,4.7999,4.8248,4.8248,4.8248,4.8248,4.8248,4.8248,4.8248,4.8248,4.8248,4.8248,4.8248,4.8248,4.8248,4.8248,4.8248,4.8248,4.8248,4.8248,4.8248,4.8248,4.8248,4.8248,4.8248,4.6249,4.5579,4.5579,4.5579,4.4908,4.422,4.422,4.3796,4.2916,4.2871,4.2209,4.1324,4.0365,3.9448,3.8582,3.7647,3.741,3.741,3.741,3.741,3.741,3.741,3.741,3.7198,3.6324,3.6111,3.5886,3.4755,3.4528,3.4528,3.4528,3.1828,2.9121,2.9121,3.0044,3.0735,3.0735,3.1414,3.2319,3.3245,3.4169,3.5557,3.7418,3.7644,3.7644,3.7644,3.7644,3.7644,3.7644,3.7644,3.7644,3.7644,3.7644,3.7644,3.7644,3.7644,3.7514,3.7215,3.6916,3.6358,3.5514,3.5488,3.5332,3.5021,3.4748,3.4605,3.4605,3.4306,3.4177,4.9253,5.2666,5.5571,5.666,5.8226,5.8934,5.6929,5.608,5.5516,5.495,5.3261,5.1583,5.0587,4.9262,4.8015,4.7313,4.7022,4.6867,4.6867,4.7516,4.7999,4.7999,4.8148,4.8248,4.8248,4.8248,4.8248,4.8248,4.8248,4.8248,4.8248,4.8248,4.8248,4.8248,4.8248,4.8248,4.8248,4.8248,4.8248,4.8248,4.78,4.7567,4.7567,4.447,4.2916,4.2916,4.246,4.2003,4.1102,4.1102,4.088,4.0435,3.953,3.8846,3.8398,3.6762,3.5848,3.5635,3.5171,3.4945,3.4945,3.4945,3.4945,3.4945,3.4945,3.4945,3.4731,3.3415,3.2982,3.2754,3.1173,3.0943,3.0943,3.0943,2.8669,2.6608,2.6608,2.7761,2.8688,2.8688,3.0285,3.1872,3.3485,3.4169,3.5317,3.694,3.7418,3.7644,3.7644,3.7644,3.7644,3.7644,3.7644,3.7644,3.7644,3.7644,3.7592,3.7475,3.7462,3.7202,3.6631,3.6059,3.5488,3.4904,3.4891,3.4644,3.4177,3.4177,3.4177,3.4177,3.4177,3.4177,4.8857,5.2184,5.4289,5.3075,5.464,5.6489,5.6627,5.4585,5.2005,4.9585,4.9016,4.8272,4.6211,4.6217,4.6338,4.5422,4.5635,4.6101,4.6101,4.6734,4.72,4.72,4.7815,4.8248,4.8248,4.8248,4.8248,4.8248,4.8248,4.8248,4.8248,4.8248,4.8248,4.8248,4.8248,4.8248,4.8248,4.8248,4.8248,4.8248,4.6434,4.575,4.575,4.3781,4.2916,4.2916,4.1102,3.8622,3.5471,3.5471,3.4564,3.3222,3.4803,3.4349,3.2765,3.272,3.161,2.9824,2.8205,2.751,2.751,2.751,2.751,2.751,2.751,2.751,2.7519,2.7519,2.7287,2.7297,2.7064,2.7064,2.7064,2.7064,2.6841,2.6608,2.6608,2.6841,2.6841,2.6841,2.8457,2.9603,2.9834,3.2571,3.4851,3.509,3.6488,3.7644,3.7644,3.7644,3.7644,3.7644,3.7644,3.7644,3.7644,3.7644,3.7423,3.6903,3.6864,3.6605,3.6046,3.5462,3.4878,3.4267,3.4254,3.4228,3.4177,3.4177,3.4177,3.4177,3.4177,3.4177,4.4026,4.7481,4.9958,4.9627,5.1926,5.4215,5.3892,5.2257,5.0558,4.9904,4.9095,4.7972,4.601,4.5119,4.4908,4.4451,4.4985,4.5352,4.5352,4.6001,4.6467,4.6434,4.67,4.7067,4.7516,4.7566,4.7749,4.8215,4.8248,4.8248,4.8248,4.8248,4.8248,4.8248,4.8248,4.8248,4.8248,4.7117,4.6651,4.6667,4.4893,4.4001,4.3781,4.1159,3.985,3.985,3.894,3.7817,3.6463,3.6463,3.601,3.533,3.5066,3.4384,3.3473,3.1184,3.0044,2.9151,2.7306,2.6608,2.6608,2.6608,2.6608,2.6608,2.6608,2.6608,2.6608,2.6608,2.6608,2.6608,2.6608,2.6608,2.6608,2.6608,2.6608,2.6608,2.6608,2.6608,2.6608,2.6608,2.7297,2.7993,2.9151,3.1424,3.3473,3.4624,3.6475,3.7644,3.7644,3.7644,3.7644,3.7644,3.7644,3.7501,3.7163,3.7124,3.6877,3.6319,3.628,3.5852,3.4917,3.4657,3.4423,3.419,3.4177,3.4177,3.4177,3.4177,3.4177,3.4177,3.4177,3.4177,4.1043,4.3906,4.6354,4.6807,4.8841,5.0943,5.1243,5.0445,4.9771,5.0478,4.9575,4.8209,4.6111,4.5058,4.4288,4.4141,4.4358,4.4603,4.4603,4.5252,4.5718,4.5685,4.5885,4.6218,4.6734,4.6767,4.7,4.7549,4.7599,4.7599,4.7582,4.7582,4.7582,4.7582,4.7799,4.7899,4.7899,4.6771,4.6217,4.6217,4.4016,4.2283,4.0823,3.8408,3.7384,3.7397,3.7102,3.694,3.6714,3.6249,3.6022,3.5796,3.3941,3.3256,3.2799,2.9593,2.8457,2.8457,2.7064,2.6608,2.6608,2.6608,2.6608,2.6608,2.6608,2.6608,2.6608,2.6608,2.6608,2.6608,2.6608,2.6608,2.6608,2.6608,2.6608,2.6608,2.6608,2.6608,2.6608,2.6608,2.7074,2.7761,2.9151,3.0965,3.2548,3.3701,3.509,3.6022,3.6022,3.6022,3.6199,3.6499,3.6698,3.6469,3.6579,3.6527,3.6293,3.5722,3.5683,3.5228,3.4216,3.4177,3.4177,3.4177,3.4177,3.4177,3.4177,3.4177,3.4177,3.4177,3.4177,3.4177,4.0794,4.2586,4.4261,4.4807,4.5137,4.6191,4.9146,4.9439,4.9366,4.9862,4.9336,4.8175,4.6129,4.5771,4.5395,4.4245,4.4129,4.3838,4.3838,4.447,4.4936,4.4936,4.5602,4.6068,4.6018,4.6001,4.6018,4.6018,4.6068,4.6068,4.6018,4.6018,4.6018,4.6018,4.6734,4.7116,4.7116,4.7865,4.8248,4.8032,4.4689,4.0505,3.5981,3.654,3.6787,3.6605,3.5311,3.4851,3.4624,3.2777,3.209,3.1861,3.0054,2.9372,2.9141,2.7306,2.6608,2.6608,2.6608,2.6608,2.6608,2.6608,2.6608,2.6608,2.6608,2.6608,2.6608,2.6608,2.6608,2.6608,2.6608,2.6608,2.6608,2.6608,2.6608,2.6608,2.6608,2.6608,2.6608,2.6608,2.7993,2.9372,2.9382,3.0965,3.209,3.209,3.209,3.209,3.209,3.209,3.2595,3.3918,3.408,3.4537,3.5779,3.5955,3.5709,3.5124,3.5085,3.4813,3.4203,3.4177,3.4177,3.4177,3.4177,3.4177,3.4177,3.4177,3.4177,3.4177,3.4177,3.4177,3.7681,4.0908,4.3637,4.1947,4.4865,4.7982,4.7476,4.7732,4.8337,4.9258,4.8647,4.7101,4.5261,4.526,4.5214,4.4331,4.3919,4.4017,4.4017,4.4021,4.4171,4.4171,4.4387,4.4736,4.5219,4.5269,4.5469,4.5968,4.6018,4.6018,4.6001,4.6001,4.6001,4.6001,4.6234,4.6351,4.6351,4.5313,4.4373,4.333,4.0953,3.9036,3.762,3.676,3.6215,3.6215,3.5729,3.5574,3.5354,3.3791,3.2908,3.2944,3.1491,3.072,3.0537,2.903,2.8457,2.8225,2.7074,2.6608,2.6608,2.6608,2.6608,2.6608,2.6608,2.6608,2.6608,2.6608,2.6608,2.6608,2.6608,2.6608,2.6608,2.6608,2.6608,2.6608,2.6608,2.6608,2.6608,2.6608,2.7074,2.7529,2.7529,2.891,3.017,2.9845,3.0936,3.148,3.1358,3.1313,3.1478,3.1772,3.2881,3.3997,3.5185,3.5358,3.5098,3.4501,3.4462,3.4384,3.419,3.4177,3.4177,3.4177,3.4177,3.4177,3.4177,3.4177,3.4177,3.4177,3.4177,3.4177,3.6785,3.9588,4.1955,4.118,4.4287,4.7063,4.5345,4.5709,4.6929,4.7578,4.7092,4.621,4.5287,4.5351,4.5448,4.5476,4.4607,4.3894,4.3984,4.4017,4.4017,4.4017,4.4017,4.4004,4.447,4.452,4.4703,4.5153,4.5169,4.5169,4.5169,4.5169,4.4967,4.4359,4.4621,4.4531,4.3694,4.2928,4.1556,3.9209,3.8168,3.7541,3.6926,3.5926,3.5618,3.5631,3.5852,3.5943,3.5943,3.4851,3.4405,3.4226,3.3439,3.2455,3.0935,2.8764,2.7965,2.7738,2.6606,2.6149,2.6149,2.6149,2.6149,2.6186,2.6342,2.6388,2.6415,2.6562,2.6608,2.6535,2.6232,2.6149,2.6149,2.6149,2.6149,2.6149,2.6149,2.6149,2.6149,2.6149,2.6149,2.6149,2.6149,2.7063,2.7867,2.7592,2.8449,2.9228,2.8935,2.8893,2.9113,2.9771,3.1144,3.2779,3.4578,3.4735,3.4579,3.4203,3.3548,3.3548,3.4177,3.4177,3.4177,3.4177,3.4177,3.4177,3.4177,3.4177,3.406,3.3865,3.3865,3.3735,3.7739,3.8523,3.929,4.1574,4.3191,4.3973,4.29,4.392,4.515,4.5018,4.4894,4.5141,4.5843,4.5831,4.6085,4.7259,4.5536,4.4054,4.4028,4.39,4.3883,4.3933,4.3933,4.3967,4.4017,4.4017,4.4017,4.4017,4.3821,4.3821,4.3821,4.3625,4.2838,4.124,4.1851,4.1554,3.989,4.0721,3.9388,3.6392,3.6392,3.5593,3.4203,3.4761,3.5021,3.5047,3.5592,3.5813,3.5813,3.5813,3.5598,3.5598,3.5383,3.3213,2.9958,2.6707,2.5396,2.5396,2.5396,2.5396,2.5396,2.5396,2.5396,2.5469,2.5864,2.5984,2.6057,2.6415,2.6525,2.6351,2.5598,2.5396,2.5396,2.5396,2.5396,2.5396,2.5396,2.5396,2.5396,2.5396,2.5396,2.5396,2.5396,2.5396,2.5387,2.5359,2.5359,2.535,2.5313,2.5313,2.5968,2.7502,2.8854,3.0539,3.3394,3.3767,3.3767,3.3767,3.2302,3.2302,3.3767,3.3972,3.3972,3.3972,3.4177,3.4151,3.4112,3.4112,3.3826,3.3268,3.3268,3.2982,3.5744,3.7343,3.8897,3.8687,4.0388,4.2044,4.2415,4.3321,4.3847,4.333,4.3623,4.3926,4.349,4.4248,4.5125,4.5814,4.513,4.4405,4.4019,4.4209,4.4258,4.4054,4.4122,4.3977,4.3967,4.4017,4.4017,4.4017,4.2641,4.2049,4.2049,4.0827,4.003,3.9645,3.9781,3.9655,3.9252,3.94,3.7906,3.4777,3.4777,3.4573,3.419,3.4319,3.4384,3.4397,3.4527,3.4592,3.4592,3.332,3.2695,3.2474,2.9737,2.8493,2.7783,2.616,2.5396,2.5396,2.5396,2.5396,2.5396,2.5396,2.5396,2.5423,2.5515,2.5543,2.5561,2.5653,2.568,2.5644,2.5451,2.5396,2.5396,2.5396,2.5396,2.5396,2.5396,2.5396,2.5396,2.5396,2.5396,2.5396,2.5396,2.5396,2.5295,2.5001,2.4955,2.4835,2.4505,2.4468,2.4673,2.4887,2.6483,2.7637,2.8359,2.9598,3.0429,3.0429,3.0014,3.0014,3.0222,3.1683,3.2302,3.2302,3.3548,3.3969,3.3527,3.3527,3.3242,3.267,3.267,3.2605,3.5887,3.7185,3.8071,3.6684,3.7662,3.9086,3.9541,4.0566,4.1307,4.087,4.1439,4.2123,4.2484,4.3751,4.4553,4.4601,4.4132,4.3922,4.409,4.421,4.4055,4.3592,4.3778,4.3892,4.3621,4.3827,4.4017,4.4017,4.3035,4.2641,4.2641,4.1835,4.0628,3.9029,3.9029,3.8427,3.6812,3.6812,3.6,3.4177,3.4177,3.4177,3.4177,3.4177,3.4177,3.4177,3.4177,3.4177,3.4177,3.3138,3.2302,3.1464,2.9598,2.809,2.6866,2.6256,2.5487,2.4835,2.4835,2.4835,2.4835,2.4835,2.4835,2.4881,2.5074,2.5129,2.5175,2.535,2.5129,2.4835,2.4835,2.4835,2.4835,2.4835,2.4835,2.4835,2.4835,2.4835,2.4835,2.4835,2.4835,2.4835,2.4835,2.4835,2.4762,2.456,2.4523,2.4441,2.4211,2.4183,2.4386,2.5221,2.6053,2.6883,2.7721,2.8557,2.9182,2.9182,2.8348,2.8754,3.0222,3.0209,3.0708,3.1321,3.2104,3.2243,3.1954,3.2745,3.2644,3.2086,3.2086,3.1943,3.678,3.7074,3.677,3.5365,3.5536,3.5931,3.62,3.732,3.8402,3.8649,3.9294,4.0263,4.1857,4.3271,4.3992,4.3493,4.3341,4.3398,4.3898,4.3982,4.3841,4.3266,4.3672,4.3801,4.3216,4.3666,4.4017,4.4017,4.3429,4.3232,4.3232,4.2625,4.1224,3.8427,3.8427,3.7014,3.4177,3.4177,3.4177,3.4177,3.4177,3.4177,3.4177,3.4177,3.4177,3.4177,3.4177,3.4177,3.4177,3.3972,3.2932,3.1671,3.1051,2.9182,2.6673,2.6264,2.5432,2.4183,2.4183,2.4183,2.4183,2.4183,2.4183,2.4248,2.4615,2.4716,2.479,2.512,2.4716,2.4183,2.4183,2.4183,2.4183,2.4183,2.4183,2.4183,2.4183,2.4183,2.4183,2.4183,2.4183,2.4183,2.4183,2.4183,2.4183,2.4183,2.4183,2.4183,2.4183,2.4183,2.4597,2.6053,2.6264,2.6893,2.8348,2.8348,2.8348,2.8348,2.7103,2.748,3.0313,2.8683,2.8641,3.0177,3.0148,2.9896,2.9813,3.1362,3.1663,3.1124,3.1502,3.1242,3.5249,3.5308,3.5327,3.508,3.5099,3.5365,3.5931,3.6409,3.6998,3.8421,3.882,3.92,4.0187,4.1752,4.2657,4.1724,4.2648,4.3441,4.3292,4.3922,4.4387,4.4021,4.409,4.3999,4.3843,4.3883,4.4017,4.4017,4.1423,3.983,3.983,3.7202,3.5389,3.4981,3.4995,3.479,3.4177,3.4177,3.4177,3.4177,3.4177,3.4177,3.4177,3.4177,3.4177,3.4177,3.4177,3.4177,3.4177,3.2714,3.1877,3.1464,2.8557,2.7093,2.6474,2.5019,2.4386,2.4183,2.4183,2.4183,2.4183,2.4183,2.4183,2.4193,2.4257,2.4275,2.4284,2.4349,2.4275,2.4183,2.4183,2.4183,2.4183,2.4183,2.4183,2.4183,2.4183,2.4183,2.4183,2.4183,2.4183,2.4183,2.4183,2.4183,2.4183,2.4183,2.4183,2.4183,2.4183,2.4183,2.4174,2.4386,2.4597,2.4597,2.4808,2.4808,2.4808,2.4808,2.4597,2.4657,2.4722,2.4439,2.4843,2.6256,2.7563,2.8117,2.7697,2.9058,2.9569,2.9045,3.0348,3.0852,3.5004,3.5625,3.639,3.639,3.5644,3.5099,3.5479,3.5896,3.6309,3.7206,3.808,3.882,3.9218,4.0319,4.1022,4.0642,4.1616,4.2277,4.2101,4.2938,4.3633,4.342,4.3795,4.3909,4.3452,4.3759,4.3625,4.2641,4.124,4.0045,3.9029,3.7621,3.6406,3.5579,3.5389,3.4981,3.4177,3.4177,3.4177,3.4177,3.4177,3.4177,3.4177,3.4177,3.4177,3.4177,3.3343,3.3343,3.3972,3.1464,3.0222,3.0014,2.7512,2.6053,2.5221,2.4386,2.4183,2.4183,2.4183,2.4183,2.4183,2.4183,2.4183,2.4183,2.4183,2.4183,2.4183,2.4183,2.4183,2.4183,2.4183,2.4183,2.4183,2.4183,2.4183,2.4183,2.4183,2.4183,2.4183,2.4183,2.4183,2.4183,2.4183,2.4183,2.4183,2.4183,2.4183,2.4183,2.4183,2.4183,2.4183,2.4183,2.4183,2.4183,2.4183,2.4183,2.4092,2.388,2.3862,2.3678,2.3274,2.345,2.3448,2.3018,2.3751,2.4492,2.5074,2.7165,2.7993,2.7793,2.9838,2.9838,3.5612,0.0,3.726,3.7413,3.6379,3.5323,0.0,3.5783,3.5991,3.6181,3.7244,3.825,3.8649,3.9237,3.975,3.994,4.0547,4.1013,4.1064,4.1803,4.2555,4.2738,4.3369,4.3447,4.306,4.3164,4.2838,4.1454,4.0643,3.963,3.8628,3.8225,3.7404,3.5986,3.5986,3.5389,3.4177,3.4177,3.4177,3.4177,3.4177,3.4177,3.4177,3.4177,3.4177,3.4177,3.2932,3.2932,3.3972,3.1051,2.9587,2.8974,2.7302,2.5632,2.4183,2.4183,2.4183,2.4183,2.4183,2.4183,2.4183,2.4183,2.4183,2.4183,2.4183,2.4183,2.4183,2.4183,2.4183,2.4183,2.4183,2.4183,2.4183,2.4183,2.4183,2.4183,2.4183,2.4183,2.4183,2.4183,2.4183,2.4183,2.4183,2.4183,2.4183,2.4183,2.4183,2.4183,2.4183,2.4183,2.4183,2.4183,2.4183,2.4183,2.4183,2.3588,2.2937,2.2645,2.2627,2.245,2.2042,2.2606,2.2019,2.0269,2.036,2.097,2.2292,2.454,2.5667,2.57,2.8328,2.8328,0.0,3.6746,3.6371,3.7309,3.6739,3.6329,3.7179,3.6162,0.0,3.5931,3.6314,3.6884,3.8421,3.8763,3.9048,3.9845,4.0035,4.0335,4.099,4.1087,4.1449,4.2033,4.2711,4.3077,4.2957,4.2185,4.1454,4.1454,3.8613,3.6798,3.6798,3.5389,3.4586,3.4381,3.4381,3.4381,3.4177,3.4177,3.4177,3.4177,3.4177,3.4177,3.4177,3.4177,3.4177,3.4177,3.4177,3.4177,3.4177,3.2302,3.0636,2.8974,2.7302,2.5632,2.4183,2.4183,2.4183,2.4183,2.4183,2.4183,2.4183,2.4183,2.4183,2.4183,2.4183,2.4183,2.4183,2.4183,2.4183,2.4183,2.4183,2.4183,2.4183,2.4183,2.4183,2.4183,2.4183,2.4183,2.4183,2.4183,2.4183,2.4183,2.4183,2.4183,2.4183,2.4183,2.4183,2.4183,2.4183,2.4183,2.4183,2.4183,2.4183,2.4183,2.4183,2.164,2.0219,2.0195,2.0195,1.9825,1.9466,1.9639,1.929,1.8755,1.8916,1.89,1.89,2.0588,2.1332,2.1523,2.4362,2.5689,3.7464,3.732,3.7246,3.806,3.7605,3.6909,3.6792,3.6571,3.6358,3.5537,3.5878,3.6409,3.7054,3.7605,3.8231,3.9048,3.9181,3.9448,4.0293,4.1087,4.1718,4.1962,4.2837,4.3582,4.3582,4.2317,4.1041,4.0045,3.7808,3.6189,3.5185,3.4573,3.4177,3.4177,3.4177,3.4177,3.4177,3.4177,3.4177,3.4177,3.4177,3.4177,3.4177,3.4177,3.4177,3.4177,3.3138,3.2714,0.0,2.9598,2.8139,2.7302,2.5632,2.4597,2.4183,2.4183,2.4183,2.4183,2.4183,2.4183,2.4183,2.4183,2.4183,2.4183,2.4183,2.4183,2.4183,2.4183,2.4183,2.4183,2.4183,2.4183,2.4183,2.4183,2.4183,2.4183,2.4183,2.4183,2.4183,2.4183,2.4183,2.4183,2.4183,2.4183,2.3972,2.3336,2.3751,2.3539,2.2274,2.2699,2.2912,2.2053,2.1844,2.1618,2.1391,2.0512,1.9655,1.9426,1.9418,1.926,1.8921,1.8307,1.7859,1.7739,1.6976,1.6783,1.6783,1.83,1.9442,2.0033,2.2851,2.3617,3.7396,3.7231,3.7346,3.8045,3.7746,3.6971,3.6665,3.668,3.6443,3.5175,3.546,3.5915,3.6181,3.6694,3.7358,3.8193,3.8326,3.8706,3.9826,4.0499,4.1073,4.1744,4.252,4.284,4.2548,4.0848,3.943,3.8427,3.6798,3.5389,3.4177,3.4177,3.4099,3.3917,3.3904,3.3995,3.4177,3.4177,3.4177,3.4177,3.4177,3.4177,3.4177,3.4177,3.4177,3.4177,3.2919,3.2508,3.2302,3.0014,2.8765,2.8139,2.6893,2.6264,2.5642,2.5642,2.5432,2.4799,2.4799,2.4597,2.4183,2.4183,2.4183,2.4183,2.4183,2.4183,2.4183,2.4183,2.4183,2.4183,2.4183,2.4183,2.4183,2.4183,2.4183,2.4183,2.4183,2.4183,2.4183,2.4183,2.4183,2.4183,2.4183,2.376,2.3327,2.2699,2.2799,2.2299,2.0821,2.1365,2.1299,2.067,2.0239,1.975,1.8817,1.8488,1.8323,1.8083,1.8076,1.7979,1.7761,1.6969,1.6576,1.6576,1.6011,1.5625,1.5625,1.6576,1.7539,1.8323,2.0007,2.0389,3.7213,3.6762,3.6438,3.7293,3.6868,3.6401,3.7323,3.6297,3.4998,3.5023,3.5004,3.5251,3.6067,3.6082,3.6485,3.7339,3.7491,3.808,3.9731,3.9257,3.9407,4.1009,4.0935,4.0505,3.9668,3.7648,3.6567,3.6567,3.5159,3.4164,3.4164,3.4164,3.3904,3.3346,3.3333,3.3592,3.4151,3.4164,3.4164,3.4164,3.4164,3.4177,3.4177,3.4177,3.4177,3.4177,3.4177,3.4177,3.4177,3.4177,3.3138,3.1671,3.1671,3.0636,2.9182,2.9182,2.8139,2.6684,2.6684,2.5432,2.4183,2.4183,2.4183,2.4183,2.4183,2.4183,2.4183,2.4183,2.4183,2.4183,2.4183,2.4174,2.4174,2.4174,2.4174,2.4165,2.4165,2.4165,2.4165,2.4165,2.4165,2.4165,2.4165,2.3106,2.2478,2.2478,2.1316,2.0455,2.0455,1.9955,1.975,1.975,1.975,1.8802,1.6298,1.5803,1.5625,1.5625,1.5625,1.5625,1.5625,1.5625,1.5625,1.5625,1.5625,1.5625,1.5625,1.5625,1.5625,1.5625,1.5625,1.639,3.5627,3.5486,3.55,3.6337,3.6834,3.725,3.821,3.7583,3.6822,3.6809,3.5887,3.508,3.5327,3.5365,3.565,3.6466,3.7586,3.8725,3.9826,4.0554,4.1163,4.1628,4.1474,4.119,4.1057,4.0542,3.9176,3.7054,3.4531,3.2982,3.2982,3.2982,3.2904,3.2735,3.2722,3.2813,3.2982,3.2982,3.2982,3.2982,3.3384,3.3579,3.3592,3.3995,3.4177,3.4177,3.4177,3.3548,3.2508,3.2508,3.0636,2.8139,2.8139,2.7103,2.5632,2.5632,2.5221,2.4799,2.4799,2.4597,2.4183,2.4183,2.4183,2.4183,2.4183,2.4183,2.4183,2.4183,2.4183,2.4183,2.4183,2.3972,2.377,2.377,2.355,2.3125,2.2307,2.2102,2.1898,2.1282,2.1085,2.1085,2.1085,2.088,2.0469,1.963,1.975,1.9491,1.7845,1.8372,1.8314,1.7507,1.7122,1.6437,1.577,1.5677,1.5625,1.5625,1.5625,1.5625,1.5625,1.5625,1.5625,1.5625,1.5625,1.5625,1.5625,1.5625,1.5625,1.5625,1.5625,1.5818,3.5078,3.5067,3.5167,3.5599,3.6058,3.6748,3.7509,3.7073,3.6591,3.6797,3.5894,3.5004,3.5004,3.5513,3.6012,3.6127,3.7548,3.8966,3.9754,4.025,4.0829,4.1442,4.1379,4.1007,4.0252,3.9936,3.8763,3.6308,3.3821,3.2281,3.1813,3.1787,3.1904,3.2125,3.2138,3.2242,3.2476,3.2476,3.2476,3.2476,3.2826,3.2995,3.3008,3.3346,3.3501,3.3501,3.3501,3.3013,3.239,3.239,3.1285,2.9587,2.9587,2.8974,2.8139,2.8139,2.7302,2.6053,2.6053,2.5221,2.4183,2.4183,2.4183,2.4183,2.4183,2.4183,2.4183,2.4183,2.4183,2.4183,2.4183,2.3588,2.2955,2.2381,2.2041,2.1561,2.0956,2.0762,2.056,1.9952,1.975,1.975,1.975,1.9547,1.8923,1.8306,1.8413,1.7944,1.6525,1.682,1.6937,1.6145,1.5836,1.5625,1.5625,1.5625,1.5625,1.5625,1.5625,1.5625,1.5625,1.5625,1.5572,1.5453,1.5447,1.5394,1.5288,1.5288,1.5288,1.5288,1.5288,1.5288,3.5132,3.5067,3.5067,3.5067,3.5067,3.522,3.5961,3.5616,3.5366,3.6093,3.5786,3.5266,3.5266,3.6579,3.7519,3.6661,3.7965,3.9208,3.9929,3.9321,3.9281,4.0834,4.0758,3.9899,3.8227,3.7474,3.6323,3.4633,3.3286,3.2056,3.0826,3.0774,3.1008,3.1541,3.1554,3.18,3.2307,3.232,3.232,3.232,3.2372,3.2398,3.2398,3.245,3.2476,3.2476,3.2476,3.2761,3.3255,3.3255,3.3553,3.3817,3.3817,3.3804,3.3613,3.3446,3.1392,2.8908,2.8743,2.6673,2.4183,2.4183,2.3917,2.3652,2.3652,2.3652,2.3652,2.3688,2.3706,2.3715,2.3751,2.3124,2.1961,2.0719,1.9923,1.9655,1.9655,1.9655,1.9655,1.9453,1.9453,1.9453,1.9453,1.8637,1.8016,1.8016,1.6992,1.6033,1.6033,1.5796,1.5625,1.5625,1.5625,1.5625,1.5625,1.5625,1.5625,1.5625,1.5625,1.5611,1.5585,1.5585,1.5447,1.515,1.5143,1.5025,1.4774,1.4774,1.4774,1.4774,1.4774,1.4774,3.4967,3.5067,3.5067,3.5067,3.5067,3.5491,3.7563,3.6882,3.6302,3.8118,3.8076,3.765,3.765,3.8688,3.9465,3.9317,4.057,4.1844,4.1926,4.2297,4.2364,4.1842,4.1163,3.9838,3.7698,3.7283,3.6272,3.3524,3.3154,3.2306,3.0774,3.0774,3.0826,3.0943,3.0956,3.1008,3.1125,3.1125,3.1125,3.1138,3.1593,3.1813,3.1826,3.2268,3.2476,3.2476,3.2476,3.254,3.2657,3.2657,3.1924,3.0839,3.0839,3.0033,2.8684,2.7862,2.7183,2.6413,2.5525,2.4799,2.4183,2.4183,2.2503,2.079,2.079,2.079,2.0847,2.1118,2.1201,2.1266,2.1562,2.1423,2.1049,2.0215,1.9386,1.8742,1.7949,1.7747,1.7364,1.6591,1.6396,1.6396,1.6396,1.62,1.62,1.62,1.5958,1.5723,1.5723,1.5671,1.5625,1.5625,1.5625,1.5625,1.5625,1.5625,1.5625,1.5625,1.5625,1.5519,1.5288,1.5282,1.5143,1.4866,1.486,1.4833,1.4774,1.4774,1.4774,1.4774,1.4774,1.4774,3.5067,3.5067,3.5067,3.5067,3.5067,3.5458,3.699,3.6278,3.6033,3.7713,3.709,3.6494,3.7427,3.8241,3.9039,3.9596,4.1337,4.2434,4.239,4.2579,4.2761,4.2242,4.0815,3.9394,3.8156,3.6372,3.4571,3.3132,3.2401,3.1852,3.1852,3.113,3.0774,3.0774,3.0774,3.0774,3.0774,3.0774,3.0774,3.0774,3.1073,3.1216,3.1229,3.1528,3.1657,3.1657,3.1657,3.1813,3.2073,3.2073,3.1636,3.1084,3.1084,3.0693,2.9736,2.8616,2.7715,2.6953,2.495,2.3793,2.2976,2.2363,2.1069,1.975,1.975,1.975,1.9789,2.0168,2.0215,2.0057,2.0239,1.9862,1.9524,1.9019,1.8043,1.7169,1.6425,1.639,1.6197,1.5625,1.5625,1.5625,1.5625,1.5625,1.5625,1.5625,1.5625,1.5625,1.5625,1.5625,1.5431,1.4844,1.4851,1.4651,1.407,1.407,1.4016,1.3886,1.4453,1.4525,1.4255,1.48,1.4853,1.4563,1.4563,1.4491,1.4346,1.4346,1.4346,1.4346,1.4346,1.4346,3.467,3.4736,3.4753,3.4893,3.5067,3.5115,3.5742,3.5612,3.5382,3.6582,3.5658,3.5275,3.6923,3.7861,3.8706,3.9736,4.1213,4.2238,4.2128,4.227,4.2191,4.1986,4.0228,3.8995,3.8471,3.5455,3.356,3.3493,3.196,3.1542,3.2629,3.1374,3.0658,3.0476,3.058,3.0671,3.0774,3.0774,3.0774,3.0774,3.0774,3.0774,3.0774,3.0774,3.0774,3.0774,3.0774,3.1047,3.1476,3.13,3.1571,3.1984,3.1791,3.1598,3.161,3.0545,2.9005,2.7442,2.5125,2.3153,2.1544,1.9607,1.9166,1.9166,1.9166,1.9166,1.9182,1.9243,1.9259,1.9274,1.9328,1.8524,1.7828,1.7528,1.6669,1.5994,1.5691,1.5625,1.5625,1.5625,1.5625,1.5625,1.5625,1.5625,1.5625,1.5625,1.5625,1.5625,1.5625,1.5625,1.5238,1.407,1.407,1.3465,1.2454,1.2642,1.254,1.2492,1.3232,1.368,1.3609,1.4331,1.4557,1.4253,1.4247,1.4128,1.3878,1.3878,1.3878,1.3878,1.3878,1.3878,3.3281,3.3474,3.3791,3.4753,3.5067,3.5115,3.5742,3.5886,3.5978,3.667,3.7758,3.8609,3.8824,4.0337,4.1503,4.1501,4.193,4.2164,4.2221,4.2129,4.1911,4.1322,4.0997,3.9974,3.7949,3.6607,3.5676,3.4895,3.353,3.2201,3.1189,3.1029,3.0345,2.9307,2.9788,3.0268,3.0761,3.0774,3.0774,3.0774,3.0774,3.0774,3.0774,3.0774,3.0774,3.0774,3.0774,3.0813,3.0693,2.9976,2.9654,2.9716,2.8755,2.8368,2.824,2.7154,2.5944,2.424,2.3042,2.1561,1.9647,1.7081,1.6133,1.6133,1.6133,1.6133,1.6187,1.6457,1.6531,1.6585,1.6835,1.6896,1.6619,1.6338,1.6278,1.5994,1.5691,1.5625,1.5625,1.5625,1.5625,1.5625,1.5625,1.5625,1.5625,1.5625,1.5625,1.5625,1.5625,1.5625,1.5238,1.407,1.407,1.359,1.2411,1.2963,1.3425,1.3179,1.4086,1.4513,1.422,1.4385,1.4247,1.3943,1.3937,1.3924,1.3878,1.3878,1.3878,1.3878,1.3878,1.3878,3.2379,3.2838,3.33,3.3933,3.4422,3.504,3.542,3.5399,3.5542,3.6127,3.6456,3.6971,3.8222,3.8888,3.9735,4.1001,4.1429,4.1774,4.2278,4.2337,4.2295,4.1945,4.0813,3.931,3.7844,3.6163,3.476,3.387,3.3638,3.3442,3.334,3.2486,3.1457,3.0117,3.0359,3.0261,2.9827,2.9827,2.9827,2.9827,2.9827,2.9827,2.9827,2.9827,2.9995,3.0294,3.0294,3.0476,3.059,2.9678,2.9319,2.9319,2.8178,2.7793,2.763,2.6551,2.5868,2.4733,2.2032,2.014,1.8317,1.6286,1.5625,1.5625,1.5625,1.5625,1.5658,1.5789,1.5822,1.5849,1.5974,1.6007,1.5974,1.5849,1.5822,1.5789,1.5658,1.5625,1.5625,1.5625,1.5625,1.5625,1.5625,1.5625,1.5625,1.5625,1.5625,1.5513,1.5189,1.4581,1.4018,1.2884,1.232,1.1526,1.0494,1.0671,1.0955,1.0741,1.163,1.1882,1.1812,1.2325,1.2627,1.2877,1.2877,1.3228,1.3764,1.2698,1.2864,1.3745,1.3031,1.3024,3.14,3.206,3.2794,3.2715,3.3617,3.4579,3.4579,3.4736,3.5199,3.5655,3.5402,3.5722,3.7278,3.7716,3.8379,4.004,4.06,4.0948,4.1446,4.1542,4.1383,4.1344,3.9712,3.8226,3.7774,3.5975,3.4321,3.3472,3.4017,3.446,3.4684,3.332,3.1809,3.0498,3.0308,2.9874,2.8866,2.9021,2.9086,2.9086,2.9086,2.9086,2.9086,2.9086,2.932,2.9353,2.9353,2.9404,2.9605,2.852,2.8237,2.8358,2.7234,2.6931,2.7046,2.613,2.5555,2.4801,2.1759,2.0033,1.8684,1.6776,1.6197,1.6004,1.5625,1.5625,1.5625,1.5625,1.5625,1.5625,1.5625,1.5625,1.5625,1.5625,1.5625,1.5625,1.5625,1.5625,1.5625,1.5625,1.5625,1.5625,1.5625,1.5565,1.5493,1.542,1.5407,1.5067,1.446,1.367,1.2748,1.1647,1.0911,0.9973,0.9005,0.9001,0.9105,0.8919,0.9789,1.0073,0.9922,1.0604,1.1133,1.1852,1.1144,1.15,1.3092,1.1679,1.1668,1.2716,1.1829,1.1813,3.0276,3.1,3.203,3.1489,3.2331,3.33,3.3126,3.409,3.5034,3.495,3.6058,3.7009,3.7194,3.8406,3.9472,3.9318,3.9526,3.9437,3.8795,3.8654,3.8414,3.7908,3.7644,3.7644,3.7472,3.6749,3.5828,3.5009,3.4976,3.4487,3.3411,3.2118,3.0832,2.9415,2.8653,2.8268,2.8268,2.8814,2.9086,2.9086,2.9086,2.9086,2.9086,2.9086,2.8737,2.7875,2.7875,2.7361,2.6492,2.5619,2.5366,2.5791,2.4714,2.461,2.5001,2.5001,2.4046,2.2709,2.2529,2.2329,2.1759,1.8684,1.7724,1.7532,1.6004,1.5625,1.5625,1.5625,1.5625,1.5625,1.5625,1.5625,1.5625,1.5625,1.5625,1.5625,1.5625,1.5625,1.5625,1.5625,1.5625,1.5625,1.5625,1.5394,1.5117,1.4853,1.4814,1.4441,1.3676,1.2748,1.1647,1.0728,1.0544,0.9915,0.8647,0.9348,0.9798,0.9594,1.0446,1.0787,1.0263,1.0268,1.0619,1.1144,0.8511,0.8511,1.1149,1.1144,1.0619,0.9913,0.9913,0.9913,2.9298,2.9887,3.0564,3.009,3.1722,3.3141,3.3126,3.409,3.5067,3.5067,3.5754,3.6489,3.7038,3.8741,4.0214,4.0534,4.0917,4.097,4.0699,3.9949,3.9424,3.9146,3.9201,3.8745,3.7673,3.6299,3.538,3.505,3.5067,3.4753,3.4422,3.3933,3.3141,3.1692,3.0801,2.9788,2.8994,2.8393,2.7996,2.7996,2.7996,2.7996,2.7996,2.7996,2.8021,2.8002,2.8002,2.8033,2.8013,2.6433,2.5842,2.5824,2.4391,2.3776,2.4136,2.4257,2.4001,2.3208,2.1051,2.0216,1.9857,1.6917,1.5941,1.6093,1.5531,1.548,1.5625,1.5625,1.5625,1.5625,1.5625,1.5625,1.5625,1.5625,1.5625,1.5625,1.5625,1.5625,1.5625,1.5625,1.5625,1.5625,1.5625,1.5539,1.5374,1.5077,1.4016,1.2963,1.2076,1.1194,1.0492,0.9962,0.943,0.8874,0.8457,0.88,0.8945,0.8878,0.9229,0.9233,0.9064,0.7313,0.5567,0.4001,0.2956,0.2958,0.4008,0.6447,0.9251,1.2244,0.9931,0.9398,2.9769,3.0025,3.0298,3.0158,3.1029,3.2027,3.249,3.3617,3.4422,3.4736,3.574,3.6631,3.7179,3.8932,4.0398,4.1426,4.1295,4.12,4.1011,4.011,3.9372,3.8916,3.8763,3.8305,3.7228,3.6299,3.5676,3.5067,3.5067,3.5067,3.5067,3.4596,3.3949,3.3126,3.2012,3.0744,2.9332,2.8518,2.7864,2.7385,2.7385,2.7385,2.7385,2.7385,2.7415,2.7428,2.7428,2.7294,2.7106,2.5728,2.5151,2.496,2.3719,2.3284,2.364,2.3776,2.3797,2.328,2.1293,2.0519,2.0159,1.7658,1.671,1.6324,1.5775,1.5552,1.5341,1.5341,1.5341,1.5341,1.5341,1.5341,1.5341,1.5341,1.5341,1.5341,1.5341,1.5341,1.5341,1.5341,1.5341,1.5341,1.5341,1.5255,1.5124,1.4926,1.3426,1.2186,1.1402,1.0129,0.922,0.922,0.87,0.8358,0.8358,0.8358,0.8358,0.8362,0.8374,0.75,0.5577,0.3831,0.1916,0.0,0.0,0.0698,0.192,0.4365,0.7163,0.9969,0.82,0.8014,3.1445,3.1165,3.0998,3.1321,3.0408,2.9909,3.1487,3.2587,3.3379,3.4232,3.6126,3.7519,3.7519,3.8897,4.043,4.1648,4.0881,3.9959,3.943,3.9031,3.817,3.6644,3.6506,3.6506,3.6351,3.7074,3.6747,3.5067,3.505,3.5067,3.5067,3.3949,3.3316,3.3316,3.2012,3.0744,2.9332,2.9332,2.8681,2.7385,2.7385,2.7385,2.7385,2.7385,2.688,2.6031,2.6043,2.5027,2.3355,2.3355,2.3137,2.2719,2.2719,2.2991,2.3556,2.3556,2.3096,2.2782,2.3221,2.3378,2.32,2.1584,2.0141,1.8693,1.7264,1.5841,1.4957,1.4774,1.4774,1.4774,1.4774,1.4774,1.4774,1.4768,1.4774,1.4774,1.4774,1.4774,1.4774,1.4774,1.4774,1.4774,1.4774,1.4537,1.4346,1.4346,1.3204,1.2244,1.1434,0.9689,0.8358,0.8358,0.8358,0.8358,0.8358,0.8358,0.8362,0.8377,0.82,0.5751,0.0174,0.0,0.0,0.0,0.0,0.1746,0.5411,0.5411,0.4537,0.2616,0.4712,0.5588,2.7636,2.8612,2.9608,3.0319,3.0977,3.1607,3.2822,3.3897,3.4851,3.525,3.5642,3.6575,3.8133,3.9486,4.0692,4.1648,4.1499,4.133,4.1161,4.026,3.9524,3.9068,3.9068,3.8305,3.6506,3.6489,3.6161,3.5067,3.5554,3.571,3.5067,3.4736,3.4422,3.4422,3.3284,3.1692,2.9776,2.8803,2.7674,2.6373,2.6373,2.6702,2.7385,2.7385,2.7221,2.7044,2.6373,2.5701,2.5205,2.3854,2.3265,2.306,2.2407,2.2332,2.2436,2.2436,2.2353,2.2099,2.135,2.1048,2.0695,1.9302,1.8804,1.8501,1.8156,1.7811,1.7476,1.6387,1.6198,1.6198,1.6198,1.5491,1.495,1.6023,1.5484,1.4774,1.4774,1.4774,1.4774,1.4774,1.4774,1.4774,1.4774,1.4702,1.4649,1.4649,1.2799,1.1138,1.0336,0.9081,0.8358,0.8358,0.8358,0.8358,0.8358,0.8366,0.8374,0.8377,0.4531,0.1568,0.0,0.0,0.0,0.0,0.0,0.0524,0.1571,0.1571,0.1222,0.0873,0.4189,0.5588,2.6476,2.8063,2.9318,3.062,3.123,3.1718,3.1956,3.3251,3.4446,3.4062,3.519,3.6437,3.7691,3.9201,4.0561,4.1648,4.1349,4.1031,4.1161,4.0581,3.9808,3.9049,3.9675,3.9372,3.7555,3.7264,3.6937,3.6144,3.6178,3.6178,3.5554,3.4736,3.4248,3.4264,3.2967,3.1357,2.9114,2.8301,2.7157,2.5536,2.5536,2.5866,2.688,2.688,2.688,2.6715,2.5866,2.5205,2.4862,2.3688,2.3032,2.2709,2.2227,2.1892,2.1892,2.1892,2.1892,2.1892,2.1041,2.0516,1.9832,1.8977,1.8448,1.8112,1.761,1.7583,1.74,1.5977,1.5445,1.5445,1.5445,1.4926,1.457,1.5267,1.4919,1.4398,1.4398,1.4398,1.4398,1.4398,1.4398,1.4398,1.4398,1.4398,1.422,1.3864,1.1998,1.0258,0.9735,0.8874,0.8358,0.8358,0.8358,0.8358,0.8366,0.7313,0.6094,0.4879,0.0696,-0.122,-0.0,0.0,0.0,0.0,0.0,0.0,0.0,0.0,-0.1223,-0.3321,0.2792,0.5708,2.6714,2.8249,2.9391,3.1538,3.1516,3.084,0.0,3.2063,3.3425,3.2616,3.4793,3.7038,3.7234,3.879,4.0349,4.1459,4.075,4.011,4.0222,4.0091,3.9524,3.7827,3.8897,3.9524,3.8611,3.8611,3.8287,3.7519,3.6937,3.6489,3.6351,3.4405,3.3126,3.3316,3.2012,3.0246,2.7988,2.7811,2.6829,2.4696,2.453,2.5027,2.5866,2.5866,2.5866,2.5866,2.5027,2.4198,2.3355,2.3188,2.2709,2.1892,2.1892,2.1892,2.1892,2.1892,2.1892,2.1724,2.1902,2.1041,1.9832,2.001,1.8977,1.7612,1.6437,1.6104,1.5933,1.4392,1.4049,1.4049,1.4049,1.3878,1.3878,1.4049,1.3878,1.3878,1.3878,1.3878,1.3878,1.3878,1.3878,1.3878,1.3878,1.3706,1.3362,1.2324,1.0772,0.9735,0.9566,0.8874,0.8358,0.8358,0.8358,0.8362,0.8374,0.574,0.2606,-0.0697,-0.3309,-0.3312,-0.0175,0.0,0.0,0.0,0.0,-0.0175,-0.0524,-0.122,-0.3832,-0.8207,-0.0173,0.4417,0.0,0.0,0.0,0.0,0.0,0.0,0.0,3.4415,3.5046,3.6106,3.6741,3.7635,3.8877,3.9434,3.9908,4.0349,4.0129,3.9827,3.9049,3.9675,3.9675,3.8611,3.8763,3.8611,3.7827,3.8305,3.8287,3.7519,3.7998,3.7709,3.6351,3.4893,3.3933,3.33,3.2012,3.0246,2.7988,2.7307,2.6159,2.4696,2.402,2.402,2.5027,2.5027,2.5027,2.4862,2.4696,2.4198,2.3188,2.2541,2.206,2.1892,2.1892,2.1892,2.1892,2.1892,2.1377,2.0525,2.1556,2.0347,1.846,1.9663,1.8977,1.7782,1.7612,1.7443,1.7281,1.5933,1.5591,1.5591,1.5591,1.4735,1.4049,1.5249,1.4564,1.3878,1.3878,1.3878,1.3878,1.3878,1.3878,1.3878,1.3878,1.319,1.2152,1.0426,0.9908,0.9393,0.87,0.8527,0.8358,0.8358,0.8358,0.8358,0.8362,0.5043,0.0174,-0.6276,-0.7333,-0.5239,-0.0175,0.0,0.0,0.0,0.0,-0.1218,-0.3483,-0.8585,-1.0238,-0.8357,-0.8725,-0.3632,0.0,0.0,0.0,0.0,0.0,0.0,0.0,0.0,0.0,0.0,0.0,3.671,3.8157,0.0,3.9636,3.9838,4.0002,3.9827,3.9372,3.9827,3.9675,3.8763,3.9068,3.922,3.8745,3.9068,3.922,3.8745,3.8152,3.7383,3.6644,3.3916,3.2346,3.1867,3.0261,2.864,2.7018,2.6513,2.5841,2.4696,2.4198,2.453,2.5358,2.4862,2.4696,2.4696,2.4186,2.3532,2.2541,2.2227,2.1892,2.1892,2.1892,2.1892,2.1892,2.1209,2.0525,2.001,2.0,1.8639,1.6949,1.7799,1.7459,1.677,1.6089,1.643,1.66,1.5249,1.4907,1.5078,1.577,1.542,1.5078,1.577,1.542,1.4735,1.3878,1.3878,1.3878,1.3878,1.3362,1.319,1.319,1.233,1.129,0.9908,0.9393,0.8874,0.8358,0.8358,0.829,0.8292,0.844,0.844,0.8284,0.4047,-0.0681,-0.5217,-0.733,-0.6459,-0.2266,-0.2072,-0.206,-0.2059,-0.3222,-0.5058,-0.7431,-1.0549,-1.1507,-1.0337,-0.9787,-0.6237,0.0,0.0,0.0,0.0,0.0,0.0,0.0,0.0,0.0,0.0,0.0,0.0,0.0,0.0,0.0,3.9533,3.9561,3.9638,3.9808,3.9826,3.943,3.8827,3.9411,3.9978,3.9978,3.9978,3.9978,3.9656,3.8152,3.6919,3.6627,3.2967,3.0905,3.0744,2.8667,2.7195,2.6525,2.6196,2.5701,2.4862,2.4696,0.0,2.5701,2.4862,2.4364,2.4364,2.3521,2.2709,2.1892,2.1892,2.1892,2.1892,2.1892,2.1892,2.1892,2.0862,2.001,1.9494,1.8977,1.7459,1.5933,1.6275,1.6104,1.5599,1.4221,1.4735,0.0,1.4564,1.4386,1.4899,1.6104,1.6275,1.6275,1.6275,1.6104,1.5591,1.4392,1.4049,1.3878,1.3878,1.319,1.2668,1.2502,1.1462,1.0569,0.9975,0.9,0.8334,0.8434,0.8487,0.8422,0.8308,0.8279,0.8283,0.7796,0.2954,-0.0831,-0.2602,-0.6226,-0.7412,-0.5162,-0.4892,-0.4839,-0.5003,-0.7209,-0.9138,-1.0716,-1.0819,-1.129,-1.1964,-0.906,-0.7135,0.0,0.0,0.0,0.0,0.0,0.0,0.0,0.0,0.0,0.0,0.0,0.0,0.0,0.0,0.0,0.0,3.8626,3.8233,3.8805,3.8886,3.8858,3.8711,3.9522,3.9978,3.9978,3.9978,3.9505,3.8421,3.8115,3.7193,3.538,3.3601,0.0,0.0,0.0,2.8314,2.8314,2.6854,2.6043,2.5866,2.5027,2.4696,2.4862,2.3854,2.3521,2.3355,2.2552,2.206,2.1892,2.1892,2.1892,2.1892,2.1892,2.1892,2.1892,2.1724,2.0179,1.846,2.0694,0.0,0.0,1.7281,1.6941,1.5599,1.4221,1.4735,1.5933,1.577,1.66,1.7434,1.7612,1.7612,1.7612,1.7612,1.6778,1.5933,1.577,1.4735,1.3878,1.3878,1.3706,1.3362,1.2496,1.0945,0.9956,1.0245,0.9175,0.8414,0.876,0.8502,0.8342,0.8302,0.8298,0.0,0.6053,0.2334,-0.083,-0.2602,-0.6227,-0.8254,-0.7921,-0.7268,-0.7175,-0.7322,-0.9372,-1.0512,-1.0753,-1.2199,-1.2413,-1.1568,-1.06,-0.9065,0.0,0.0,0.0,0.0,0.0,0.0,0.0,0.0,0.0,0.0,0.0,0.0,0.0,0.0,0.0,0.0,3.7852,3.7883,3.7054,3.6413,3.594,3.5466,3.608,3.6591,3.6591,3.6988,3.6939,3.6486,3.6143,3.5642,3.472,3.2475,3.1051,3.073,2.8816,2.7851,2.7851,2.7195,2.688,2.688,2.5866,2.5536,2.537,2.402,2.3355,2.3188,2.2385,2.1892,2.1892,2.1892,2.1892,2.1892,0.0,0.0,0.0,0.0,1.9494,1.7782,1.7451,1.6096,1.4735,1.5413,1.5071,1.4564,1.4049,1.4735,1.577,1.4907,1.6259,1.7943,1.7943,1.846,1.9146,1.9146,1.8648,1.7799,1.6275,1.542,1.4735,1.3878,1.3362,0.0,1.2502,1.1807,1.1054,1.002,0.9462,0.8991,0.8667,0.8353,0.8345,0.8407,0.8299,0.7949,0.7223,0.2801,0.0,0.0,0.0,-0.813,-0.8021,-0.7782,0.0,0.0,0.0,-0.9882,-1.0376,-1.116,0.0,0.0,-1.0466,-0.8645,0.0,0.0,0.0,0.0,0.0,0.0,0.0,0.0,0.0,0.0,0.0,0.0,0.0,0.0,0.0,0.0,3.652,3.655,3.5965,3.5154,3.4628,3.4842,3.4543,3.4483,3.5307,3.5196,3.48,3.4501,3.4118,3.3662,3.3336,3.115,2.9815,3.0002,2.8422,2.7543,2.77,2.7536,2.7221,2.7044,2.6373,2.5866,2.5701,2.402,2.3355,2.3188,2.2385,2.1892,2.1892,2.1892,2.1892,2.1892,2.0862,2.1209,2.1892,2.0862,1.9663,1.8122,1.5747,1.4728,1.4392,1.4392,1.4392,1.4392,1.3878,1.4735,1.577,1.4735,1.6089,1.7943,1.7943,1.8977,2.001,2.001,1.9663,1.8817,1.6949,1.5933,1.5078,1.4049,1.319,1.284,1.284,1.2324,1.159,1.0438,0.9665,0.9181,0.8568,0.8325,0.8231,0.8266,0.8085,0.8035,0.8184,0.3228,-0.1459,-0.5183,-0.6958,-0.7862,-0.7774,-0.7731,-0.8094,-0.8825,-0.9546,-1.0139,0.0,0.0,0.0,0.0,0.0,0.0,0.0,0.0,0.0,0.0,0.0,0.0,0.0,0.0,0.0,0.0,0.0,0.0,0.0,0.0,0.0,0.0,0.0,0.0,3.6321,3.5997,3.6596,3.9283,3.6418,3.5325,3.8218,3.597,3.3766,3.2625,3.2494,3.1918,3.0694,2.9794,2.9654,3.0292,2.8742,2.8068,2.8477,2.7851,2.688,2.6031,2.6043,2.5536,2.4696,2.3688,2.3355,2.3188,2.2385,2.1892,2.1892,2.1892,2.1892,2.1892,2.1892,2.1892,2.1892,2.1892,2.1041,1.9672,1.8291,1.6941,1.5941,1.5941,1.5941,1.5591,1.4221,1.4735,1.5941,1.5941,1.6778,1.7943,1.7943,1.8977,2.001,2.001,1.8977,1.7952,1.7782,1.5747,1.3878,1.3878,1.3706,1.3706,1.3706,1.2324,1.131,1.1505,0.9822,0.0,0.888,0.8503,0.8108,0.8104,0.811,0.7846,0.7862,0.3293,-0.2024,-0.785,-0.7865,-0.7583,-0.7584,-0.7591,-0.8024,-0.8855,-1.1033,-1.2032,-1.1564,0.0,0.0,0.0,0.0,0.0,0.0,0.0,0.0,0.0,0.0,0.0,0.0,0.0,0.0,0.0,0.0,0.0,0.0,0.0,0.0,0.0,0.0,0.0,0.0,3.3808,3.3053,3.4805,3.3223,3.2862,3.4992,3.3285,3.1814,3.1412,3.035,2.9419,2.8967,2.8226,2.7898,2.8095,2.7043,2.6516,2.6714,2.5928,2.5484,2.5512,2.4366,2.3876,2.3688,2.2876,2.2385,2.2385,2.206,2.1892,2.1892,2.1892,2.1892,2.1724,2.001,2.0347,2.1556,1.9004,1.8308,1.8469,1.7119,1.5755,1.4564,1.4564,1.4564,1.4392,1.3878,1.4735,1.5599,1.3712,1.4892,1.619,1.428,1.4713,1.6047,1.6903,1.6737,1.6475,1.6553,1.5933,1.4907,1.4049,1.4392,1.4597,1.3475,1.2608,1.1644,1.083,0.9986,0.9172,0.8535,0.8203,0.7981,0.81,0.7846,0.7074,0.5225,0.1126,-0.319,-0.7527,-0.7568,-0.7469,-0.7405,-0.7506,-0.7895,-0.873,-0.9773,-1.0168,-1.0045,0.0,0.0,0.0,0.0,0.0,0.0,0.0,0.0,0.0,0.0,0.0,0.0,0.0,0.0,0.0,0.0,0.0,0.0,0.0,0.0,0.0,0.0,0.0,0.0,0.0,0.0,3.2425,3.0997,0.0,3.2763,3.1393,3.0255,3.0255,2.9645,2.8904,2.8055,2.775,2.7382,2.6682,2.5802,2.5311,2.5209,2.4746,2.4297,2.4152,2.3038,2.2394,2.2354,2.1721,2.1662,2.1809,2.1809,2.1903,2.1871,2.1208,2.1136,2.1479,1.9162,1.9726,2.1268,1.7786,1.6712,1.6737,1.5155,1.3528,1.2466,1.3452,1.4238,1.4925,1.3989,1.49,1.5913,1.3168,1.3716,1.4378,1.1717,1.2048,1.3213,1.4064,1.4406,1.4462,1.4508,1.4722,1.456,1.2547,1.333,1.3727,1.241,1.2102,1.1776,1.0478,0.9859,0.9215,0.843,0.802,0.7866,0.7917,0.7663,0.6437,0.3503,-0.0478,-0.4273,-0.7197,-0.7493,-0.7437,-0.7318,-0.7314,-0.7856,-0.8605,-0.9052,-0.9384,0.0,0.0,0.0,0.0,0.0,0.0,0.0,0.0,0.0,0.0,0.0,0.0,0.0,0.0,0.0,0.0,0.0,0.0,0.0,0.0,0.0,0.0,0.0,0.0,0.0,0.0,0.0,3.2713,3.0096,0.0,0.0,0.0,0.0,2.9244,3.0425,3.0135,2.7867,2.8319,2.7842,2.5824,2.5128,2.4671,2.435,2.435,2.3434,2.19,2.19,2.1442,2.0678,2.0678,2.0909,2.1317,2.1317,2.1578,2.1757,1.9711,1.9744,2.0736,1.9632,2.0112,2.1008,1.8491,1.6722,1.5383,1.274,1.1059,1.0307,1.2645,1.5045,1.6572,1.4153,1.5144,0.0,0.0,1.3394,1.273,1.0243,1.07,1.1723,1.174,1.174,1.1745,1.1756,1.2708,1.2647,0.9738,1.0546,1.1522,1.0841,0.0,1.1337,1.0351,0.9591,0.8716,0.8231,0.7945,0.7778,0.76,0.7433,0.6105,0.2743,-0.137,-0.4881,-0.7182,-0.7322,-0.7314,-0.7314,-0.745,-0.7871,-0.8905,-0.9004,0.0,0.0,0.0,0.0,0.0,0.0,0.0,0.0,0.0,0.0,0.0,0.0,0.0,0.0,0.0,0.0,0.0,0.0,0.0,0.0,0.0,0.0,0.0,0.0,0.0,0.0,3.0885,3.1273,3.1913,3.1198,3.1459,0.0,0.0,0.0,0.0,0.0,0.0,2.7273,2.7371,2.658,2.4711,2.4599,2.375,2.2293,2.1714,2.1473,2.1401,2.0789,2.0509,2.0678,2.0678,2.0741,2.0846,2.0846,2.0919,2.0982,2.0551,2.0235,1.9621,1.941,2.0106,2.1075,1.8316,1.7776,1.7833,1.4153,1.255,1.2372,1.3005,1.3473,1.374,1.3954,0.0,0.0,0.0,0.0,1.2189,0.9863,0.9425,0.9627,0.9658,1.033,1.101,1.1376,1.2288,1.2219,0.9036,1.0408,1.1623,1.0652,1.0567,0.0,0.977,0.9267,0.8778,0.8519,0.8113,0.7778,0.76,0.7433,0.6105,0.2743,-0.3047,-0.6721,-0.7334,-0.7322,-0.7314,-0.7314,-0.7504,-0.8023,-0.89,0.0,0.0,0.0,0.0,0.0,0.0,0.0,0.0,0.0,0.0,0.0,0.0,0.0,0.0,0.0,0.0,0.0,0.0,0.0,0.0,0.0,0.0,0.0,0.0,0.0,0.0,0.0,2.6559,2.7171,2.7871,2.8567,2.9309,0.0,0.0,0.0,0.0,0.0,0.0,0.0,0.0,0.0,2.3458,2.335,2.2691,2.1339,2.0288,2.0113,2.0411,1.9431,1.9357,2.0071,2.0071,2.0176,2.0385,2.0385,2.0182,1.9729,1.9317,1.9116,1.8802,0.0,0.0,0.0,0.0,1.6763,1.697,1.3534,1.2382,1.2488,1.3654,0.0,0.0,0.0,0.0,0.0,0.0,0.0,1.1027,0.9184,0.8318,0.8018,0.814,0.8953,0.9773,0.9424,1.0704,1.1021,0.8165,0.9256,1.048,0.9679,0.9941,0.0,0.0,0.0,0.8881,0.8708,0.8006,0.7586,0.75,0.7397,0.5496,0.0761,-0.4422,-0.7334,-0.7326,-0.7318,-0.7397,-0.7533,-0.7613,-0.7888,0.0,0.0,0.0,0.0,0.0,0.0,0.0,0.0,0.0,0.0,0.0,0.0,0.0,0.0,0.0,0.0,0.0,0.0,0.0,0.0,0.0,0.0,0.0,0.0,0.0,0.0,0.0,0.0,0.0,2.109,2.2763,0.0,0.0,0.0,0.0,0.0,0.0,0.0,0.0,0.0,0.0,0.0,0.0,0.0,2.1537,2.0758,1.9556,1.9224,1.9536,1.8427,1.835,1.9389,1.9389,1.9507,1.9971,1.9781,0.0,1.8146,1.7416,0.0,0.0,0.0,0.0,0.0,0.0,0.0,0.0,0.0,0.0,0.0,0.0,0.0,0.0,0.0,0.0,0.0,0.0,0.0,0.0,0.0,0.0,0.7489,0.7623,0.8454,0.8639,0.7477,0.8755,0.9465,0.7356,0.7889,0.8662,0.0,0.0,0.0,0.0,0.0,0.0,0.8706,0.7721,0.7204,0.7369,0.6728,0.4121,-0.1674,-0.5338,-0.733,-0.7314,-0.7445,-0.758,-0.7512,-0.7586,0.0,0.0,0.0,0.0,0.0,0.0,0.0,0.0,0.0,0.0,0.0,0.0,0.0,0.0,0.0,0.0,0.0,0.0,0.0,0.0,0.0,0.0,0.0,0.0,0.0,0.0,0.0,0.0,0.0,0.0,0.0,0.0,0.0,0.0,0.0,0.0,0.0,0.0,0.0,0.0,0.0,0.0,0.0,0.0,0.0,0.0,0.0,0.0,0.0,0.0,1.9274,1.95,1.9785,1.9785,1.9642,1.9629,1.8837,1.7546,1.5868,1.7534,0.0,0.0,0.0,0.0,0.0,0.0,0.0,0.0,0.0,0.0,0.0,0.0,0.0,0.0,0.0,0.0,0.0,0.0,0.0,0.0,0.0,0.0,0.9714,1.1381,1.0615,0.9146,0.8509,0.0,0.0,0.0,0.0,0.0,0.0,0.0,0.0,0.0,0.0,0.0,0.8092,0.5875,0.5189,0.7201,0.3658,0.0761,-0.0304,-0.4723,-0.733,-0.7314,-0.7779,-0.7885,0.0,0.0,0.0,0.0,0.0,0.0,0.0,0.0,0.0,0.0,0.0,0.0,0.0,0.0,0.0,0.0,0.0,0.0,0.0,0.0,0.0,0.0,0.0,0.0,0.0,0.0,0.0,0.0,0.0,0.0,0.0,0.0,0.0,0.0,0.0,0.0,0.0,0.0,0.0,0.0,0.0,0.0,0.0,0.0,0.0,0.0,0.0,0.0,0.0,0.0,0.0,0.0,0.0,0.0,0.0,0.0,0.0,0.0,1.8389,1.763,0.0,0.0,0.0,0.0,0.0,0.0,0.0,0.0,0.0,0.0,0.0,0.0,0.0,0.0,0.0,0.0,0.0,0.0,0.0,0.0,0.0,0.0,0.0,0.0,0.0,0.0,0.0,0.0,0.0,0.0,0.0,0.0,0.0,0.0,0.0,0.0,0.0,0.0,0.0,0.0,0.4082,0.4913,0.517,0.3672,0.366,0.1827,-0.3348,-0.5949,-0.7441,-0.7788,-0.7894,0.0,0.0,0.0,0.0,0.0,0.0,0.0,0.0,0.0,0.0,0.0,0.0,0.0,0.0,0.0,0.0,0.0,0.0,0.0,0.0,0.0,0.0,0.0,0.0,0.0,0.0,0.0,0.0,0.0,0.0,0.0,0.0,0.0,0.0,0.0,0.0,0.0,0.0,0.0,0.0,0.0,0.0,0.0,0.0,0.0,0.0,0.0,0.0,0.0,0.0,0.0,0.0,0.0,0.0,0.0,0.0,0.0,0.0,0.0,1.7462,1.7267,0.0,0.0,0.0,0.0,0.0,0.0,0.0,0.0,0.0,0.0,0.0,0.0,0.0,0.0,0.0,0.0,0.0,0.0,0.0,0.0,0.0,0.0,0.0,0.0,0.0,0.0,0.0,0.0,0.0,0.0,0.0,0.0,0.0,0.0,0.0,0.0,0.0,0.0,0.0,0.0,0.0404,0.3545,0.4989,0.1835,0.3203,0.137,-0.5949,-0.7025,-0.7555,-0.8099,-0.7849,0.0,0.0,0.0,0.0,0.0,0.0,0.0,0.0,0.0,0.0,0.0,0.0,0.0,0.0,0.0,0.0,0.0,0.0,0.0,0.0,0.0,0.0,0.0,0.0,0.0,0.0,0.0,0.0,0.0,0.0,0.0,0.0,0.0,0.0,0.0,0.0,0.0,0.0,0.0,0.0,0.0,0.0,0.0,0.0,0.0,0.0,0.0,0.0,0.0,0.0,0.0,0.0,0.0,0.0,0.0,0.0,0.0,0.0,0.0,0.0,0.0,0.0,0.0,0.0,0.0,0.0,0.0,0.0,0.0,0.0,0.0,0.0,0.0,0.0,0.0,0.0,0.0,0.0,0.0,0.0,0.0,0.0,0.0,0.0,0.0,0.0,0.0,0.0,0.0,0.0,0.0,0.0,0.0,0.0,0.0,0.0,0.0,0.0,0.0,0.0,0.0,0.0394,0.0432,0.2294,0.6264,-0.0913,-0.549,-0.4106,-0.6088,-0.7543,-0.8099,0.0,0.0,0.0,0.0,0.0,0.0,0.0,0.0,0.0,0.0,0.0,0.0,0.0,0.0,0.0,0.0,0.0,0.0,0.0,0.0,0.0,0.0,0.0,0.0,0.0,0.0,0.0,0.0,0.0,0.0,0.0,0.0,0.0,0.0,0.0,0.0,0.0,0.0,0.0,0.0,0.0,0.0,0.0,0.0,0.0,0.0,0.0,0.0,0.0,0.0,0.0,0.0,0.0,0.0,0.0,0.0,0.0,0.0,0.0,0.0,0.0,0.0,0.0,0.0,0.0,0.0,0.0,0.0,0.0,0.0,0.0,0.0,0.0,0.0,0.0,0.0,0.0,0.0,0.0,0.0,0.0,0.0,0.0,0.0,0.0,0.0,0.0,0.0,0.0,0.0,0.0,0.0,0.0,0.0,0.0,0.0,0.0,0.0,0.0,0.0,0.0,0.0,0.0393,0.2589,0.3511,0.1066,-0.2437,-0.4876,-0.5785,-0.6855,-0.7792,-0.8637,0.0,0.0,0.0,0.0,0.0,0.0,0.0,0.0,0.0,0.0,0.0,0.0,0.0,0.0,0.0,0.0,0.0,0.0,0.0,0.0,0.0,0.0,0.0,0.0,0.0,0.0,0.0,0.0,0.0,0.0,0.0,0.0,0.0,0.0,0.0,0.0,0.0,0.0,0.0,0.0,0.0,0.0,0.0,0.0,0.0,0.0,0.0,0.0,0.0,0.0,0.0,0.0,0.0,0.0,0.0,0.0,0.0,0.0,0.0,0.0,0.0,0.0,0.0,0.0,0.0,0.0,0.0,0.0,0.0,0.0,0.0,0.0,0.0,0.0,0.0,0.0,0.0,0.0,0.0,0.0,0.0,0.0,0.0,0.0,0.0,0.0,0.0,0.0,0.0,0.0,0.0,0.0,0.0,0.0,0.0,0.0,0.0,0.0,0.0,0.0,0.0,0.0,0.0393,0.302,0.29,-0.3047,-0.381,-0.4876,-0.7162,-0.7314,-0.7758,-0.8926,0.0,0.0,0.0,0.0,0.0,0.0,0.0,0.0,0.0,0.0,0.0,0.0,0.0,0.0,0.0,0.0,0.0,0.0,0.0,0.0,0.0,0.0,0.0,0.0,0.0,0.0,0.0,0.0,0.0,0.0,0.0,0.0,0.0,0.0,0.0,0.0,0.0,0.0,0.0,0.0,0.0,0.0,0.0,0.0,0.0,0.0,0.0,0.0,0.0,0.0,0.0,0.0,0.0,0.0,0.0,0.0,0.0,0.0,0.0,0.0,0.0,0.0,0.0,0.0,0.0,0.0,0.0,0.0,0.0,0.0,0.0,0.0,0.0,0.0,0.0,0.0,0.0,0.0,0.0,0.0,0.0,0.0,0.0,0.0,0.0,0.0,0.0,0.0,0.0,0.0,0.0,0.0,0.0,0.0,0.0,0.0,0.0,0.0,0.0,0.0,0.0,0.0,0.0393,0.0,-0.0915,-0.3353,-0.5953,-0.733,-0.7318,-0.7314,-0.7758,0.0,0.0,0.0,0.0,0.0,0.0,0.0,0.0,0.0,0.0,0.0,0.0,0.0,0.0,0.0,0.0,0.0,0.0,0.0,0.0,0.0,0.0,0.0,0.0,0.0,0.0,0.0,0.0,0.0,0.0,0.0,0.0,0.0,0.0,0.0,0.0,0.0,0.0,0.0,0.0,0.0,0.0,0.0,0.0,0.0,0.0,0.0,0.0,0.0,0.0,0.0,0.0,0.0,0.0,0.0,0.0,0.0,0.0,0.0,0.0,0.0,0.0,0.0,0.0,0.0,0.0,0.0,0.0,0.0,0.0,0.0,0.0,0.0,0.0,0.0,0.0,0.0,0.0,0.0,0.0,0.0,0.0,0.0,0.0,0.0,0.0,0.0,0.0,0.0,0.0,0.0,0.0,0.0,0.0,0.0,0.0,0.0,0.0,0.0,0.0,0.0,0.0,0.0,0.0392,0.0,-0.0898,-0.3498,-0.5953,-0.733,-0.7318,-0.7314,-0.7758,-0.8926,0.0,0.0,0.0,0.0,0.0,0.0,0.0,0.0,0.0,0.0,0.0,0.0,0.0,0.0,0.0,0.0,0.0,0.0,0.0,0.0,0.0,0.0,0.0,0.0,0.0,0.0,0.0,0.0,0.0,0.0,0.0,0.0,0.0,0.0,0.0,0.0,0.0,0.0,0.0,0.0,0.0,0.0,0.0,0.0,0.0,0.0,0.0,0.0,0.0,0.0,0.0,0.0,0.0,0.0,0.0,0.0,0.0,0.0,0.0,0.0,0.0,0.0,0.0,0.0,0.0,0.0,0.0,0.0,0.0,0.0,0.0,0.0,0.0,0.0,0.0,0.0,0.0,0.0,0.0,0.0,0.0,0.0,0.0,0.0,0.0,0.0,0.0,0.0,0.0,0.0,0.0,0.0,0.0,0.0,0.0,0.0,0.0,0.0,0.0,0.0,0.0,0.0,0.0,0.1709,-0.135,-0.4721,-0.6413,-0.733,-0.7318,-0.7314,-0.7758,-0.8926,0.0,0.0,0.0,0.0,0.0,0.0,0.0,0.0,0.0,0.0,0.0,0.0,0.0,0.0,0.0,0.0,0.0,0.0,0.0,0.0,0.0,0.0,0.0,0.0,0.0,0.0,0.0,0.0,0.0,0.0,0.0,0.0,0.0,0.0,0.0,0.0,0.0,0.0,0.0,0.0,0.0,0.0,0.0,0.0,0.0,0.0,0.0,0.0,0.0,0.0,0.0,0.0,0.0,0.0,0.0,0.0,0.0,0.0,0.0,0.0,0.0,0.0,0.0,0.0,0.0,0.0,0.0,0.0,0.0,0.0,0.0,0.0,0.0,0.0,0.0,0.0,0.0,0.0,0.0,0.0,0.0,0.0,0.0,0.0,0.0,0.0,0.0,0.0,0.0,0.0,0.0,0.0,0.0,0.0,0.0,0.0,0.0,0.0,0.0,0.0,0.0,0.0,0.0,0.436,-0.1824,-0.6565,-0.7334,-0.733,-0.7318,-0.7314,-0.7758,-0.8791,-0.8355,0.0,0.0,0.0,0.0,0.0,0.0,0.0,0.0,0.0,0.0,0.0,0.0,0.0,0.0,0.0,0.0,0.0,0.0,0.0,0.0,0.0,0.0,0.0,0.0,0.0,0.0,0.0,0.0,0.0,0.0,0.0,0.0,0.0,0.0,0.0,0.0,0.0,0.0,0.0,0.0,0.0,0.0,0.0,0.0,0.0,0.0,0.0,0.0,0.0,0.0,0.0,0.0,0.0,0.0,0.0,0.0,0.0,0.0,0.0,0.0,0.0,0.0,0.0,0.0,0.0,0.0,0.0,0.0,0.0,0.0,0.0,0.0,0.0,0.0,0.0,0.0,0.0,0.0,0.0,0.0,0.0,0.0,0.0,0.0,0.0,0.0,0.0,0.0,0.0,0.0,0.0,0.0,0.0,0.0,0.0,0.0,0.0,0.0,0.0,0.0,0.0,0.0,0.5067,-0.0292,-0.4099,-0.6257,-0.733,-0.7318,-0.7314,-0.7762,-0.8519,-0.8362,0.0,0.0,0.0,0.0,0.0,0.0,0.0,0.0,0.0,0.0,0.0,0.0,0.0,0.0,0.0,0.0,0.0,0.0,0.0,0.0,0.0,0.0,0.0,0.0,0.0,0.0,0.0,0.0,0.0,0.0,0.0,0.0,0.0,0.0,0.0,0.0,0.0,0.0,0.0,0.0,0.0,0.0,0.0,0.0,0.0,0.0,0.0,0.0,0.0,0.0,0.0,0.0,0.0,0.0,0.0,0.0,0.0,0.0,0.0,0.0,0.0,0.0,0.0,0.0,0.0,0.0,0.0,0.0,0.0,0.0,0.0,0.0,0.0,0.0,0.0,0.0,0.0,0.0,0.0,0.0,0.0,0.0,0.0,0.0,0.0,0.0,0.0,0.0,0.0,0.0,0.0,0.0,0.0,0.0,0.0,0.0,0.0,0.0,0.0,0.0,0.0,0.0,0.7603,0.2882,-0.4554,-0.6576,-0.7338,-0.7326,-0.7326,-0.7617,-0.8368,-0.893,0.0,0.0,0.0,0.0,0.0,0.0,0.0,0.0,0.0,0.0,0.0,0.0,0.0,0.0,0.0,0.0,0.0,0.0,0.0,0.0,0.0,0.0,0.0,0.0,0.0,0.0,0.0,0.0,0.0,0.0,0.0,0.0,0.0,0.0,0.0,0.0,0.0,0.0,0.0,0.0,0.0,0.0,0.0,0.0,0.0,0.0,0.0,0.0,0.0,0.0,0.0,0.0,0.0,0.0,0.0,0.0,0.0,0.0,0.0,0.0,0.0,0.0,0.0,0.0,0.0,0.0,0.0,0.0,0.0,0.0,0.0,0.0,0.0,0.0,0.0,0.0,0.0,0.0,0.0,0.0,0.0,0.0,0.0,0.0,0.0,0.0,0.0,0.0,0.0,0.0,0.0,0.0,0.0,0.0,0.0,0.0,0.0,0.0,0.0,0.0,0.0,0.0,0.0,0.5898,-0.6176,-0.7014,-0.6884,-0.6873,-0.7178,-0.7622,-0.8222,0.0,0.0,0.0,0.0,0.0,0.0,0.0,0.0,0.0,0.0,0.0,0.0,0.0,0.0,0.0,0.0,0.0,0.0,0.0,0.0,0.0,0.0,0.0,0.0,0.0,0.0,0.0,0.0,0.0,0.0,0.0,0.0,0.0,0.0,0.0,0.0,0.0,0.0,0.0,0.0,0.0,0.0,0.0,0.0,0.0,0.0,0.0,0.0,0.0,0.0,0.0,0.0,0.0,0.0,0.0,0.0,0.0,0.0,0.0,0.0,0.0,0.0,0.0,0.0,0.0,0.0,0.0,0.0,0.0,0.0,0.0,0.0,0.0,0.0,0.0,0.0,0.0,0.0,0.0,0.0,0.0,0.0,0.0,0.0,0.0,0.0,0.0,0.0,0.0,0.0,0.0,0.0,0.0,0.0,0.0,0.0,0.0,0.0,0.0,0.0,0.0,0.0,0.0,0.0,0.5965,-0.616,-0.551,-0.4269,-0.4269,-0.625,-0.7469,-0.7538,0.0,0.0,0.0,0.0,0.0,0.0,0.0,0.0,0.0,0.0,0.0,0.0,0.0,0.0]}]]]